<?xml version="1.0" encoding="UTF-8" standalone="no" ?>
<gpx xmlns="http://www.topografix.com/GPX/1/1" xmlns:xsi="http://www.w3.org/2001/XMLSchema-instance" xsi:schemaLocation="http://www.topografix.com/GPX/1/1 http://www.topografix.com/GPX/1/1/gpx.xsd" version="1.1" creator="VisuGPX - https://www.visugpx.com">
  <metadata>
    <name>83-D+-Les Arcs</name>
    <desc><![CDATA[83-D+-Les Arcs : les Terriers - les Menhirs
]]></desc>
  </metadata>
  <trk>
    <name><![CDATA[2019-01-13-D+-les arcs castel diaou]]></name>
    <trkseg>
      <trkpt lat="43.43455" lon="6.51048">
        <ele>43</ele>
        <time>2019-01-13T08:27:20Z</time>
      </trkpt>
      <trkpt lat="43.43455" lon="6.51049">
        <ele>43</ele>
        <time>2019-01-13T08:27:24Z</time>
      </trkpt>
      <trkpt lat="43.4345" lon="6.5106">
        <ele>44.2</ele>
        <time>2019-01-13T08:28:40Z</time>
      </trkpt>
      <trkpt lat="43.43441" lon="6.51058">
        <ele>43.3</ele>
        <time>2019-01-13T08:31:01Z</time>
      </trkpt>
      <trkpt lat="43.43432" lon="6.51062">
        <ele>43</ele>
        <time>2019-01-13T08:36:44Z</time>
      </trkpt>
      <trkpt lat="43.43424" lon="6.51056">
        <ele>43.5</ele>
        <time>2019-01-13T08:37:29Z</time>
      </trkpt>
      <trkpt lat="43.43416" lon="6.51047">
        <ele>43</ele>
        <time>2019-01-13T08:39:03Z</time>
      </trkpt>
      <trkpt lat="43.43407" lon="6.51047">
        <ele>43.2</ele>
        <time>2019-01-13T08:39:09Z</time>
      </trkpt>
      <trkpt lat="43.43402" lon="6.51036">
        <ele>42.9</ele>
        <time>2019-01-13T08:39:20Z</time>
      </trkpt>
      <trkpt lat="43.43394" lon="6.51028">
        <ele>42.3</ele>
        <time>2019-01-13T08:39:30Z</time>
      </trkpt>
      <trkpt lat="43.43384" lon="6.51024">
        <ele>42.5</ele>
        <time>2019-01-13T08:39:39Z</time>
      </trkpt>
      <trkpt lat="43.43375" lon="6.51021">
        <ele>42.3</ele>
        <time>2019-01-13T08:39:51Z</time>
      </trkpt>
      <trkpt lat="43.43364" lon="6.51017">
        <ele>41.8</ele>
        <time>2019-01-13T08:39:58Z</time>
      </trkpt>
      <trkpt lat="43.43355" lon="6.51014">
        <ele>41.4</ele>
        <time>2019-01-13T08:40:05Z</time>
      </trkpt>
      <trkpt lat="43.43346" lon="6.51015">
        <ele>41.2</ele>
        <time>2019-01-13T08:40:12Z</time>
      </trkpt>
      <trkpt lat="43.43336" lon="6.51013">
        <ele>41.2</ele>
        <time>2019-01-13T08:40:19Z</time>
      </trkpt>
      <trkpt lat="43.43326" lon="6.51014">
        <ele>41.2</ele>
        <time>2019-01-13T08:40:26Z</time>
      </trkpt>
      <trkpt lat="43.43318" lon="6.51021">
        <ele>41</ele>
        <time>2019-01-13T08:40:35Z</time>
      </trkpt>
      <trkpt lat="43.43305" lon="6.5102">
        <ele>40.7</ele>
        <time>2019-01-13T08:40:41Z</time>
      </trkpt>
      <trkpt lat="43.43297" lon="6.51024">
        <ele>40.5</ele>
        <time>2019-01-13T08:40:47Z</time>
      </trkpt>
      <trkpt lat="43.43288" lon="6.51029">
        <ele>40.3</ele>
        <time>2019-01-13T08:40:53Z</time>
      </trkpt>
      <trkpt lat="43.43279" lon="6.51035">
        <ele>40.1</ele>
        <time>2019-01-13T08:41:02Z</time>
      </trkpt>
      <trkpt lat="43.4327" lon="6.51037">
        <ele>40</ele>
        <time>2019-01-13T08:41:10Z</time>
      </trkpt>
      <trkpt lat="43.43261" lon="6.51041">
        <ele>39.6</ele>
        <time>2019-01-13T08:41:20Z</time>
      </trkpt>
      <trkpt lat="43.43252" lon="6.5104">
        <ele>39.7</ele>
        <time>2019-01-13T08:41:25Z</time>
      </trkpt>
      <trkpt lat="43.43242" lon="6.51042">
        <ele>39.6</ele>
        <time>2019-01-13T08:41:34Z</time>
      </trkpt>
      <trkpt lat="43.43231" lon="6.51041">
        <ele>39.5</ele>
        <time>2019-01-13T08:41:43Z</time>
      </trkpt>
      <trkpt lat="43.43222" lon="6.51041">
        <ele>39.5</ele>
        <time>2019-01-13T08:41:51Z</time>
      </trkpt>
      <trkpt lat="43.43213" lon="6.51037">
        <ele>39.5</ele>
        <time>2019-01-13T08:41:59Z</time>
      </trkpt>
      <trkpt lat="43.43203" lon="6.51036">
        <ele>39.5</ele>
        <time>2019-01-13T08:42:07Z</time>
      </trkpt>
      <trkpt lat="43.43192" lon="6.51038">
        <ele>39.3</ele>
        <time>2019-01-13T08:42:48Z</time>
      </trkpt>
      <trkpt lat="43.43183" lon="6.51037">
        <ele>39.4</ele>
        <time>2019-01-13T08:42:57Z</time>
      </trkpt>
      <trkpt lat="43.43176" lon="6.51045">
        <ele>39.9</ele>
        <time>2019-01-13T08:43:08Z</time>
      </trkpt>
      <trkpt lat="43.43171" lon="6.51058">
        <ele>40.5</ele>
        <time>2019-01-13T08:43:15Z</time>
      </trkpt>
      <trkpt lat="43.43168" lon="6.5107">
        <ele>41.5</ele>
        <time>2019-01-13T08:43:23Z</time>
      </trkpt>
      <trkpt lat="43.43165" lon="6.51083">
        <ele>42.3</ele>
        <time>2019-01-13T08:43:30Z</time>
      </trkpt>
      <trkpt lat="43.43158" lon="6.51092">
        <ele>43</ele>
        <time>2019-01-13T08:43:39Z</time>
      </trkpt>
      <trkpt lat="43.43149" lon="6.51095">
        <ele>43.5</ele>
        <time>2019-01-13T08:43:44Z</time>
      </trkpt>
      <trkpt lat="43.4314" lon="6.51097">
        <ele>44.8</ele>
        <time>2019-01-13T08:43:52Z</time>
      </trkpt>
      <trkpt lat="43.43132" lon="6.51105">
        <ele>45.4</ele>
        <time>2019-01-13T08:43:59Z</time>
      </trkpt>
      <trkpt lat="43.43126" lon="6.51113">
        <ele>46.3</ele>
        <time>2019-01-13T08:44:07Z</time>
      </trkpt>
      <trkpt lat="43.43117" lon="6.51118">
        <ele>47.3</ele>
        <time>2019-01-13T08:44:15Z</time>
      </trkpt>
      <trkpt lat="43.43108" lon="6.51122">
        <ele>48.3</ele>
        <time>2019-01-13T08:44:25Z</time>
      </trkpt>
      <trkpt lat="43.43099" lon="6.51125">
        <ele>49</ele>
        <time>2019-01-13T08:44:32Z</time>
      </trkpt>
      <trkpt lat="43.43089" lon="6.51127">
        <ele>49.2</ele>
        <time>2019-01-13T08:44:39Z</time>
      </trkpt>
      <trkpt lat="43.4308" lon="6.51128">
        <ele>49.3</ele>
        <time>2019-01-13T08:44:45Z</time>
      </trkpt>
      <trkpt lat="43.4307" lon="6.51127">
        <ele>49</ele>
        <time>2019-01-13T08:44:53Z</time>
      </trkpt>
      <trkpt lat="43.43061" lon="6.51123">
        <ele>49</ele>
        <time>2019-01-13T08:44:58Z</time>
      </trkpt>
      <trkpt lat="43.43051" lon="6.5112">
        <ele>48.7</ele>
        <time>2019-01-13T08:45:06Z</time>
      </trkpt>
      <trkpt lat="43.43042" lon="6.51118">
        <ele>48.6</ele>
        <time>2019-01-13T08:45:14Z</time>
      </trkpt>
      <trkpt lat="43.43033" lon="6.51114">
        <ele>48.2</ele>
        <time>2019-01-13T08:45:22Z</time>
      </trkpt>
      <trkpt lat="43.43025" lon="6.51107">
        <ele>48.2</ele>
        <time>2019-01-13T08:45:28Z</time>
      </trkpt>
      <trkpt lat="43.43019" lon="6.51096">
        <ele>47.7</ele>
        <time>2019-01-13T08:45:37Z</time>
      </trkpt>
      <trkpt lat="43.43011" lon="6.51106">
        <ele>48.1</ele>
        <time>2019-01-13T08:45:50Z</time>
      </trkpt>
      <trkpt lat="43.43007" lon="6.5112">
        <ele>48.1</ele>
        <time>2019-01-13T08:45:57Z</time>
      </trkpt>
      <trkpt lat="43.43003" lon="6.51132">
        <ele>48.2</ele>
        <time>2019-01-13T08:46:03Z</time>
      </trkpt>
      <trkpt lat="43.43002" lon="6.51145">
        <ele>48.4</ele>
        <time>2019-01-13T08:46:08Z</time>
      </trkpt>
      <trkpt lat="43.43001" lon="6.51157">
        <ele>48.8</ele>
        <time>2019-01-13T08:46:16Z</time>
      </trkpt>
      <trkpt lat="43.42997" lon="6.5117">
        <ele>49.1</ele>
        <time>2019-01-13T08:46:23Z</time>
      </trkpt>
      <trkpt lat="43.42992" lon="6.51181">
        <ele>49.3</ele>
        <time>2019-01-13T08:46:32Z</time>
      </trkpt>
      <trkpt lat="43.42984" lon="6.51189">
        <ele>49.5</ele>
        <time>2019-01-13T08:46:40Z</time>
      </trkpt>
      <trkpt lat="43.42981" lon="6.51202">
        <ele>49.8</ele>
        <time>2019-01-13T08:46:46Z</time>
      </trkpt>
      <trkpt lat="43.42974" lon="6.5121">
        <ele>49.9</ele>
        <time>2019-01-13T08:46:56Z</time>
      </trkpt>
      <trkpt lat="43.4297" lon="6.51221">
        <ele>50.1</ele>
        <time>2019-01-13T08:47:02Z</time>
      </trkpt>
      <trkpt lat="43.42967" lon="6.51235">
        <ele>50.1</ele>
        <time>2019-01-13T08:47:08Z</time>
      </trkpt>
      <trkpt lat="43.42961" lon="6.51248">
        <ele>50</ele>
        <time>2019-01-13T08:47:15Z</time>
      </trkpt>
      <trkpt lat="43.42961" lon="6.51261">
        <ele>50.2</ele>
        <time>2019-01-13T08:47:21Z</time>
      </trkpt>
      <trkpt lat="43.42962" lon="6.51275">
        <ele>50.3</ele>
        <time>2019-01-13T08:47:29Z</time>
      </trkpt>
      <trkpt lat="43.42954" lon="6.51283">
        <ele>50.3</ele>
        <time>2019-01-13T08:47:36Z</time>
      </trkpt>
      <trkpt lat="43.42947" lon="6.51291">
        <ele>49.9</ele>
        <time>2019-01-13T08:47:42Z</time>
      </trkpt>
      <trkpt lat="43.42943" lon="6.51303">
        <ele>49.7</ele>
        <time>2019-01-13T08:47:49Z</time>
      </trkpt>
      <trkpt lat="43.42939" lon="6.51315">
        <ele>49.7</ele>
        <time>2019-01-13T08:47:57Z</time>
      </trkpt>
      <trkpt lat="43.42936" lon="6.51327">
        <ele>49.4</ele>
        <time>2019-01-13T08:48:04Z</time>
      </trkpt>
      <trkpt lat="43.42932" lon="6.51341">
        <ele>49</ele>
        <time>2019-01-13T08:48:10Z</time>
      </trkpt>
      <trkpt lat="43.42926" lon="6.51352">
        <ele>48.6</ele>
        <time>2019-01-13T08:48:18Z</time>
      </trkpt>
      <trkpt lat="43.42921" lon="6.51363">
        <ele>48.5</ele>
        <time>2019-01-13T08:48:26Z</time>
      </trkpt>
      <trkpt lat="43.42918" lon="6.51376">
        <ele>48.3</ele>
        <time>2019-01-13T08:48:34Z</time>
      </trkpt>
      <trkpt lat="43.42915" lon="6.51391">
        <ele>48.3</ele>
        <time>2019-01-13T08:48:40Z</time>
      </trkpt>
      <trkpt lat="43.4291" lon="6.51402">
        <ele>48.4</ele>
        <time>2019-01-13T08:48:47Z</time>
      </trkpt>
      <trkpt lat="43.42902" lon="6.5141">
        <ele>48.6</ele>
        <time>2019-01-13T08:48:55Z</time>
      </trkpt>
      <trkpt lat="43.42902" lon="6.51424">
        <ele>48.5</ele>
        <time>2019-01-13T08:49:02Z</time>
      </trkpt>
      <trkpt lat="43.42905" lon="6.51436">
        <ele>48.4</ele>
        <time>2019-01-13T08:49:08Z</time>
      </trkpt>
      <trkpt lat="43.4291" lon="6.51447">
        <ele>48.2</ele>
        <time>2019-01-13T08:49:12Z</time>
      </trkpt>
      <trkpt lat="43.42913" lon="6.51459">
        <ele>47.7</ele>
        <time>2019-01-13T08:49:21Z</time>
      </trkpt>
      <trkpt lat="43.42916" lon="6.51472">
        <ele>47.3</ele>
        <time>2019-01-13T08:49:28Z</time>
      </trkpt>
      <trkpt lat="43.42919" lon="6.51485">
        <ele>46.8</ele>
        <time>2019-01-13T08:49:35Z</time>
      </trkpt>
      <trkpt lat="43.42918" lon="6.51498">
        <ele>46.3</ele>
        <time>2019-01-13T08:49:42Z</time>
      </trkpt>
      <trkpt lat="43.42918" lon="6.51511">
        <ele>45.7</ele>
        <time>2019-01-13T08:49:51Z</time>
      </trkpt>
      <trkpt lat="43.42913" lon="6.51523">
        <ele>45.3</ele>
        <time>2019-01-13T08:49:58Z</time>
      </trkpt>
      <trkpt lat="43.42908" lon="6.51534">
        <ele>45</ele>
        <time>2019-01-13T08:50:06Z</time>
      </trkpt>
      <trkpt lat="43.42904" lon="6.51546">
        <ele>44.6</ele>
        <time>2019-01-13T08:50:12Z</time>
      </trkpt>
      <trkpt lat="43.42897" lon="6.51553">
        <ele>44</ele>
        <time>2019-01-13T08:50:19Z</time>
      </trkpt>
      <trkpt lat="43.42891" lon="6.51565">
        <ele>43.6</ele>
        <time>2019-01-13T08:50:26Z</time>
      </trkpt>
      <trkpt lat="43.42884" lon="6.51574">
        <ele>43.1</ele>
        <time>2019-01-13T08:50:33Z</time>
      </trkpt>
      <trkpt lat="43.42881" lon="6.51587">
        <ele>42.5</ele>
        <time>2019-01-13T08:50:39Z</time>
      </trkpt>
      <trkpt lat="43.42874" lon="6.51596">
        <ele>42.1</ele>
        <time>2019-01-13T08:50:47Z</time>
      </trkpt>
      <trkpt lat="43.42866" lon="6.51603">
        <ele>41.7</ele>
        <time>2019-01-13T08:50:54Z</time>
      </trkpt>
      <trkpt lat="43.42859" lon="6.51615">
        <ele>41.3</ele>
        <time>2019-01-13T08:51:00Z</time>
      </trkpt>
      <trkpt lat="43.42854" lon="6.51624">
        <ele>41.3</ele>
        <time>2019-01-13T08:51:07Z</time>
      </trkpt>
      <trkpt lat="43.42852" lon="6.51638">
        <ele>41.1</ele>
        <time>2019-01-13T08:51:15Z</time>
      </trkpt>
      <trkpt lat="43.42854" lon="6.51653">
        <ele>40.7</ele>
        <time>2019-01-13T08:51:22Z</time>
      </trkpt>
      <trkpt lat="43.42854" lon="6.51666">
        <ele>40.5</ele>
        <time>2019-01-13T08:51:29Z</time>
      </trkpt>
      <trkpt lat="43.42859" lon="6.51678">
        <ele>40.1</ele>
        <time>2019-01-13T08:51:37Z</time>
      </trkpt>
      <trkpt lat="43.4286" lon="6.51691">
        <ele>40.1</ele>
        <time>2019-01-13T08:51:45Z</time>
      </trkpt>
      <trkpt lat="43.42867" lon="6.51703">
        <ele>39.7</ele>
        <time>2019-01-13T08:51:53Z</time>
      </trkpt>
      <trkpt lat="43.42872" lon="6.51713">
        <ele>39.4</ele>
        <time>2019-01-13T08:51:58Z</time>
      </trkpt>
      <trkpt lat="43.42875" lon="6.51726">
        <ele>39.2</ele>
        <time>2019-01-13T08:52:08Z</time>
      </trkpt>
      <trkpt lat="43.42877" lon="6.5174">
        <ele>39.2</ele>
        <time>2019-01-13T08:52:16Z</time>
      </trkpt>
      <trkpt lat="43.42882" lon="6.51751">
        <ele>38.7</ele>
        <time>2019-01-13T08:52:22Z</time>
      </trkpt>
      <trkpt lat="43.42887" lon="6.51764">
        <ele>38.4</ele>
        <time>2019-01-13T08:52:30Z</time>
      </trkpt>
      <trkpt lat="43.42891" lon="6.51775">
        <ele>38.2</ele>
        <time>2019-01-13T08:52:35Z</time>
      </trkpt>
      <trkpt lat="43.42895" lon="6.51787">
        <ele>38.1</ele>
        <time>2019-01-13T08:52:41Z</time>
      </trkpt>
      <trkpt lat="43.42892" lon="6.51799">
        <ele>38.1</ele>
        <time>2019-01-13T08:52:47Z</time>
      </trkpt>
      <trkpt lat="43.42887" lon="6.5181">
        <ele>38.3</ele>
        <time>2019-01-13T08:52:51Z</time>
      </trkpt>
      <trkpt lat="43.42885" lon="6.51823">
        <ele>38.8</ele>
        <time>2019-01-13T08:53:00Z</time>
      </trkpt>
      <trkpt lat="43.42886" lon="6.51837">
        <ele>39</ele>
        <time>2019-01-13T08:53:07Z</time>
      </trkpt>
      <trkpt lat="43.42888" lon="6.51851">
        <ele>38.8</ele>
        <time>2019-01-13T08:53:14Z</time>
      </trkpt>
      <trkpt lat="43.42891" lon="6.51864">
        <ele>38.7</ele>
        <time>2019-01-13T08:53:21Z</time>
      </trkpt>
      <trkpt lat="43.42894" lon="6.51877">
        <ele>38.1</ele>
        <time>2019-01-13T08:53:28Z</time>
      </trkpt>
      <trkpt lat="43.42896" lon="6.51892">
        <ele>37.3</ele>
        <time>2019-01-13T08:53:37Z</time>
      </trkpt>
      <trkpt lat="43.42897" lon="6.51904">
        <ele>36.5</ele>
        <time>2019-01-13T08:53:44Z</time>
      </trkpt>
      <trkpt lat="43.42901" lon="6.51916">
        <ele>36</ele>
        <time>2019-01-13T08:53:50Z</time>
      </trkpt>
      <trkpt lat="43.42902" lon="6.5193">
        <ele>35.6</ele>
        <time>2019-01-13T08:53:55Z</time>
      </trkpt>
      <trkpt lat="43.42904" lon="6.51942">
        <ele>35</ele>
        <time>2019-01-13T08:54:03Z</time>
      </trkpt>
      <trkpt lat="43.42908" lon="6.51954">
        <ele>34.2</ele>
        <time>2019-01-13T08:54:11Z</time>
      </trkpt>
      <trkpt lat="43.42912" lon="6.51966">
        <ele>33.4</ele>
        <time>2019-01-13T08:54:18Z</time>
      </trkpt>
      <trkpt lat="43.42915" lon="6.5198">
        <ele>32.5</ele>
        <time>2019-01-13T08:54:30Z</time>
      </trkpt>
      <trkpt lat="43.42921" lon="6.5199">
        <ele>31.8</ele>
        <time>2019-01-13T08:54:38Z</time>
      </trkpt>
      <trkpt lat="43.42925" lon="6.52002">
        <ele>31.2</ele>
        <time>2019-01-13T08:54:46Z</time>
      </trkpt>
      <trkpt lat="43.42929" lon="6.52014">
        <ele>30.6</ele>
        <time>2019-01-13T08:54:54Z</time>
      </trkpt>
      <trkpt lat="43.42933" lon="6.52026">
        <ele>30.3</ele>
        <time>2019-01-13T08:55:02Z</time>
      </trkpt>
      <trkpt lat="43.42938" lon="6.52036">
        <ele>29.7</ele>
        <time>2019-01-13T08:55:11Z</time>
      </trkpt>
      <trkpt lat="43.42946" lon="6.52055">
        <ele>29.4</ele>
        <time>2019-01-13T08:55:17Z</time>
      </trkpt>
      <trkpt lat="43.42948" lon="6.52067">
        <ele>29.2</ele>
        <time>2019-01-13T08:55:22Z</time>
      </trkpt>
      <trkpt lat="43.42951" lon="6.5208">
        <ele>29.2</ele>
        <time>2019-01-13T08:55:29Z</time>
      </trkpt>
      <trkpt lat="43.42956" lon="6.52093">
        <ele>29.1</ele>
        <time>2019-01-13T08:55:38Z</time>
      </trkpt>
      <trkpt lat="43.4296" lon="6.52105">
        <ele>29.2</ele>
        <time>2019-01-13T08:55:46Z</time>
      </trkpt>
      <trkpt lat="43.4296" lon="6.52119">
        <ele>29.3</ele>
        <time>2019-01-13T08:56:08Z</time>
      </trkpt>
      <trkpt lat="43.42961" lon="6.52131">
        <ele>29.5</ele>
        <time>2019-01-13T08:56:15Z</time>
      </trkpt>
      <trkpt lat="43.42964" lon="6.52145">
        <ele>29.6</ele>
        <time>2019-01-13T08:56:21Z</time>
      </trkpt>
      <trkpt lat="43.4297" lon="6.52158">
        <ele>29.5</ele>
        <time>2019-01-13T08:56:28Z</time>
      </trkpt>
      <trkpt lat="43.4298" lon="6.52163">
        <ele>27.8</ele>
        <time>2019-01-13T08:56:43Z</time>
      </trkpt>
      <trkpt lat="43.42976" lon="6.52177">
        <ele>29.7</ele>
        <time>2019-01-13T08:57:03Z</time>
      </trkpt>
      <trkpt lat="43.42977" lon="6.52191">
        <ele>29.7</ele>
        <time>2019-01-13T08:57:10Z</time>
      </trkpt>
      <trkpt lat="43.42983" lon="6.522">
        <ele>29.7</ele>
        <time>2019-01-13T08:57:22Z</time>
      </trkpt>
      <trkpt lat="43.42977" lon="6.52191">
        <ele>30.1</ele>
        <time>2019-01-13T08:57:46Z</time>
      </trkpt>
      <trkpt lat="43.42975" lon="6.52178">
        <ele>30.9</ele>
        <time>2019-01-13T08:59:16Z</time>
      </trkpt>
      <trkpt lat="43.42974" lon="6.52191">
        <ele>31.4</ele>
        <time>2019-01-13T09:00:00Z</time>
      </trkpt>
      <trkpt lat="43.42979" lon="6.52201">
        <ele>31.5</ele>
        <time>2019-01-13T09:00:07Z</time>
      </trkpt>
      <trkpt lat="43.42982" lon="6.52213">
        <ele>31.5</ele>
        <time>2019-01-13T09:00:15Z</time>
      </trkpt>
      <trkpt lat="43.42983" lon="6.52226">
        <ele>31.5</ele>
        <time>2019-01-13T09:00:22Z</time>
      </trkpt>
      <trkpt lat="43.4298" lon="6.52239">
        <ele>31.8</ele>
        <time>2019-01-13T09:00:31Z</time>
      </trkpt>
      <trkpt lat="43.4298" lon="6.52252">
        <ele>31.7</ele>
        <time>2019-01-13T09:00:40Z</time>
      </trkpt>
      <trkpt lat="43.42976" lon="6.52264">
        <ele>31.4</ele>
        <time>2019-01-13T09:00:48Z</time>
      </trkpt>
      <trkpt lat="43.42971" lon="6.52275">
        <ele>31.4</ele>
        <time>2019-01-13T09:00:56Z</time>
      </trkpt>
      <trkpt lat="43.42964" lon="6.52284">
        <ele>31.6</ele>
        <time>2019-01-13T09:01:03Z</time>
      </trkpt>
      <trkpt lat="43.42958" lon="6.52294">
        <ele>31.7</ele>
        <time>2019-01-13T09:01:10Z</time>
      </trkpt>
      <trkpt lat="43.42951" lon="6.52303">
        <ele>31.7</ele>
        <time>2019-01-13T09:01:16Z</time>
      </trkpt>
      <trkpt lat="43.42944" lon="6.52311">
        <ele>31.5</ele>
        <time>2019-01-13T09:01:23Z</time>
      </trkpt>
      <trkpt lat="43.42937" lon="6.52318">
        <ele>31.5</ele>
        <time>2019-01-13T09:01:30Z</time>
      </trkpt>
      <trkpt lat="43.42927" lon="6.5232">
        <ele>31</ele>
        <time>2019-01-13T09:01:38Z</time>
      </trkpt>
      <trkpt lat="43.42918" lon="6.52316">
        <ele>30.8</ele>
        <time>2019-01-13T09:01:47Z</time>
      </trkpt>
      <trkpt lat="43.42909" lon="6.52313">
        <ele>30.8</ele>
        <time>2019-01-13T09:01:54Z</time>
      </trkpt>
      <trkpt lat="43.42898" lon="6.52312">
        <ele>30.5</ele>
        <time>2019-01-13T09:02:01Z</time>
      </trkpt>
      <trkpt lat="43.4289" lon="6.52321">
        <ele>30.6</ele>
        <time>2019-01-13T09:02:09Z</time>
      </trkpt>
      <trkpt lat="43.42882" lon="6.52329">
        <ele>30.4</ele>
        <time>2019-01-13T09:02:16Z</time>
      </trkpt>
      <trkpt lat="43.42872" lon="6.52333">
        <ele>30.1</ele>
        <time>2019-01-13T09:02:25Z</time>
      </trkpt>
      <trkpt lat="43.42863" lon="6.52339">
        <ele>30</ele>
        <time>2019-01-13T09:02:35Z</time>
      </trkpt>
      <trkpt lat="43.42854" lon="6.52345">
        <ele>30</ele>
        <time>2019-01-13T09:02:43Z</time>
      </trkpt>
      <trkpt lat="43.42845" lon="6.52352">
        <ele>29.8</ele>
        <time>2019-01-13T09:02:57Z</time>
      </trkpt>
      <trkpt lat="43.42836" lon="6.52354">
        <ele>29.5</ele>
        <time>2019-01-13T09:03:06Z</time>
      </trkpt>
      <trkpt lat="43.42827" lon="6.52357">
        <ele>29.6</ele>
        <time>2019-01-13T09:03:13Z</time>
      </trkpt>
      <trkpt lat="43.42817" lon="6.52361">
        <ele>29.4</ele>
        <time>2019-01-13T09:03:22Z</time>
      </trkpt>
      <trkpt lat="43.4281" lon="6.52369">
        <ele>29.3</ele>
        <time>2019-01-13T09:03:29Z</time>
      </trkpt>
      <trkpt lat="43.42805" lon="6.5238">
        <ele>29.4</ele>
        <time>2019-01-13T09:03:35Z</time>
      </trkpt>
      <trkpt lat="43.42801" lon="6.52391">
        <ele>29.6</ele>
        <time>2019-01-13T09:03:41Z</time>
      </trkpt>
      <trkpt lat="43.42799" lon="6.52404">
        <ele>30</ele>
        <time>2019-01-13T09:03:48Z</time>
      </trkpt>
      <trkpt lat="43.42795" lon="6.52416">
        <ele>30.2</ele>
        <time>2019-01-13T09:03:55Z</time>
      </trkpt>
      <trkpt lat="43.42788" lon="6.52425">
        <ele>30</ele>
        <time>2019-01-13T09:04:03Z</time>
      </trkpt>
      <trkpt lat="43.42779" lon="6.52427">
        <ele>29.9</ele>
        <time>2019-01-13T09:04:12Z</time>
      </trkpt>
      <trkpt lat="43.42769" lon="6.52427">
        <ele>30.3</ele>
        <time>2019-01-13T09:04:20Z</time>
      </trkpt>
      <trkpt lat="43.4276" lon="6.52426">
        <ele>30.7</ele>
        <time>2019-01-13T09:04:28Z</time>
      </trkpt>
      <trkpt lat="43.42751" lon="6.52431">
        <ele>31.1</ele>
        <time>2019-01-13T09:04:36Z</time>
      </trkpt>
      <trkpt lat="43.42741" lon="6.52432">
        <ele>31.2</ele>
        <time>2019-01-13T09:04:43Z</time>
      </trkpt>
      <trkpt lat="43.42732" lon="6.52431">
        <ele>31.4</ele>
        <time>2019-01-13T09:04:51Z</time>
      </trkpt>
      <trkpt lat="43.42723" lon="6.52428">
        <ele>31.7</ele>
        <time>2019-01-13T09:04:58Z</time>
      </trkpt>
      <trkpt lat="43.42712" lon="6.52428">
        <ele>31.8</ele>
        <time>2019-01-13T09:05:06Z</time>
      </trkpt>
      <trkpt lat="43.42703" lon="6.5243">
        <ele>31.9</ele>
        <time>2019-01-13T09:05:13Z</time>
      </trkpt>
      <trkpt lat="43.42696" lon="6.52438">
        <ele>32.2</ele>
        <time>2019-01-13T09:05:23Z</time>
      </trkpt>
      <trkpt lat="43.42688" lon="6.52446">
        <ele>32.5</ele>
        <time>2019-01-13T09:05:32Z</time>
      </trkpt>
      <trkpt lat="43.42682" lon="6.52457">
        <ele>32</ele>
        <time>2019-01-13T09:05:40Z</time>
      </trkpt>
      <trkpt lat="43.42677" lon="6.52469">
        <ele>32.7</ele>
        <time>2019-01-13T09:05:50Z</time>
      </trkpt>
      <trkpt lat="43.42676" lon="6.52481">
        <ele>33.2</ele>
        <time>2019-01-13T09:05:57Z</time>
      </trkpt>
      <trkpt lat="43.42674" lon="6.52494">
        <ele>33.5</ele>
        <time>2019-01-13T09:06:05Z</time>
      </trkpt>
      <trkpt lat="43.42673" lon="6.52508">
        <ele>34.2</ele>
        <time>2019-01-13T09:06:14Z</time>
      </trkpt>
      <trkpt lat="43.42666" lon="6.52518">
        <ele>34.8</ele>
        <time>2019-01-13T09:06:23Z</time>
      </trkpt>
      <trkpt lat="43.42659" lon="6.52527">
        <ele>35.2</ele>
        <time>2019-01-13T09:06:34Z</time>
      </trkpt>
      <trkpt lat="43.42652" lon="6.52535">
        <ele>36.1</ele>
        <time>2019-01-13T09:06:43Z</time>
      </trkpt>
      <trkpt lat="43.42642" lon="6.52541">
        <ele>36.4</ele>
        <time>2019-01-13T09:06:51Z</time>
      </trkpt>
      <trkpt lat="43.42634" lon="6.52545">
        <ele>36.9</ele>
        <time>2019-01-13T09:07:00Z</time>
      </trkpt>
      <trkpt lat="43.42625" lon="6.52549">
        <ele>37.4</ele>
        <time>2019-01-13T09:07:06Z</time>
      </trkpt>
      <trkpt lat="43.42616" lon="6.52551">
        <ele>37.9</ele>
        <time>2019-01-13T09:07:13Z</time>
      </trkpt>
      <trkpt lat="43.42607" lon="6.52553">
        <ele>37.9</ele>
        <time>2019-01-13T09:07:21Z</time>
      </trkpt>
      <trkpt lat="43.42597" lon="6.52554">
        <ele>38</ele>
        <time>2019-01-13T09:07:29Z</time>
      </trkpt>
      <trkpt lat="43.42588" lon="6.52548">
        <ele>38.3</ele>
        <time>2019-01-13T09:07:36Z</time>
      </trkpt>
      <trkpt lat="43.42578" lon="6.52544">
        <ele>38.2</ele>
        <time>2019-01-13T09:07:44Z</time>
      </trkpt>
      <trkpt lat="43.42569" lon="6.52541">
        <ele>38.3</ele>
        <time>2019-01-13T09:07:51Z</time>
      </trkpt>
      <trkpt lat="43.42559" lon="6.52537">
        <ele>38.1</ele>
        <time>2019-01-13T09:08:01Z</time>
      </trkpt>
      <trkpt lat="43.42551" lon="6.52533">
        <ele>38.8</ele>
        <time>2019-01-13T09:08:09Z</time>
      </trkpt>
      <trkpt lat="43.42542" lon="6.5253">
        <ele>38.8</ele>
        <time>2019-01-13T09:08:16Z</time>
      </trkpt>
      <trkpt lat="43.42534" lon="6.52526">
        <ele>39.2</ele>
        <time>2019-01-13T09:08:25Z</time>
      </trkpt>
      <trkpt lat="43.42524" lon="6.52524">
        <ele>39.6</ele>
        <time>2019-01-13T09:08:32Z</time>
      </trkpt>
      <trkpt lat="43.42514" lon="6.52526">
        <ele>40</ele>
        <time>2019-01-13T09:08:39Z</time>
      </trkpt>
      <trkpt lat="43.42505" lon="6.5253">
        <ele>39.8</ele>
        <time>2019-01-13T09:08:46Z</time>
      </trkpt>
      <trkpt lat="43.42497" lon="6.52536">
        <ele>39.9</ele>
        <time>2019-01-13T09:08:54Z</time>
      </trkpt>
      <trkpt lat="43.42489" lon="6.52544">
        <ele>40.1</ele>
        <time>2019-01-13T09:09:03Z</time>
      </trkpt>
      <trkpt lat="43.4248" lon="6.5255">
        <ele>40.1</ele>
        <time>2019-01-13T09:09:11Z</time>
      </trkpt>
      <trkpt lat="43.42472" lon="6.52555">
        <ele>40.5</ele>
        <time>2019-01-13T09:09:21Z</time>
      </trkpt>
      <trkpt lat="43.42462" lon="6.52562">
        <ele>40.6</ele>
        <time>2019-01-13T09:09:30Z</time>
      </trkpt>
      <trkpt lat="43.42453" lon="6.52566">
        <ele>40.9</ele>
        <time>2019-01-13T09:09:38Z</time>
      </trkpt>
      <trkpt lat="43.42444" lon="6.52567">
        <ele>41.4</ele>
        <time>2019-01-13T09:09:46Z</time>
      </trkpt>
      <trkpt lat="43.42435" lon="6.52565">
        <ele>42.2</ele>
        <time>2019-01-13T09:09:56Z</time>
      </trkpt>
      <trkpt lat="43.42425" lon="6.52567">
        <ele>43.2</ele>
        <time>2019-01-13T09:10:08Z</time>
      </trkpt>
      <trkpt lat="43.42418" lon="6.52573">
        <ele>43</ele>
        <time>2019-01-13T09:14:19Z</time>
      </trkpt>
      <trkpt lat="43.42408" lon="6.52573">
        <ele>43.1</ele>
        <time>2019-01-13T09:17:37Z</time>
      </trkpt>
      <trkpt lat="43.42398" lon="6.52573">
        <ele>43.1</ele>
        <time>2019-01-13T09:17:43Z</time>
      </trkpt>
      <trkpt lat="43.42389" lon="6.52568">
        <ele>42.8</ele>
        <time>2019-01-13T09:17:52Z</time>
      </trkpt>
      <trkpt lat="43.4238" lon="6.52568">
        <ele>42.7</ele>
        <time>2019-01-13T09:17:59Z</time>
      </trkpt>
      <trkpt lat="43.42371" lon="6.52564">
        <ele>42.6</ele>
        <time>2019-01-13T09:18:05Z</time>
      </trkpt>
      <trkpt lat="43.42362" lon="6.5256">
        <ele>42.2</ele>
        <time>2019-01-13T09:18:13Z</time>
      </trkpt>
      <trkpt lat="43.42353" lon="6.52554">
        <ele>42</ele>
        <time>2019-01-13T09:18:28Z</time>
      </trkpt>
      <trkpt lat="43.42344" lon="6.52548">
        <ele>42.9</ele>
        <time>2019-01-13T09:18:37Z</time>
      </trkpt>
      <trkpt lat="43.42336" lon="6.52542">
        <ele>43.5</ele>
        <time>2019-01-13T09:18:46Z</time>
      </trkpt>
      <trkpt lat="43.42326" lon="6.52536">
        <ele>43.7</ele>
        <time>2019-01-13T09:18:53Z</time>
      </trkpt>
      <trkpt lat="43.42317" lon="6.52528">
        <ele>43.9</ele>
        <time>2019-01-13T09:19:03Z</time>
      </trkpt>
      <trkpt lat="43.42309" lon="6.52521">
        <ele>43.8</ele>
        <time>2019-01-13T09:19:09Z</time>
      </trkpt>
      <trkpt lat="43.42301" lon="6.52513">
        <ele>44.1</ele>
        <time>2019-01-13T09:19:17Z</time>
      </trkpt>
      <trkpt lat="43.42294" lon="6.52505">
        <ele>44.5</ele>
        <time>2019-01-13T09:19:25Z</time>
      </trkpt>
      <trkpt lat="43.42287" lon="6.52496">
        <ele>45.1</ele>
        <time>2019-01-13T09:19:34Z</time>
      </trkpt>
      <trkpt lat="43.4228" lon="6.52488">
        <ele>45.2</ele>
        <time>2019-01-13T09:19:42Z</time>
      </trkpt>
      <trkpt lat="43.42272" lon="6.5248">
        <ele>45.2</ele>
        <time>2019-01-13T09:19:50Z</time>
      </trkpt>
      <trkpt lat="43.42263" lon="6.52478">
        <ele>45</ele>
        <time>2019-01-13T09:19:55Z</time>
      </trkpt>
      <trkpt lat="43.42253" lon="6.52473">
        <ele>44.6</ele>
        <time>2019-01-13T09:20:03Z</time>
      </trkpt>
      <trkpt lat="43.42244" lon="6.52469">
        <ele>44.6</ele>
        <time>2019-01-13T09:20:09Z</time>
      </trkpt>
      <trkpt lat="43.42236" lon="6.52464">
        <ele>44.2</ele>
        <time>2019-01-13T09:20:21Z</time>
      </trkpt>
      <trkpt lat="43.42228" lon="6.52457">
        <ele>44.3</ele>
        <time>2019-01-13T09:20:32Z</time>
      </trkpt>
      <trkpt lat="43.42219" lon="6.52452">
        <ele>45</ele>
        <time>2019-01-13T09:20:42Z</time>
      </trkpt>
      <trkpt lat="43.42209" lon="6.52452">
        <ele>46.1</ele>
        <time>2019-01-13T09:20:49Z</time>
      </trkpt>
      <trkpt lat="43.422" lon="6.52452">
        <ele>47.2</ele>
        <time>2019-01-13T09:20:57Z</time>
      </trkpt>
      <trkpt lat="43.4219" lon="6.52455">
        <ele>48</ele>
        <time>2019-01-13T09:21:05Z</time>
      </trkpt>
      <trkpt lat="43.4218" lon="6.52459">
        <ele>48.5</ele>
        <time>2019-01-13T09:21:13Z</time>
      </trkpt>
      <trkpt lat="43.42172" lon="6.52464">
        <ele>49</ele>
        <time>2019-01-13T09:21:20Z</time>
      </trkpt>
      <trkpt lat="43.42163" lon="6.52466">
        <ele>49.6</ele>
        <time>2019-01-13T09:21:28Z</time>
      </trkpt>
      <trkpt lat="43.42154" lon="6.52472">
        <ele>49.6</ele>
        <time>2019-01-13T09:21:36Z</time>
      </trkpt>
      <trkpt lat="43.42145" lon="6.52476">
        <ele>50</ele>
        <time>2019-01-13T09:21:43Z</time>
      </trkpt>
      <trkpt lat="43.42136" lon="6.52478">
        <ele>50.4</ele>
        <time>2019-01-13T09:21:51Z</time>
      </trkpt>
      <trkpt lat="43.42127" lon="6.52485">
        <ele>51</ele>
        <time>2019-01-13T09:22:01Z</time>
      </trkpt>
      <trkpt lat="43.42118" lon="6.52489">
        <ele>51.6</ele>
        <time>2019-01-13T09:22:09Z</time>
      </trkpt>
      <trkpt lat="43.42108" lon="6.52492">
        <ele>52.3</ele>
        <time>2019-01-13T09:22:19Z</time>
      </trkpt>
      <trkpt lat="43.42099" lon="6.52493">
        <ele>53.1</ele>
        <time>2019-01-13T09:22:29Z</time>
      </trkpt>
      <trkpt lat="43.42089" lon="6.52493">
        <ele>53.7</ele>
        <time>2019-01-13T09:22:41Z</time>
      </trkpt>
      <trkpt lat="43.42079" lon="6.52496">
        <ele>54.1</ele>
        <time>2019-01-13T09:22:49Z</time>
      </trkpt>
      <trkpt lat="43.42069" lon="6.52497">
        <ele>54.8</ele>
        <time>2019-01-13T09:22:56Z</time>
      </trkpt>
      <trkpt lat="43.4206" lon="6.52499">
        <ele>55</ele>
        <time>2019-01-13T09:23:03Z</time>
      </trkpt>
      <trkpt lat="43.42049" lon="6.52499">
        <ele>55.4</ele>
        <time>2019-01-13T09:23:13Z</time>
      </trkpt>
      <trkpt lat="43.4204" lon="6.52503">
        <ele>55.5</ele>
        <time>2019-01-13T09:23:20Z</time>
      </trkpt>
      <trkpt lat="43.42031" lon="6.52508">
        <ele>55.6</ele>
        <time>2019-01-13T09:23:26Z</time>
      </trkpt>
      <trkpt lat="43.42022" lon="6.52512">
        <ele>55.6</ele>
        <time>2019-01-13T09:23:32Z</time>
      </trkpt>
      <trkpt lat="43.42013" lon="6.52516">
        <ele>55.7</ele>
        <time>2019-01-13T09:23:39Z</time>
      </trkpt>
      <trkpt lat="43.42004" lon="6.52521">
        <ele>55.9</ele>
        <time>2019-01-13T09:23:47Z</time>
      </trkpt>
      <trkpt lat="43.41994" lon="6.52527">
        <ele>56</ele>
        <time>2019-01-13T09:23:54Z</time>
      </trkpt>
      <trkpt lat="43.41985" lon="6.52534">
        <ele>56.4</ele>
        <time>2019-01-13T09:24:03Z</time>
      </trkpt>
      <trkpt lat="43.41977" lon="6.52541">
        <ele>56.9</ele>
        <time>2019-01-13T09:24:10Z</time>
      </trkpt>
      <trkpt lat="43.4197" lon="6.5255">
        <ele>57.7</ele>
        <time>2019-01-13T09:24:18Z</time>
      </trkpt>
      <trkpt lat="43.41961" lon="6.52556">
        <ele>58.4</ele>
        <time>2019-01-13T09:24:26Z</time>
      </trkpt>
      <trkpt lat="43.41952" lon="6.52561">
        <ele>59.2</ele>
        <time>2019-01-13T09:24:35Z</time>
      </trkpt>
      <trkpt lat="43.41945" lon="6.52571">
        <ele>59.8</ele>
        <time>2019-01-13T09:24:42Z</time>
      </trkpt>
      <trkpt lat="43.41939" lon="6.5258">
        <ele>60.1</ele>
        <time>2019-01-13T09:24:50Z</time>
      </trkpt>
      <trkpt lat="43.4193" lon="6.52587">
        <ele>60.9</ele>
        <time>2019-01-13T09:24:58Z</time>
      </trkpt>
      <trkpt lat="43.41921" lon="6.52593">
        <ele>62</ele>
        <time>2019-01-13T09:25:07Z</time>
      </trkpt>
      <trkpt lat="43.41914" lon="6.52603">
        <ele>62.9</ele>
        <time>2019-01-13T09:25:15Z</time>
      </trkpt>
      <trkpt lat="43.41906" lon="6.5261">
        <ele>64.3</ele>
        <time>2019-01-13T09:25:24Z</time>
      </trkpt>
      <trkpt lat="43.41897" lon="6.52617">
        <ele>64.8</ele>
        <time>2019-01-13T09:25:33Z</time>
      </trkpt>
      <trkpt lat="43.41888" lon="6.52612">
        <ele>65.3</ele>
        <time>2019-01-13T09:25:40Z</time>
      </trkpt>
      <trkpt lat="43.41879" lon="6.52608">
        <ele>66.4</ele>
        <time>2019-01-13T09:25:50Z</time>
      </trkpt>
      <trkpt lat="43.4187" lon="6.52607">
        <ele>67.1</ele>
        <time>2019-01-13T09:25:58Z</time>
      </trkpt>
      <trkpt lat="43.41861" lon="6.52607">
        <ele>68</ele>
        <time>2019-01-13T09:26:06Z</time>
      </trkpt>
      <trkpt lat="43.41851" lon="6.52608">
        <ele>69</ele>
        <time>2019-01-13T09:26:14Z</time>
      </trkpt>
      <trkpt lat="43.41842" lon="6.52611">
        <ele>69.8</ele>
        <time>2019-01-13T09:26:21Z</time>
      </trkpt>
      <trkpt lat="43.41832" lon="6.52613">
        <ele>70.3</ele>
        <time>2019-01-13T09:26:30Z</time>
      </trkpt>
      <trkpt lat="43.41823" lon="6.52612">
        <ele>71.3</ele>
        <time>2019-01-13T09:26:40Z</time>
      </trkpt>
      <trkpt lat="43.41815" lon="6.52604">
        <ele>72.5</ele>
        <time>2019-01-13T09:26:49Z</time>
      </trkpt>
      <trkpt lat="43.41806" lon="6.52599">
        <ele>74.3</ele>
        <time>2019-01-13T09:26:58Z</time>
      </trkpt>
      <trkpt lat="43.41796" lon="6.52597">
        <ele>76</ele>
        <time>2019-01-13T09:27:07Z</time>
      </trkpt>
      <trkpt lat="43.41787" lon="6.52598">
        <ele>77.6</ele>
        <time>2019-01-13T09:27:16Z</time>
      </trkpt>
      <trkpt lat="43.41777" lon="6.52597">
        <ele>79.4</ele>
        <time>2019-01-13T09:27:31Z</time>
      </trkpt>
      <trkpt lat="43.41767" lon="6.52594">
        <ele>80.4</ele>
        <time>2019-01-13T09:27:39Z</time>
      </trkpt>
      <trkpt lat="43.41758" lon="6.5259">
        <ele>82</ele>
        <time>2019-01-13T09:27:49Z</time>
      </trkpt>
      <trkpt lat="43.41749" lon="6.52585">
        <ele>83.3</ele>
        <time>2019-01-13T09:27:58Z</time>
      </trkpt>
      <trkpt lat="43.41741" lon="6.5258">
        <ele>83.9</ele>
        <time>2019-01-13T09:28:06Z</time>
      </trkpt>
      <trkpt lat="43.41732" lon="6.52575">
        <ele>84.6</ele>
        <time>2019-01-13T09:28:14Z</time>
      </trkpt>
      <trkpt lat="43.41723" lon="6.5257">
        <ele>85.2</ele>
        <time>2019-01-13T09:28:22Z</time>
      </trkpt>
      <trkpt lat="43.41714" lon="6.52565">
        <ele>85.7</ele>
        <time>2019-01-13T09:28:33Z</time>
      </trkpt>
      <trkpt lat="43.41705" lon="6.52566">
        <ele>86.2</ele>
        <time>2019-01-13T09:28:40Z</time>
      </trkpt>
      <trkpt lat="43.41696" lon="6.5257">
        <ele>86.6</ele>
        <time>2019-01-13T09:28:48Z</time>
      </trkpt>
      <trkpt lat="43.41687" lon="6.52577">
        <ele>87.2</ele>
        <time>2019-01-13T09:28:55Z</time>
      </trkpt>
      <trkpt lat="43.41679" lon="6.52582">
        <ele>87.6</ele>
        <time>2019-01-13T09:29:03Z</time>
      </trkpt>
      <trkpt lat="43.41671" lon="6.52591">
        <ele>87.7</ele>
        <time>2019-01-13T09:29:11Z</time>
      </trkpt>
      <trkpt lat="43.41665" lon="6.52601">
        <ele>87.7</ele>
        <time>2019-01-13T09:29:18Z</time>
      </trkpt>
      <trkpt lat="43.41658" lon="6.52612">
        <ele>87.6</ele>
        <time>2019-01-13T09:29:26Z</time>
      </trkpt>
      <trkpt lat="43.41651" lon="6.52622">
        <ele>87.7</ele>
        <time>2019-01-13T09:29:35Z</time>
      </trkpt>
      <trkpt lat="43.41643" lon="6.5263">
        <ele>87.8</ele>
        <time>2019-01-13T09:29:43Z</time>
      </trkpt>
      <trkpt lat="43.41639" lon="6.52641">
        <ele>88.5</ele>
        <time>2019-01-13T09:29:51Z</time>
      </trkpt>
      <trkpt lat="43.41635" lon="6.52653">
        <ele>88.5</ele>
        <time>2019-01-13T09:29:58Z</time>
      </trkpt>
      <trkpt lat="43.41626" lon="6.52659">
        <ele>88.9</ele>
        <time>2019-01-13T09:30:06Z</time>
      </trkpt>
      <trkpt lat="43.41617" lon="6.52659">
        <ele>88.5</ele>
        <time>2019-01-13T09:30:14Z</time>
      </trkpt>
      <trkpt lat="43.41607" lon="6.52657">
        <ele>88.2</ele>
        <time>2019-01-13T09:30:22Z</time>
      </trkpt>
      <trkpt lat="43.41598" lon="6.52654">
        <ele>87.4</ele>
        <time>2019-01-13T09:30:29Z</time>
      </trkpt>
      <trkpt lat="43.41588" lon="6.52651">
        <ele>86.5</ele>
        <time>2019-01-13T09:30:38Z</time>
      </trkpt>
      <trkpt lat="43.41579" lon="6.52647">
        <ele>85.9</ele>
        <time>2019-01-13T09:30:45Z</time>
      </trkpt>
      <trkpt lat="43.4157" lon="6.52643">
        <ele>85.6</ele>
        <time>2019-01-13T09:30:52Z</time>
      </trkpt>
      <trkpt lat="43.41561" lon="6.52637">
        <ele>85.3</ele>
        <time>2019-01-13T09:30:59Z</time>
      </trkpt>
      <trkpt lat="43.41553" lon="6.52631">
        <ele>84.9</ele>
        <time>2019-01-13T09:31:06Z</time>
      </trkpt>
      <trkpt lat="43.41544" lon="6.52625">
        <ele>84.8</ele>
        <time>2019-01-13T09:31:15Z</time>
      </trkpt>
      <trkpt lat="43.41534" lon="6.52622">
        <ele>84.5</ele>
        <time>2019-01-13T09:31:23Z</time>
      </trkpt>
      <trkpt lat="43.41524" lon="6.52621">
        <ele>83.9</ele>
        <time>2019-01-13T09:31:31Z</time>
      </trkpt>
      <trkpt lat="43.41515" lon="6.52623">
        <ele>83.2</ele>
        <time>2019-01-13T09:31:39Z</time>
      </trkpt>
      <trkpt lat="43.41506" lon="6.52626">
        <ele>82.7</ele>
        <time>2019-01-13T09:31:48Z</time>
      </trkpt>
      <trkpt lat="43.41496" lon="6.52628">
        <ele>82.4</ele>
        <time>2019-01-13T09:31:56Z</time>
      </trkpt>
      <trkpt lat="43.41487" lon="6.52631">
        <ele>81.9</ele>
        <time>2019-01-13T09:32:04Z</time>
      </trkpt>
      <trkpt lat="43.41478" lon="6.52635">
        <ele>81.3</ele>
        <time>2019-01-13T09:32:11Z</time>
      </trkpt>
      <trkpt lat="43.41472" lon="6.52645">
        <ele>80.7</ele>
        <time>2019-01-13T09:32:19Z</time>
      </trkpt>
      <trkpt lat="43.41463" lon="6.52651">
        <ele>80.3</ele>
        <time>2019-01-13T09:32:27Z</time>
      </trkpt>
      <trkpt lat="43.41455" lon="6.52658">
        <ele>80</ele>
        <time>2019-01-13T09:32:35Z</time>
      </trkpt>
      <trkpt lat="43.41446" lon="6.52662">
        <ele>79.8</ele>
        <time>2019-01-13T09:32:43Z</time>
      </trkpt>
      <trkpt lat="43.41436" lon="6.5266">
        <ele>80</ele>
        <time>2019-01-13T09:32:51Z</time>
      </trkpt>
      <trkpt lat="43.41427" lon="6.52656">
        <ele>80.2</ele>
        <time>2019-01-13T09:33:01Z</time>
      </trkpt>
      <trkpt lat="43.41417" lon="6.52654">
        <ele>80.6</ele>
        <time>2019-01-13T09:33:09Z</time>
      </trkpt>
      <trkpt lat="43.41408" lon="6.5265">
        <ele>80.9</ele>
        <time>2019-01-13T09:33:16Z</time>
      </trkpt>
      <trkpt lat="43.41399" lon="6.52649">
        <ele>80.8</ele>
        <time>2019-01-13T09:33:24Z</time>
      </trkpt>
      <trkpt lat="43.4139" lon="6.52645">
        <ele>81</ele>
        <time>2019-01-13T09:33:31Z</time>
      </trkpt>
      <trkpt lat="43.41382" lon="6.52641">
        <ele>81</ele>
        <time>2019-01-13T09:33:37Z</time>
      </trkpt>
      <trkpt lat="43.41371" lon="6.52638">
        <ele>81.3</ele>
        <time>2019-01-13T09:33:45Z</time>
      </trkpt>
      <trkpt lat="43.41363" lon="6.52634">
        <ele>81.6</ele>
        <time>2019-01-13T09:33:53Z</time>
      </trkpt>
      <trkpt lat="43.41354" lon="6.52629">
        <ele>82.2</ele>
        <time>2019-01-13T09:34:29Z</time>
      </trkpt>
      <trkpt lat="43.41344" lon="6.52625">
        <ele>82.3</ele>
        <time>2019-01-13T09:34:40Z</time>
      </trkpt>
      <trkpt lat="43.41334" lon="6.52623">
        <ele>82.4</ele>
        <time>2019-01-13T09:34:48Z</time>
      </trkpt>
      <trkpt lat="43.41326" lon="6.5262">
        <ele>82.4</ele>
        <time>2019-01-13T09:34:57Z</time>
      </trkpt>
      <trkpt lat="43.41315" lon="6.5262">
        <ele>82.7</ele>
        <time>2019-01-13T09:35:06Z</time>
      </trkpt>
      <trkpt lat="43.41305" lon="6.52621">
        <ele>82.7</ele>
        <time>2019-01-13T09:35:14Z</time>
      </trkpt>
      <trkpt lat="43.41297" lon="6.52628">
        <ele>82.8</ele>
        <time>2019-01-13T09:35:21Z</time>
      </trkpt>
      <trkpt lat="43.41288" lon="6.52632">
        <ele>82.7</ele>
        <time>2019-01-13T09:35:30Z</time>
      </trkpt>
      <trkpt lat="43.41278" lon="6.5263">
        <ele>82.8</ele>
        <time>2019-01-13T09:35:39Z</time>
      </trkpt>
      <trkpt lat="43.41269" lon="6.52632">
        <ele>83.2</ele>
        <time>2019-01-13T09:35:47Z</time>
      </trkpt>
      <trkpt lat="43.4126" lon="6.52633">
        <ele>83.5</ele>
        <time>2019-01-13T09:35:57Z</time>
      </trkpt>
      <trkpt lat="43.41251" lon="6.52629">
        <ele>83.6</ele>
        <time>2019-01-13T09:36:04Z</time>
      </trkpt>
      <trkpt lat="43.41241" lon="6.52628">
        <ele>83.7</ele>
        <time>2019-01-13T09:36:12Z</time>
      </trkpt>
      <trkpt lat="43.41231" lon="6.52627">
        <ele>84</ele>
        <time>2019-01-13T09:36:20Z</time>
      </trkpt>
      <trkpt lat="43.41222" lon="6.52628">
        <ele>84.4</ele>
        <time>2019-01-13T09:36:27Z</time>
      </trkpt>
      <trkpt lat="43.41212" lon="6.52628">
        <ele>84.9</ele>
        <time>2019-01-13T09:36:35Z</time>
      </trkpt>
      <trkpt lat="43.41202" lon="6.52628">
        <ele>85.4</ele>
        <time>2019-01-13T09:36:43Z</time>
      </trkpt>
      <trkpt lat="43.41192" lon="6.5263">
        <ele>85.6</ele>
        <time>2019-01-13T09:36:51Z</time>
      </trkpt>
      <trkpt lat="43.41182" lon="6.52631">
        <ele>85.4</ele>
        <time>2019-01-13T09:36:58Z</time>
      </trkpt>
      <trkpt lat="43.41173" lon="6.52631">
        <ele>84.9</ele>
        <time>2019-01-13T09:37:06Z</time>
      </trkpt>
      <trkpt lat="43.41163" lon="6.52631">
        <ele>84.2</ele>
        <time>2019-01-13T09:37:13Z</time>
      </trkpt>
      <trkpt lat="43.41154" lon="6.52633">
        <ele>83.8</ele>
        <time>2019-01-13T09:37:25Z</time>
      </trkpt>
      <trkpt lat="43.41146" lon="6.52641">
        <ele>84.7</ele>
        <time>2019-01-13T09:37:33Z</time>
      </trkpt>
      <trkpt lat="43.41137" lon="6.52647">
        <ele>86</ele>
        <time>2019-01-13T09:37:42Z</time>
      </trkpt>
      <trkpt lat="43.41128" lon="6.52651">
        <ele>87.5</ele>
        <time>2019-01-13T09:37:50Z</time>
      </trkpt>
      <trkpt lat="43.41119" lon="6.52654">
        <ele>88.2</ele>
        <time>2019-01-13T09:37:58Z</time>
      </trkpt>
      <trkpt lat="43.4111" lon="6.52659">
        <ele>89.1</ele>
        <time>2019-01-13T09:38:06Z</time>
      </trkpt>
      <trkpt lat="43.41101" lon="6.52665">
        <ele>89.6</ele>
        <time>2019-01-13T09:38:13Z</time>
      </trkpt>
      <trkpt lat="43.41092" lon="6.5267">
        <ele>89.7</ele>
        <time>2019-01-13T09:38:20Z</time>
      </trkpt>
      <trkpt lat="43.41083" lon="6.52674">
        <ele>90.1</ele>
        <time>2019-01-13T09:38:29Z</time>
      </trkpt>
      <trkpt lat="43.41074" lon="6.5268">
        <ele>90.4</ele>
        <time>2019-01-13T09:38:38Z</time>
      </trkpt>
      <trkpt lat="43.41065" lon="6.52684">
        <ele>90.4</ele>
        <time>2019-01-13T09:38:46Z</time>
      </trkpt>
      <trkpt lat="43.41056" lon="6.52686">
        <ele>90.1</ele>
        <time>2019-01-13T09:38:53Z</time>
      </trkpt>
      <trkpt lat="43.41046" lon="6.52683">
        <ele>89.5</ele>
        <time>2019-01-13T09:39:02Z</time>
      </trkpt>
      <trkpt lat="43.41037" lon="6.52683">
        <ele>88.9</ele>
        <time>2019-01-13T09:39:11Z</time>
      </trkpt>
      <trkpt lat="43.41028" lon="6.52684">
        <ele>88.8</ele>
        <time>2019-01-13T09:39:21Z</time>
      </trkpt>
      <trkpt lat="43.41018" lon="6.52687">
        <ele>90</ele>
        <time>2019-01-13T09:39:30Z</time>
      </trkpt>
      <trkpt lat="43.41009" lon="6.52691">
        <ele>91</ele>
        <time>2019-01-13T09:39:39Z</time>
      </trkpt>
      <trkpt lat="43.41" lon="6.52693">
        <ele>91.7</ele>
        <time>2019-01-13T09:39:47Z</time>
      </trkpt>
      <trkpt lat="43.40991" lon="6.52698">
        <ele>92.4</ele>
        <time>2019-01-13T09:39:56Z</time>
      </trkpt>
      <trkpt lat="43.40983" lon="6.52703">
        <ele>92.6</ele>
        <time>2019-01-13T09:40:33Z</time>
      </trkpt>
      <trkpt lat="43.40975" lon="6.5271">
        <ele>92.9</ele>
        <time>2019-01-13T09:42:22Z</time>
      </trkpt>
      <trkpt lat="43.40965" lon="6.52708">
        <ele>93.5</ele>
        <time>2019-01-13T09:43:36Z</time>
      </trkpt>
      <trkpt lat="43.40955" lon="6.52709">
        <ele>93.7</ele>
        <time>2019-01-13T09:43:43Z</time>
      </trkpt>
      <trkpt lat="43.40947" lon="6.52712">
        <ele>94.3</ele>
        <time>2019-01-13T09:43:50Z</time>
      </trkpt>
      <trkpt lat="43.40937" lon="6.52716">
        <ele>94.7</ele>
        <time>2019-01-13T09:43:57Z</time>
      </trkpt>
      <trkpt lat="43.40927" lon="6.52716">
        <ele>95</ele>
        <time>2019-01-13T09:44:04Z</time>
      </trkpt>
      <trkpt lat="43.40917" lon="6.52718">
        <ele>95.9</ele>
        <time>2019-01-13T09:44:12Z</time>
      </trkpt>
      <trkpt lat="43.40908" lon="6.52723">
        <ele>96.7</ele>
        <time>2019-01-13T09:44:20Z</time>
      </trkpt>
      <trkpt lat="43.40899" lon="6.52728">
        <ele>97.2</ele>
        <time>2019-01-13T09:44:27Z</time>
      </trkpt>
      <trkpt lat="43.40891" lon="6.52735">
        <ele>97.9</ele>
        <time>2019-01-13T09:44:34Z</time>
      </trkpt>
      <trkpt lat="43.40887" lon="6.52747">
        <ele>98.4</ele>
        <time>2019-01-13T09:44:40Z</time>
      </trkpt>
      <trkpt lat="43.40885" lon="6.52759">
        <ele>98.2</ele>
        <time>2019-01-13T09:44:47Z</time>
      </trkpt>
      <trkpt lat="43.40884" lon="6.52773">
        <ele>98</ele>
        <time>2019-01-13T09:44:54Z</time>
      </trkpt>
      <trkpt lat="43.40884" lon="6.52788">
        <ele>98.2</ele>
        <time>2019-01-13T09:45:02Z</time>
      </trkpt>
      <trkpt lat="43.40883" lon="6.52801">
        <ele>98.8</ele>
        <time>2019-01-13T09:45:10Z</time>
      </trkpt>
      <trkpt lat="43.40883" lon="6.52813">
        <ele>100.7</ele>
        <time>2019-01-13T09:45:19Z</time>
      </trkpt>
      <trkpt lat="43.40885" lon="6.52827">
        <ele>102.5</ele>
        <time>2019-01-13T09:45:27Z</time>
      </trkpt>
      <trkpt lat="43.40885" lon="6.52839">
        <ele>104.6</ele>
        <time>2019-01-13T09:45:36Z</time>
      </trkpt>
      <trkpt lat="43.40885" lon="6.52852">
        <ele>106.2</ele>
        <time>2019-01-13T09:45:44Z</time>
      </trkpt>
      <trkpt lat="43.40882" lon="6.52865">
        <ele>107.4</ele>
        <time>2019-01-13T09:45:51Z</time>
      </trkpt>
      <trkpt lat="43.40873" lon="6.52867">
        <ele>108.5</ele>
        <time>2019-01-13T09:46:00Z</time>
      </trkpt>
      <trkpt lat="43.40868" lon="6.52857">
        <ele>110.7</ele>
        <time>2019-01-13T09:46:11Z</time>
      </trkpt>
      <trkpt lat="43.40866" lon="6.52845">
        <ele>113.5</ele>
        <time>2019-01-13T09:46:21Z</time>
      </trkpt>
      <trkpt lat="43.40862" lon="6.52833">
        <ele>115.5</ele>
        <time>2019-01-13T09:46:30Z</time>
      </trkpt>
      <trkpt lat="43.40854" lon="6.52825">
        <ele>118</ele>
        <time>2019-01-13T09:46:39Z</time>
      </trkpt>
      <trkpt lat="43.40845" lon="6.52824">
        <ele>119.3</ele>
        <time>2019-01-13T09:46:47Z</time>
      </trkpt>
      <trkpt lat="43.40836" lon="6.52828">
        <ele>120.5</ele>
        <time>2019-01-13T09:46:54Z</time>
      </trkpt>
      <trkpt lat="43.40828" lon="6.52833">
        <ele>124.1</ele>
        <time>2019-01-13T09:47:05Z</time>
      </trkpt>
      <trkpt lat="43.40819" lon="6.52837">
        <ele>127.6</ele>
        <time>2019-01-13T09:47:19Z</time>
      </trkpt>
      <trkpt lat="43.40809" lon="6.52838">
        <ele>131.4</ele>
        <time>2019-01-13T09:47:33Z</time>
      </trkpt>
      <trkpt lat="43.40801" lon="6.52844">
        <ele>133.2</ele>
        <time>2019-01-13T09:47:42Z</time>
      </trkpt>
      <trkpt lat="43.40795" lon="6.52854">
        <ele>135.2</ele>
        <time>2019-01-13T09:47:52Z</time>
      </trkpt>
      <trkpt lat="43.40792" lon="6.52867">
        <ele>138.5</ele>
        <time>2019-01-13T09:48:06Z</time>
      </trkpt>
      <trkpt lat="43.40789" lon="6.52879">
        <ele>142.4</ele>
        <time>2019-01-13T09:48:22Z</time>
      </trkpt>
      <trkpt lat="43.40784" lon="6.5289">
        <ele>145.3</ele>
        <time>2019-01-13T09:48:34Z</time>
      </trkpt>
      <trkpt lat="43.40781" lon="6.52902">
        <ele>147.8</ele>
        <time>2019-01-13T09:48:46Z</time>
      </trkpt>
      <trkpt lat="43.40775" lon="6.52912">
        <ele>150</ele>
        <time>2019-01-13T09:48:58Z</time>
      </trkpt>
      <trkpt lat="43.40768" lon="6.5292">
        <ele>152.6</ele>
        <time>2019-01-13T09:49:09Z</time>
      </trkpt>
      <trkpt lat="43.40762" lon="6.52929">
        <ele>154.8</ele>
        <time>2019-01-13T09:49:20Z</time>
      </trkpt>
      <trkpt lat="43.40755" lon="6.52938">
        <ele>156.8</ele>
        <time>2019-01-13T09:49:31Z</time>
      </trkpt>
      <trkpt lat="43.4075" lon="6.52949">
        <ele>158</ele>
        <time>2019-01-13T09:49:41Z</time>
      </trkpt>
      <trkpt lat="43.40744" lon="6.52959">
        <ele>159.6</ele>
        <time>2019-01-13T09:49:51Z</time>
      </trkpt>
      <trkpt lat="43.40739" lon="6.5297">
        <ele>161.9</ele>
        <time>2019-01-13T09:50:02Z</time>
      </trkpt>
      <trkpt lat="43.40733" lon="6.5298">
        <ele>163.8</ele>
        <time>2019-01-13T09:50:13Z</time>
      </trkpt>
      <trkpt lat="43.40729" lon="6.52991">
        <ele>165.4</ele>
        <time>2019-01-13T09:50:23Z</time>
      </trkpt>
      <trkpt lat="43.40724" lon="6.53002">
        <ele>167.2</ele>
        <time>2019-01-13T09:50:33Z</time>
      </trkpt>
      <trkpt lat="43.40718" lon="6.53013">
        <ele>168.9</ele>
        <time>2019-01-13T09:50:44Z</time>
      </trkpt>
      <trkpt lat="43.40715" lon="6.53024">
        <ele>170.6</ele>
        <time>2019-01-13T09:50:55Z</time>
      </trkpt>
      <trkpt lat="43.40709" lon="6.53035">
        <ele>171.9</ele>
        <time>2019-01-13T09:51:04Z</time>
      </trkpt>
      <trkpt lat="43.40705" lon="6.53047">
        <ele>173</ele>
        <time>2019-01-13T09:51:13Z</time>
      </trkpt>
      <trkpt lat="43.407" lon="6.53059">
        <ele>173.8</ele>
        <time>2019-01-13T09:51:21Z</time>
      </trkpt>
      <trkpt lat="43.40695" lon="6.5307">
        <ele>174.7</ele>
        <time>2019-01-13T09:51:30Z</time>
      </trkpt>
      <trkpt lat="43.40691" lon="6.53082">
        <ele>175.8</ele>
        <time>2019-01-13T09:51:39Z</time>
      </trkpt>
      <trkpt lat="43.40685" lon="6.53092">
        <ele>177.8</ele>
        <time>2019-01-13T09:51:49Z</time>
      </trkpt>
      <trkpt lat="43.40678" lon="6.53101">
        <ele>179.6</ele>
        <time>2019-01-13T09:51:59Z</time>
      </trkpt>
      <trkpt lat="43.40671" lon="6.53109">
        <ele>181.1</ele>
        <time>2019-01-13T09:52:09Z</time>
      </trkpt>
      <trkpt lat="43.40665" lon="6.53118">
        <ele>182.3</ele>
        <time>2019-01-13T09:52:18Z</time>
      </trkpt>
      <trkpt lat="43.40659" lon="6.53128">
        <ele>183.2</ele>
        <time>2019-01-13T09:52:26Z</time>
      </trkpt>
      <trkpt lat="43.40653" lon="6.53139">
        <ele>184.4</ele>
        <time>2019-01-13T09:52:35Z</time>
      </trkpt>
      <trkpt lat="43.40647" lon="6.53148">
        <ele>186.1</ele>
        <time>2019-01-13T09:52:43Z</time>
      </trkpt>
      <trkpt lat="43.4064" lon="6.53159">
        <ele>187.9</ele>
        <time>2019-01-13T09:52:54Z</time>
      </trkpt>
      <trkpt lat="43.40636" lon="6.5317">
        <ele>189.9</ele>
        <time>2019-01-13T09:53:03Z</time>
      </trkpt>
      <trkpt lat="43.4063" lon="6.5318">
        <ele>191.8</ele>
        <time>2019-01-13T09:53:13Z</time>
      </trkpt>
      <trkpt lat="43.40625" lon="6.5319">
        <ele>193.3</ele>
        <time>2019-01-13T09:53:22Z</time>
      </trkpt>
      <trkpt lat="43.40621" lon="6.53202">
        <ele>195</ele>
        <time>2019-01-13T09:53:32Z</time>
      </trkpt>
      <trkpt lat="43.40616" lon="6.53214">
        <ele>196.4</ele>
        <time>2019-01-13T09:53:42Z</time>
      </trkpt>
      <trkpt lat="43.40611" lon="6.53224">
        <ele>198.5</ele>
        <time>2019-01-13T09:53:52Z</time>
      </trkpt>
      <trkpt lat="43.40605" lon="6.53234">
        <ele>200.4</ele>
        <time>2019-01-13T09:54:02Z</time>
      </trkpt>
      <trkpt lat="43.40602" lon="6.53247">
        <ele>202.7</ele>
        <time>2019-01-13T09:54:14Z</time>
      </trkpt>
      <trkpt lat="43.40598" lon="6.53259">
        <ele>204.4</ele>
        <time>2019-01-13T09:54:22Z</time>
      </trkpt>
      <trkpt lat="43.40595" lon="6.53272">
        <ele>207</ele>
        <time>2019-01-13T09:54:32Z</time>
      </trkpt>
      <trkpt lat="43.40592" lon="6.53284">
        <ele>208.9</ele>
        <time>2019-01-13T09:54:42Z</time>
      </trkpt>
      <trkpt lat="43.40587" lon="6.53294">
        <ele>213</ele>
        <time>2019-01-13T09:54:58Z</time>
      </trkpt>
      <trkpt lat="43.40583" lon="6.53306">
        <ele>216</ele>
        <time>2019-01-13T09:55:11Z</time>
      </trkpt>
      <trkpt lat="43.4058" lon="6.53318">
        <ele>218.6</ele>
        <time>2019-01-13T09:55:23Z</time>
      </trkpt>
      <trkpt lat="43.40574" lon="6.53327">
        <ele>221.9</ele>
        <time>2019-01-13T09:55:36Z</time>
      </trkpt>
      <trkpt lat="43.40572" lon="6.5334">
        <ele>225.3</ele>
        <time>2019-01-13T09:55:48Z</time>
      </trkpt>
      <trkpt lat="43.40566" lon="6.53351">
        <ele>228.6</ele>
        <time>2019-01-13T09:56:02Z</time>
      </trkpt>
      <trkpt lat="43.40562" lon="6.53362">
        <ele>233</ele>
        <time>2019-01-13T09:56:18Z</time>
      </trkpt>
      <trkpt lat="43.40561" lon="6.53375">
        <ele>236.2</ele>
        <time>2019-01-13T09:56:30Z</time>
      </trkpt>
      <trkpt lat="43.40557" lon="6.53387">
        <ele>239.9</ele>
        <time>2019-01-13T09:56:44Z</time>
      </trkpt>
      <trkpt lat="43.40557" lon="6.534">
        <ele>242.7</ele>
        <time>2019-01-13T09:56:58Z</time>
      </trkpt>
      <trkpt lat="43.40555" lon="6.53412">
        <ele>246.8</ele>
        <time>2019-01-13T09:57:15Z</time>
      </trkpt>
      <trkpt lat="43.40554" lon="6.53425">
        <ele>251.1</ele>
        <time>2019-01-13T09:57:30Z</time>
      </trkpt>
      <trkpt lat="43.4055" lon="6.53437">
        <ele>254.7</ele>
        <time>2019-01-13T09:57:49Z</time>
      </trkpt>
      <trkpt lat="43.4055" lon="6.5345">
        <ele>259.6</ele>
        <time>2019-01-13T09:58:10Z</time>
      </trkpt>
      <trkpt lat="43.40553" lon="6.53462">
        <ele>262.8</ele>
        <time>2019-01-13T09:58:22Z</time>
      </trkpt>
      <trkpt lat="43.40545" lon="6.53468">
        <ele>267.8</ele>
        <time>2019-01-13T09:58:45Z</time>
      </trkpt>
      <trkpt lat="43.4055" lon="6.53457">
        <ele>267.2</ele>
        <time>2019-01-13T10:00:18Z</time>
      </trkpt>
      <trkpt lat="43.40543" lon="6.53465">
        <ele>268.6</ele>
        <time>2019-01-13T10:01:59Z</time>
      </trkpt>
      <trkpt lat="43.40546" lon="6.53478">
        <ele>269.5</ele>
        <time>2019-01-13T10:02:19Z</time>
      </trkpt>
      <trkpt lat="43.40544" lon="6.53492">
        <ele>271.4</ele>
        <time>2019-01-13T10:02:28Z</time>
      </trkpt>
      <trkpt lat="43.40542" lon="6.53504">
        <ele>274.7</ele>
        <time>2019-01-13T10:02:39Z</time>
      </trkpt>
      <trkpt lat="43.40538" lon="6.53515">
        <ele>282.9</ele>
        <time>2019-01-13T10:03:37Z</time>
      </trkpt>
      <trkpt lat="43.40538" lon="6.53528">
        <ele>287</ele>
        <time>2019-01-13T10:03:51Z</time>
      </trkpt>
      <trkpt lat="43.40538" lon="6.53541">
        <ele>291</ele>
        <time>2019-01-13T10:04:07Z</time>
      </trkpt>
      <trkpt lat="43.40537" lon="6.53553">
        <ele>297.3</ele>
        <time>2019-01-13T10:04:28Z</time>
      </trkpt>
      <trkpt lat="43.40535" lon="6.53566">
        <ele>302.7</ele>
        <time>2019-01-13T10:04:49Z</time>
      </trkpt>
      <trkpt lat="43.40534" lon="6.53578">
        <ele>307.5</ele>
        <time>2019-01-13T10:05:09Z</time>
      </trkpt>
      <trkpt lat="43.40532" lon="6.53591">
        <ele>312.6</ele>
        <time>2019-01-13T10:05:34Z</time>
      </trkpt>
      <trkpt lat="43.4053" lon="6.53603">
        <ele>318</ele>
        <time>2019-01-13T10:05:56Z</time>
      </trkpt>
      <trkpt lat="43.40528" lon="6.53615">
        <ele>323.6</ele>
        <time>2019-01-13T10:06:17Z</time>
      </trkpt>
      <trkpt lat="43.40526" lon="6.53628">
        <ele>327.9</ele>
        <time>2019-01-13T10:06:38Z</time>
      </trkpt>
      <trkpt lat="43.40522" lon="6.53639">
        <ele>332.5</ele>
        <time>2019-01-13T10:07:00Z</time>
      </trkpt>
      <trkpt lat="43.40516" lon="6.53649">
        <ele>337</ele>
        <time>2019-01-13T10:07:22Z</time>
      </trkpt>
      <trkpt lat="43.40512" lon="6.53661">
        <ele>341.4</ele>
        <time>2019-01-13T10:07:40Z</time>
      </trkpt>
      <trkpt lat="43.40511" lon="6.53673">
        <ele>346.3</ele>
        <time>2019-01-13T10:08:04Z</time>
      </trkpt>
      <trkpt lat="43.4051" lon="6.53687">
        <ele>351.1</ele>
        <time>2019-01-13T10:08:25Z</time>
      </trkpt>
      <trkpt lat="43.40508" lon="6.537">
        <ele>354.9</ele>
        <time>2019-01-13T10:08:44Z</time>
      </trkpt>
      <trkpt lat="43.40504" lon="6.53711">
        <ele>357.3</ele>
        <time>2019-01-13T10:08:56Z</time>
      </trkpt>
      <trkpt lat="43.40497" lon="6.53718">
        <ele>358.9</ele>
        <time>2019-01-13T10:09:07Z</time>
      </trkpt>
      <trkpt lat="43.40488" lon="6.53721">
        <ele>361</ele>
        <time>2019-01-13T10:09:19Z</time>
      </trkpt>
      <trkpt lat="43.40496" lon="6.53717">
        <ele>360.7</ele>
        <time>2019-01-13T10:09:39Z</time>
      </trkpt>
      <trkpt lat="43.40503" lon="6.53707">
        <ele>358.9</ele>
        <time>2019-01-13T10:09:52Z</time>
      </trkpt>
      <trkpt lat="43.40504" lon="6.53695">
        <ele>357.2</ele>
        <time>2019-01-13T10:10:06Z</time>
      </trkpt>
      <trkpt lat="43.40504" lon="6.53683">
        <ele>354.5</ele>
        <time>2019-01-13T10:10:20Z</time>
      </trkpt>
      <trkpt lat="43.40507" lon="6.53694">
        <ele>355.1</ele>
        <time>2019-01-13T10:18:44Z</time>
      </trkpt>
      <trkpt lat="43.40505" lon="6.53706">
        <ele>357.3</ele>
        <time>2019-01-13T10:18:52Z</time>
      </trkpt>
      <trkpt lat="43.40497" lon="6.53713">
        <ele>359.6</ele>
        <time>2019-01-13T10:19:05Z</time>
      </trkpt>
      <trkpt lat="43.40489" lon="6.5372">
        <ele>361.5</ele>
        <time>2019-01-13T10:19:21Z</time>
      </trkpt>
      <trkpt lat="43.40486" lon="6.53732">
        <ele>359.9</ele>
        <time>2019-01-13T10:23:06Z</time>
      </trkpt>
      <trkpt lat="43.4049" lon="6.5372">
        <ele>360.6</ele>
        <time>2019-01-13T10:23:55Z</time>
      </trkpt>
      <trkpt lat="43.40481" lon="6.53715">
        <ele>360.4</ele>
        <time>2019-01-13T10:26:25Z</time>
      </trkpt>
      <trkpt lat="43.40477" lon="6.53703">
        <ele>358.6</ele>
        <time>2019-01-13T10:26:38Z</time>
      </trkpt>
      <trkpt lat="43.4047" lon="6.53693">
        <ele>356.6</ele>
        <time>2019-01-13T10:26:49Z</time>
      </trkpt>
      <trkpt lat="43.40464" lon="6.53682">
        <ele>352.1</ele>
        <time>2019-01-13T10:27:22Z</time>
      </trkpt>
      <trkpt lat="43.40457" lon="6.53672">
        <ele>350.1</ele>
        <time>2019-01-13T10:27:55Z</time>
      </trkpt>
      <trkpt lat="43.40449" lon="6.53665">
        <ele>346.7</ele>
        <time>2019-01-13T10:28:09Z</time>
      </trkpt>
      <trkpt lat="43.40441" lon="6.53661">
        <ele>341.6</ele>
        <time>2019-01-13T10:28:27Z</time>
      </trkpt>
      <trkpt lat="43.40434" lon="6.53652">
        <ele>339</ele>
        <time>2019-01-13T10:28:36Z</time>
      </trkpt>
      <trkpt lat="43.40427" lon="6.53642">
        <ele>334.7</ele>
        <time>2019-01-13T10:28:54Z</time>
      </trkpt>
      <trkpt lat="43.4042" lon="6.53633">
        <ele>331.7</ele>
        <time>2019-01-13T10:29:04Z</time>
      </trkpt>
      <trkpt lat="43.40413" lon="6.53626">
        <ele>329.2</ele>
        <time>2019-01-13T10:29:13Z</time>
      </trkpt>
      <trkpt lat="43.40404" lon="6.53621">
        <ele>326.8</ele>
        <time>2019-01-13T10:29:23Z</time>
      </trkpt>
      <trkpt lat="43.40395" lon="6.53621">
        <ele>324.1</ele>
        <time>2019-01-13T10:29:36Z</time>
      </trkpt>
      <trkpt lat="43.40386" lon="6.53619">
        <ele>321.5</ele>
        <time>2019-01-13T10:29:47Z</time>
      </trkpt>
      <trkpt lat="43.4038" lon="6.53609">
        <ele>319</ele>
        <time>2019-01-13T10:30:16Z</time>
      </trkpt>
      <trkpt lat="43.40373" lon="6.53601">
        <ele>319.1</ele>
        <time>2019-01-13T10:30:26Z</time>
      </trkpt>
      <trkpt lat="43.40366" lon="6.53591">
        <ele>319.1</ele>
        <time>2019-01-13T10:30:36Z</time>
      </trkpt>
      <trkpt lat="43.40359" lon="6.53584">
        <ele>318.7</ele>
        <time>2019-01-13T10:30:44Z</time>
      </trkpt>
      <trkpt lat="43.4035" lon="6.53577">
        <ele>317.7</ele>
        <time>2019-01-13T10:30:52Z</time>
      </trkpt>
      <trkpt lat="43.40341" lon="6.53572">
        <ele>316.3</ele>
        <time>2019-01-13T10:31:01Z</time>
      </trkpt>
      <trkpt lat="43.40334" lon="6.53564">
        <ele>314.7</ele>
        <time>2019-01-13T10:31:09Z</time>
      </trkpt>
      <trkpt lat="43.40327" lon="6.53555">
        <ele>312.9</ele>
        <time>2019-01-13T10:31:18Z</time>
      </trkpt>
      <trkpt lat="43.40318" lon="6.5355">
        <ele>310.6</ele>
        <time>2019-01-13T10:31:29Z</time>
      </trkpt>
      <trkpt lat="43.40311" lon="6.53541">
        <ele>308.4</ele>
        <time>2019-01-13T10:31:38Z</time>
      </trkpt>
      <trkpt lat="43.40305" lon="6.53533">
        <ele>307</ele>
        <time>2019-01-13T10:31:48Z</time>
      </trkpt>
      <trkpt lat="43.40297" lon="6.53524">
        <ele>305.9</ele>
        <time>2019-01-13T10:31:54Z</time>
      </trkpt>
      <trkpt lat="43.40296" lon="6.53511">
        <ele>305.3</ele>
        <time>2019-01-13T10:32:03Z</time>
      </trkpt>
      <trkpt lat="43.40291" lon="6.535">
        <ele>306</ele>
        <time>2019-01-13T10:32:27Z</time>
      </trkpt>
      <trkpt lat="43.4029" lon="6.53487">
        <ele>305.3</ele>
        <time>2019-01-13T10:37:19Z</time>
      </trkpt>
      <trkpt lat="43.40286" lon="6.53476">
        <ele>305.8</ele>
        <time>2019-01-13T10:37:27Z</time>
      </trkpt>
      <trkpt lat="43.40281" lon="6.53465">
        <ele>306.1</ele>
        <time>2019-01-13T10:37:35Z</time>
      </trkpt>
      <trkpt lat="43.40274" lon="6.53457">
        <ele>306.4</ele>
        <time>2019-01-13T10:37:43Z</time>
      </trkpt>
      <trkpt lat="43.40266" lon="6.53451">
        <ele>306.6</ele>
        <time>2019-01-13T10:37:51Z</time>
      </trkpt>
      <trkpt lat="43.40257" lon="6.53446">
        <ele>307.1</ele>
        <time>2019-01-13T10:37:59Z</time>
      </trkpt>
      <trkpt lat="43.40248" lon="6.53442">
        <ele>307.5</ele>
        <time>2019-01-13T10:38:07Z</time>
      </trkpt>
      <trkpt lat="43.4024" lon="6.53434">
        <ele>308.4</ele>
        <time>2019-01-13T10:38:16Z</time>
      </trkpt>
      <trkpt lat="43.40233" lon="6.53425">
        <ele>308.9</ele>
        <time>2019-01-13T10:38:24Z</time>
      </trkpt>
      <trkpt lat="43.40226" lon="6.53416">
        <ele>309.8</ele>
        <time>2019-01-13T10:38:32Z</time>
      </trkpt>
      <trkpt lat="43.4022" lon="6.53406">
        <ele>311</ele>
        <time>2019-01-13T10:38:41Z</time>
      </trkpt>
      <trkpt lat="43.40213" lon="6.53397">
        <ele>311.3</ele>
        <time>2019-01-13T10:38:49Z</time>
      </trkpt>
      <trkpt lat="43.40207" lon="6.53388">
        <ele>311.5</ele>
        <time>2019-01-13T10:38:56Z</time>
      </trkpt>
      <trkpt lat="43.402" lon="6.53379">
        <ele>312.5</ele>
        <time>2019-01-13T10:39:05Z</time>
      </trkpt>
      <trkpt lat="43.40192" lon="6.53371">
        <ele>312.8</ele>
        <time>2019-01-13T10:39:13Z</time>
      </trkpt>
      <trkpt lat="43.40184" lon="6.53363">
        <ele>313.4</ele>
        <time>2019-01-13T10:39:21Z</time>
      </trkpt>
      <trkpt lat="43.40176" lon="6.53354">
        <ele>314.5</ele>
        <time>2019-01-13T10:39:30Z</time>
      </trkpt>
      <trkpt lat="43.40169" lon="6.53345">
        <ele>314.9</ele>
        <time>2019-01-13T10:39:38Z</time>
      </trkpt>
      <trkpt lat="43.40162" lon="6.53336">
        <ele>315.1</ele>
        <time>2019-01-13T10:39:48Z</time>
      </trkpt>
      <trkpt lat="43.40156" lon="6.53326">
        <ele>315.8</ele>
        <time>2019-01-13T10:40:08Z</time>
      </trkpt>
      <trkpt lat="43.40149" lon="6.53316">
        <ele>316.2</ele>
        <time>2019-01-13T10:40:17Z</time>
      </trkpt>
      <trkpt lat="43.40142" lon="6.53307">
        <ele>316.9</ele>
        <time>2019-01-13T10:40:26Z</time>
      </trkpt>
      <trkpt lat="43.40134" lon="6.53299">
        <ele>317.2</ele>
        <time>2019-01-13T10:40:34Z</time>
      </trkpt>
      <trkpt lat="43.40128" lon="6.5329">
        <ele>318.1</ele>
        <time>2019-01-13T10:40:42Z</time>
      </trkpt>
      <trkpt lat="43.4012" lon="6.53281">
        <ele>318.1</ele>
        <time>2019-01-13T10:40:50Z</time>
      </trkpt>
      <trkpt lat="43.40112" lon="6.53274">
        <ele>318.6</ele>
        <time>2019-01-13T10:40:58Z</time>
      </trkpt>
      <trkpt lat="43.40104" lon="6.53267">
        <ele>318.8</ele>
        <time>2019-01-13T10:41:06Z</time>
      </trkpt>
      <trkpt lat="43.40096" lon="6.5326">
        <ele>319.1</ele>
        <time>2019-01-13T10:41:14Z</time>
      </trkpt>
      <trkpt lat="43.40087" lon="6.53254">
        <ele>319.6</ele>
        <time>2019-01-13T10:41:23Z</time>
      </trkpt>
      <trkpt lat="43.40079" lon="6.53251">
        <ele>319.7</ele>
        <time>2019-01-13T10:41:30Z</time>
      </trkpt>
      <trkpt lat="43.40069" lon="6.5325">
        <ele>320.7</ele>
        <time>2019-01-13T10:41:39Z</time>
      </trkpt>
      <trkpt lat="43.4006" lon="6.53249">
        <ele>321.9</ele>
        <time>2019-01-13T10:41:46Z</time>
      </trkpt>
      <trkpt lat="43.40051" lon="6.53251">
        <ele>322.5</ele>
        <time>2019-01-13T10:41:52Z</time>
      </trkpt>
      <trkpt lat="43.40042" lon="6.53254">
        <ele>323.1</ele>
        <time>2019-01-13T10:42:00Z</time>
      </trkpt>
      <trkpt lat="43.40033" lon="6.53257">
        <ele>322.8</ele>
        <time>2019-01-13T10:42:07Z</time>
      </trkpt>
      <trkpt lat="43.40024" lon="6.53263">
        <ele>323</ele>
        <time>2019-01-13T10:42:15Z</time>
      </trkpt>
      <trkpt lat="43.40016" lon="6.53271">
        <ele>323.9</ele>
        <time>2019-01-13T10:42:22Z</time>
      </trkpt>
      <trkpt lat="43.40008" lon="6.53278">
        <ele>324</ele>
        <time>2019-01-13T10:42:30Z</time>
      </trkpt>
      <trkpt lat="43.4" lon="6.53287">
        <ele>324.1</ele>
        <time>2019-01-13T10:42:38Z</time>
      </trkpt>
      <trkpt lat="43.39993" lon="6.53295">
        <ele>324.7</ele>
        <time>2019-01-13T10:42:46Z</time>
      </trkpt>
      <trkpt lat="43.39984" lon="6.53301">
        <ele>325.1</ele>
        <time>2019-01-13T10:42:55Z</time>
      </trkpt>
      <trkpt lat="43.39975" lon="6.53303">
        <ele>325.2</ele>
        <time>2019-01-13T10:43:02Z</time>
      </trkpt>
      <trkpt lat="43.39965" lon="6.53302">
        <ele>325.3</ele>
        <time>2019-01-13T10:43:10Z</time>
      </trkpt>
      <trkpt lat="43.39956" lon="6.53298">
        <ele>325.5</ele>
        <time>2019-01-13T10:43:18Z</time>
      </trkpt>
      <trkpt lat="43.39948" lon="6.53293">
        <ele>325.6</ele>
        <time>2019-01-13T10:43:25Z</time>
      </trkpt>
      <trkpt lat="43.39939" lon="6.53286">
        <ele>325.4</ele>
        <time>2019-01-13T10:43:33Z</time>
      </trkpt>
      <trkpt lat="43.3993" lon="6.5328">
        <ele>325.5</ele>
        <time>2019-01-13T10:43:41Z</time>
      </trkpt>
      <trkpt lat="43.39921" lon="6.53272">
        <ele>325.3</ele>
        <time>2019-01-13T10:43:49Z</time>
      </trkpt>
      <trkpt lat="43.39914" lon="6.53265">
        <ele>325.3</ele>
        <time>2019-01-13T10:43:57Z</time>
      </trkpt>
      <trkpt lat="43.39906" lon="6.53259">
        <ele>325.7</ele>
        <time>2019-01-13T10:44:06Z</time>
      </trkpt>
      <trkpt lat="43.39899" lon="6.53251">
        <ele>326</ele>
        <time>2019-01-13T10:44:16Z</time>
      </trkpt>
      <trkpt lat="43.39891" lon="6.53244">
        <ele>325.9</ele>
        <time>2019-01-13T10:44:25Z</time>
      </trkpt>
      <trkpt lat="43.39882" lon="6.53239">
        <ele>326</ele>
        <time>2019-01-13T10:44:35Z</time>
      </trkpt>
      <trkpt lat="43.39873" lon="6.53234">
        <ele>325.7</ele>
        <time>2019-01-13T10:44:46Z</time>
      </trkpt>
      <trkpt lat="43.39864" lon="6.53231">
        <ele>325.8</ele>
        <time>2019-01-13T10:44:56Z</time>
      </trkpt>
      <trkpt lat="43.39855" lon="6.53227">
        <ele>325.5</ele>
        <time>2019-01-13T10:45:05Z</time>
      </trkpt>
      <trkpt lat="43.39846" lon="6.53222">
        <ele>325.8</ele>
        <time>2019-01-13T10:45:14Z</time>
      </trkpt>
      <trkpt lat="43.39837" lon="6.53218">
        <ele>325.8</ele>
        <time>2019-01-13T10:45:23Z</time>
      </trkpt>
      <trkpt lat="43.39828" lon="6.53214">
        <ele>325.4</ele>
        <time>2019-01-13T10:45:31Z</time>
      </trkpt>
      <trkpt lat="43.39819" lon="6.5321">
        <ele>325.6</ele>
        <time>2019-01-13T10:45:41Z</time>
      </trkpt>
      <trkpt lat="43.3981" lon="6.53205">
        <ele>325.4</ele>
        <time>2019-01-13T10:45:50Z</time>
      </trkpt>
      <trkpt lat="43.39802" lon="6.53199">
        <ele>325.2</ele>
        <time>2019-01-13T10:45:58Z</time>
      </trkpt>
      <trkpt lat="43.39793" lon="6.53194">
        <ele>325</ele>
        <time>2019-01-13T10:46:06Z</time>
      </trkpt>
      <trkpt lat="43.39784" lon="6.53189">
        <ele>324.7</ele>
        <time>2019-01-13T10:46:14Z</time>
      </trkpt>
      <trkpt lat="43.39775" lon="6.53185">
        <ele>324.6</ele>
        <time>2019-01-13T10:46:23Z</time>
      </trkpt>
      <trkpt lat="43.39766" lon="6.53181">
        <ele>324.4</ele>
        <time>2019-01-13T10:46:31Z</time>
      </trkpt>
      <trkpt lat="43.39757" lon="6.53179">
        <ele>324.4</ele>
        <time>2019-01-13T10:46:39Z</time>
      </trkpt>
      <trkpt lat="43.39748" lon="6.53177">
        <ele>323.9</ele>
        <time>2019-01-13T10:46:46Z</time>
      </trkpt>
      <trkpt lat="43.39739" lon="6.53176">
        <ele>323.9</ele>
        <time>2019-01-13T10:46:54Z</time>
      </trkpt>
      <trkpt lat="43.39729" lon="6.53175">
        <ele>323.6</ele>
        <time>2019-01-13T10:47:02Z</time>
      </trkpt>
      <trkpt lat="43.3972" lon="6.53174">
        <ele>323.4</ele>
        <time>2019-01-13T10:47:10Z</time>
      </trkpt>
      <trkpt lat="43.39711" lon="6.53176">
        <ele>323.7</ele>
        <time>2019-01-13T10:47:16Z</time>
      </trkpt>
      <trkpt lat="43.39701" lon="6.53178">
        <ele>323.6</ele>
        <time>2019-01-13T10:47:24Z</time>
      </trkpt>
      <trkpt lat="43.39692" lon="6.53182">
        <ele>323.4</ele>
        <time>2019-01-13T10:47:32Z</time>
      </trkpt>
      <trkpt lat="43.39684" lon="6.53189">
        <ele>323.1</ele>
        <time>2019-01-13T10:47:42Z</time>
      </trkpt>
      <trkpt lat="43.39678" lon="6.53198">
        <ele>323.2</ele>
        <time>2019-01-13T10:47:51Z</time>
      </trkpt>
      <trkpt lat="43.39669" lon="6.53194">
        <ele>322.5</ele>
        <time>2019-01-13T10:48:11Z</time>
      </trkpt>
      <trkpt lat="43.39661" lon="6.53185">
        <ele>322.1</ele>
        <time>2019-01-13T10:48:20Z</time>
      </trkpt>
      <trkpt lat="43.39654" lon="6.53176">
        <ele>321.9</ele>
        <time>2019-01-13T10:48:28Z</time>
      </trkpt>
      <trkpt lat="43.39647" lon="6.53168">
        <ele>322</ele>
        <time>2019-01-13T10:48:35Z</time>
      </trkpt>
      <trkpt lat="43.39639" lon="6.53159">
        <ele>321.9</ele>
        <time>2019-01-13T10:48:43Z</time>
      </trkpt>
      <trkpt lat="43.39631" lon="6.53151">
        <ele>321.7</ele>
        <time>2019-01-13T10:48:51Z</time>
      </trkpt>
      <trkpt lat="43.39624" lon="6.53143">
        <ele>322</ele>
        <time>2019-01-13T10:49:03Z</time>
      </trkpt>
      <trkpt lat="43.39616" lon="6.53134">
        <ele>322.3</ele>
        <time>2019-01-13T10:49:14Z</time>
      </trkpt>
      <trkpt lat="43.39607" lon="6.5313">
        <ele>322.3</ele>
        <time>2019-01-13T10:49:23Z</time>
      </trkpt>
      <trkpt lat="43.396" lon="6.5312">
        <ele>321.7</ele>
        <time>2019-01-13T10:49:32Z</time>
      </trkpt>
      <trkpt lat="43.39592" lon="6.53111">
        <ele>321.8</ele>
        <time>2019-01-13T10:49:41Z</time>
      </trkpt>
      <trkpt lat="43.39584" lon="6.53102">
        <ele>322.7</ele>
        <time>2019-01-13T10:49:50Z</time>
      </trkpt>
      <trkpt lat="43.39576" lon="6.53097">
        <ele>322.8</ele>
        <time>2019-01-13T10:49:58Z</time>
      </trkpt>
      <trkpt lat="43.39568" lon="6.53092">
        <ele>323.4</ele>
        <time>2019-01-13T10:50:09Z</time>
      </trkpt>
      <trkpt lat="43.39558" lon="6.53087">
        <ele>323.3</ele>
        <time>2019-01-13T10:50:19Z</time>
      </trkpt>
      <trkpt lat="43.3955" lon="6.53082">
        <ele>322.8</ele>
        <time>2019-01-13T10:50:28Z</time>
      </trkpt>
      <trkpt lat="43.39542" lon="6.53075">
        <ele>322.6</ele>
        <time>2019-01-13T10:50:37Z</time>
      </trkpt>
      <trkpt lat="43.39534" lon="6.53068">
        <ele>322.7</ele>
        <time>2019-01-13T10:50:45Z</time>
      </trkpt>
      <trkpt lat="43.39526" lon="6.53061">
        <ele>322.7</ele>
        <time>2019-01-13T10:50:53Z</time>
      </trkpt>
      <trkpt lat="43.39518" lon="6.53055">
        <ele>323</ele>
        <time>2019-01-13T10:51:01Z</time>
      </trkpt>
      <trkpt lat="43.39509" lon="6.53048">
        <ele>323.4</ele>
        <time>2019-01-13T10:51:10Z</time>
      </trkpt>
      <trkpt lat="43.395" lon="6.53042">
        <ele>323.5</ele>
        <time>2019-01-13T10:51:19Z</time>
      </trkpt>
      <trkpt lat="43.39491" lon="6.53036">
        <ele>323.6</ele>
        <time>2019-01-13T10:51:27Z</time>
      </trkpt>
      <trkpt lat="43.39483" lon="6.53031">
        <ele>324</ele>
        <time>2019-01-13T10:51:34Z</time>
      </trkpt>
      <trkpt lat="43.39476" lon="6.53022">
        <ele>323.7</ele>
        <time>2019-01-13T10:51:44Z</time>
      </trkpt>
      <trkpt lat="43.39467" lon="6.53017">
        <ele>324</ele>
        <time>2019-01-13T10:51:52Z</time>
      </trkpt>
      <trkpt lat="43.39457" lon="6.53013">
        <ele>323.6</ele>
        <time>2019-01-13T10:52:00Z</time>
      </trkpt>
      <trkpt lat="43.39447" lon="6.53012">
        <ele>323.5</ele>
        <time>2019-01-13T10:52:07Z</time>
      </trkpt>
      <trkpt lat="43.39438" lon="6.53013">
        <ele>323.2</ele>
        <time>2019-01-13T10:52:14Z</time>
      </trkpt>
      <trkpt lat="43.39429" lon="6.53016">
        <ele>322.7</ele>
        <time>2019-01-13T10:52:21Z</time>
      </trkpt>
      <trkpt lat="43.3942" lon="6.5302">
        <ele>322.3</ele>
        <time>2019-01-13T10:52:29Z</time>
      </trkpt>
      <trkpt lat="43.39412" lon="6.53026">
        <ele>322.5</ele>
        <time>2019-01-13T10:52:36Z</time>
      </trkpt>
      <trkpt lat="43.39403" lon="6.53031">
        <ele>322.5</ele>
        <time>2019-01-13T10:52:44Z</time>
      </trkpt>
      <trkpt lat="43.39394" lon="6.53037">
        <ele>322.4</ele>
        <time>2019-01-13T10:52:57Z</time>
      </trkpt>
      <trkpt lat="43.39388" lon="6.53047">
        <ele>322.1</ele>
        <time>2019-01-13T10:53:15Z</time>
      </trkpt>
      <trkpt lat="43.3938" lon="6.53053">
        <ele>322</ele>
        <time>2019-01-13T10:55:41Z</time>
      </trkpt>
      <trkpt lat="43.39371" lon="6.53048">
        <ele>322</ele>
        <time>2019-01-13T10:56:43Z</time>
      </trkpt>
      <trkpt lat="43.39362" lon="6.53051">
        <ele>321.4</ele>
        <time>2019-01-13T10:56:53Z</time>
      </trkpt>
      <trkpt lat="43.39352" lon="6.53052">
        <ele>321.1</ele>
        <time>2019-01-13T10:57:01Z</time>
      </trkpt>
      <trkpt lat="43.39343" lon="6.53052">
        <ele>321.1</ele>
        <time>2019-01-13T10:57:10Z</time>
      </trkpt>
      <trkpt lat="43.39333" lon="6.53052">
        <ele>320.1</ele>
        <time>2019-01-13T10:57:19Z</time>
      </trkpt>
      <trkpt lat="43.39323" lon="6.53051">
        <ele>319</ele>
        <time>2019-01-13T10:57:28Z</time>
      </trkpt>
      <trkpt lat="43.39314" lon="6.5305">
        <ele>318.5</ele>
        <time>2019-01-13T10:57:38Z</time>
      </trkpt>
      <trkpt lat="43.39305" lon="6.53048">
        <ele>317.8</ele>
        <time>2019-01-13T10:57:49Z</time>
      </trkpt>
      <trkpt lat="43.39297" lon="6.53045">
        <ele>317.4</ele>
        <time>2019-01-13T10:57:59Z</time>
      </trkpt>
      <trkpt lat="43.3929" lon="6.53035">
        <ele>317.4</ele>
        <time>2019-01-13T10:58:10Z</time>
      </trkpt>
      <trkpt lat="43.39293" lon="6.53022">
        <ele>316.9</ele>
        <time>2019-01-13T10:58:20Z</time>
      </trkpt>
      <trkpt lat="43.39299" lon="6.53014">
        <ele>316.4</ele>
        <time>2019-01-13T10:58:27Z</time>
      </trkpt>
      <trkpt lat="43.39306" lon="6.53004">
        <ele>316.2</ele>
        <time>2019-01-13T10:58:36Z</time>
      </trkpt>
      <trkpt lat="43.39313" lon="6.52995">
        <ele>315.5</ele>
        <time>2019-01-13T10:58:44Z</time>
      </trkpt>
      <trkpt lat="43.39319" lon="6.52986">
        <ele>315.4</ele>
        <time>2019-01-13T10:58:54Z</time>
      </trkpt>
      <trkpt lat="43.39325" lon="6.52976">
        <ele>315.3</ele>
        <time>2019-01-13T10:59:02Z</time>
      </trkpt>
      <trkpt lat="43.39331" lon="6.52966">
        <ele>314.3</ele>
        <time>2019-01-13T10:59:10Z</time>
      </trkpt>
      <trkpt lat="43.39338" lon="6.52957">
        <ele>314</ele>
        <time>2019-01-13T10:59:19Z</time>
      </trkpt>
      <trkpt lat="43.39346" lon="6.52949">
        <ele>313.2</ele>
        <time>2019-01-13T10:59:28Z</time>
      </trkpt>
      <trkpt lat="43.39354" lon="6.52943">
        <ele>312.4</ele>
        <time>2019-01-13T10:59:37Z</time>
      </trkpt>
      <trkpt lat="43.39359" lon="6.52931">
        <ele>311.8</ele>
        <time>2019-01-13T10:59:46Z</time>
      </trkpt>
      <trkpt lat="43.39356" lon="6.52918">
        <ele>312.1</ele>
        <time>2019-01-13T10:59:56Z</time>
      </trkpt>
      <trkpt lat="43.39349" lon="6.52908">
        <ele>312</ele>
        <time>2019-01-13T11:00:05Z</time>
      </trkpt>
      <trkpt lat="43.39343" lon="6.52897">
        <ele>312</ele>
        <time>2019-01-13T11:00:13Z</time>
      </trkpt>
      <trkpt lat="43.39338" lon="6.52885">
        <ele>311.8</ele>
        <time>2019-01-13T11:00:22Z</time>
      </trkpt>
      <trkpt lat="43.39334" lon="6.52872">
        <ele>312</ele>
        <time>2019-01-13T11:00:31Z</time>
      </trkpt>
      <trkpt lat="43.39332" lon="6.5286">
        <ele>312.1</ele>
        <time>2019-01-13T11:00:40Z</time>
      </trkpt>
      <trkpt lat="43.39333" lon="6.52848">
        <ele>312.1</ele>
        <time>2019-01-13T11:00:48Z</time>
      </trkpt>
      <trkpt lat="43.39336" lon="6.52836">
        <ele>312.1</ele>
        <time>2019-01-13T11:00:55Z</time>
      </trkpt>
      <trkpt lat="43.39335" lon="6.52824">
        <ele>312</ele>
        <time>2019-01-13T11:01:04Z</time>
      </trkpt>
      <trkpt lat="43.39332" lon="6.52812">
        <ele>312.3</ele>
        <time>2019-01-13T11:01:13Z</time>
      </trkpt>
      <trkpt lat="43.39333" lon="6.52799">
        <ele>313</ele>
        <time>2019-01-13T11:01:21Z</time>
      </trkpt>
      <trkpt lat="43.3933" lon="6.52787">
        <ele>313.5</ele>
        <time>2019-01-13T11:01:29Z</time>
      </trkpt>
      <trkpt lat="43.3933" lon="6.52775">
        <ele>313.3</ele>
        <time>2019-01-13T11:01:37Z</time>
      </trkpt>
      <trkpt lat="43.39329" lon="6.52761">
        <ele>313.3</ele>
        <time>2019-01-13T11:01:46Z</time>
      </trkpt>
      <trkpt lat="43.39329" lon="6.52748">
        <ele>313.5</ele>
        <time>2019-01-13T11:01:55Z</time>
      </trkpt>
      <trkpt lat="43.39326" lon="6.52735">
        <ele>313.8</ele>
        <time>2019-01-13T11:02:04Z</time>
      </trkpt>
      <trkpt lat="43.39322" lon="6.52723">
        <ele>314.3</ele>
        <time>2019-01-13T11:02:12Z</time>
      </trkpt>
      <trkpt lat="43.39319" lon="6.5271">
        <ele>314.6</ele>
        <time>2019-01-13T11:02:20Z</time>
      </trkpt>
      <trkpt lat="43.39316" lon="6.52699">
        <ele>314.8</ele>
        <time>2019-01-13T11:02:28Z</time>
      </trkpt>
      <trkpt lat="43.39313" lon="6.52687">
        <ele>314.6</ele>
        <time>2019-01-13T11:02:36Z</time>
      </trkpt>
      <trkpt lat="43.39307" lon="6.52675">
        <ele>314.8</ele>
        <time>2019-01-13T11:02:44Z</time>
      </trkpt>
      <trkpt lat="43.39301" lon="6.52664">
        <ele>314.6</ele>
        <time>2019-01-13T11:02:52Z</time>
      </trkpt>
      <trkpt lat="43.39296" lon="6.52653">
        <ele>315.1</ele>
        <time>2019-01-13T11:02:59Z</time>
      </trkpt>
      <trkpt lat="43.39292" lon="6.52641">
        <ele>315.6</ele>
        <time>2019-01-13T11:03:08Z</time>
      </trkpt>
      <trkpt lat="43.39292" lon="6.52628">
        <ele>316.1</ele>
        <time>2019-01-13T11:03:16Z</time>
      </trkpt>
      <trkpt lat="43.39293" lon="6.52615">
        <ele>316.3</ele>
        <time>2019-01-13T11:03:25Z</time>
      </trkpt>
      <trkpt lat="43.39296" lon="6.52603">
        <ele>316.1</ele>
        <time>2019-01-13T11:03:33Z</time>
      </trkpt>
      <trkpt lat="43.39302" lon="6.52593">
        <ele>315.9</ele>
        <time>2019-01-13T11:03:40Z</time>
      </trkpt>
      <trkpt lat="43.39311" lon="6.52587">
        <ele>315.8</ele>
        <time>2019-01-13T11:03:49Z</time>
      </trkpt>
      <trkpt lat="43.39321" lon="6.52585">
        <ele>315.3</ele>
        <time>2019-01-13T11:03:58Z</time>
      </trkpt>
      <trkpt lat="43.39331" lon="6.52584">
        <ele>314.3</ele>
        <time>2019-01-13T11:04:06Z</time>
      </trkpt>
      <trkpt lat="43.39341" lon="6.5258">
        <ele>312.8</ele>
        <time>2019-01-13T11:04:15Z</time>
      </trkpt>
      <trkpt lat="43.3935" lon="6.52575">
        <ele>312</ele>
        <time>2019-01-13T11:04:23Z</time>
      </trkpt>
      <trkpt lat="43.39358" lon="6.5257">
        <ele>311.7</ele>
        <time>2019-01-13T11:04:32Z</time>
      </trkpt>
      <trkpt lat="43.39366" lon="6.52562">
        <ele>311.3</ele>
        <time>2019-01-13T11:04:40Z</time>
      </trkpt>
      <trkpt lat="43.39373" lon="6.52554">
        <ele>310.5</ele>
        <time>2019-01-13T11:04:50Z</time>
      </trkpt>
      <trkpt lat="43.39381" lon="6.52545">
        <ele>309.5</ele>
        <time>2019-01-13T11:04:59Z</time>
      </trkpt>
      <trkpt lat="43.39388" lon="6.52536">
        <ele>308.8</ele>
        <time>2019-01-13T11:05:08Z</time>
      </trkpt>
      <trkpt lat="43.39394" lon="6.52526">
        <ele>308.3</ele>
        <time>2019-01-13T11:05:17Z</time>
      </trkpt>
      <trkpt lat="43.39401" lon="6.52517">
        <ele>307.3</ele>
        <time>2019-01-13T11:05:27Z</time>
      </trkpt>
      <trkpt lat="43.39408" lon="6.52509">
        <ele>306.5</ele>
        <time>2019-01-13T11:05:37Z</time>
      </trkpt>
      <trkpt lat="43.39415" lon="6.52499">
        <ele>305.9</ele>
        <time>2019-01-13T11:05:42Z</time>
      </trkpt>
      <trkpt lat="43.39421" lon="6.52491">
        <ele>304.8</ele>
        <time>2019-01-13T11:05:50Z</time>
      </trkpt>
      <trkpt lat="43.39429" lon="6.52482">
        <ele>303.3</ele>
        <time>2019-01-13T11:05:59Z</time>
      </trkpt>
      <trkpt lat="43.39436" lon="6.52471">
        <ele>302.5</ele>
        <time>2019-01-13T11:06:08Z</time>
      </trkpt>
      <trkpt lat="43.39439" lon="6.52459">
        <ele>302.5</ele>
        <time>2019-01-13T11:06:17Z</time>
      </trkpt>
      <trkpt lat="43.39444" lon="6.52448">
        <ele>301.7</ele>
        <time>2019-01-13T11:06:24Z</time>
      </trkpt>
      <trkpt lat="43.39448" lon="6.52435">
        <ele>300.8</ele>
        <time>2019-01-13T11:06:32Z</time>
      </trkpt>
      <trkpt lat="43.39453" lon="6.52422">
        <ele>300</ele>
        <time>2019-01-13T11:06:40Z</time>
      </trkpt>
      <trkpt lat="43.39453" lon="6.52409">
        <ele>299.3</ele>
        <time>2019-01-13T11:06:48Z</time>
      </trkpt>
      <trkpt lat="43.39454" lon="6.52397">
        <ele>298.6</ele>
        <time>2019-01-13T11:06:55Z</time>
      </trkpt>
      <trkpt lat="43.39452" lon="6.52384">
        <ele>297.6</ele>
        <time>2019-01-13T11:07:03Z</time>
      </trkpt>
      <trkpt lat="43.39452" lon="6.52372">
        <ele>297.5</ele>
        <time>2019-01-13T11:07:10Z</time>
      </trkpt>
      <trkpt lat="43.39451" lon="6.52358">
        <ele>297</ele>
        <time>2019-01-13T11:07:17Z</time>
      </trkpt>
      <trkpt lat="43.39449" lon="6.52345">
        <ele>296.1</ele>
        <time>2019-01-13T11:07:25Z</time>
      </trkpt>
      <trkpt lat="43.39445" lon="6.52332">
        <ele>295.1</ele>
        <time>2019-01-13T11:07:33Z</time>
      </trkpt>
      <trkpt lat="43.39442" lon="6.52319">
        <ele>294.1</ele>
        <time>2019-01-13T11:07:40Z</time>
      </trkpt>
      <trkpt lat="43.39439" lon="6.52308">
        <ele>293.7</ele>
        <time>2019-01-13T11:07:47Z</time>
      </trkpt>
      <trkpt lat="43.39436" lon="6.52295">
        <ele>293.2</ele>
        <time>2019-01-13T11:07:55Z</time>
      </trkpt>
      <trkpt lat="43.39431" lon="6.52285">
        <ele>292.7</ele>
        <time>2019-01-13T11:08:02Z</time>
      </trkpt>
      <trkpt lat="43.39426" lon="6.52273">
        <ele>292.6</ele>
        <time>2019-01-13T11:08:10Z</time>
      </trkpt>
      <trkpt lat="43.39423" lon="6.52262">
        <ele>292.3</ele>
        <time>2019-01-13T11:08:19Z</time>
      </trkpt>
      <trkpt lat="43.39427" lon="6.52251">
        <ele>292</ele>
        <time>2019-01-13T11:08:26Z</time>
      </trkpt>
      <trkpt lat="43.3942" lon="6.52242">
        <ele>292</ele>
        <time>2019-01-13T11:09:33Z</time>
      </trkpt>
      <trkpt lat="43.39416" lon="6.5223">
        <ele>292.5</ele>
        <time>2019-01-13T11:09:42Z</time>
      </trkpt>
      <trkpt lat="43.39414" lon="6.52218">
        <ele>293</ele>
        <time>2019-01-13T11:09:51Z</time>
      </trkpt>
      <trkpt lat="43.3941" lon="6.52206">
        <ele>293.7</ele>
        <time>2019-01-13T11:10:00Z</time>
      </trkpt>
      <trkpt lat="43.39406" lon="6.52193">
        <ele>293.8</ele>
        <time>2019-01-13T11:10:10Z</time>
      </trkpt>
      <trkpt lat="43.39403" lon="6.52181">
        <ele>294</ele>
        <time>2019-01-13T11:10:19Z</time>
      </trkpt>
      <trkpt lat="43.39401" lon="6.52168">
        <ele>295.4</ele>
        <time>2019-01-13T11:10:29Z</time>
      </trkpt>
      <trkpt lat="43.394" lon="6.52155">
        <ele>296.1</ele>
        <time>2019-01-13T11:10:39Z</time>
      </trkpt>
      <trkpt lat="43.39401" lon="6.52142">
        <ele>296.4</ele>
        <time>2019-01-13T11:10:48Z</time>
      </trkpt>
      <trkpt lat="43.39402" lon="6.52128">
        <ele>297</ele>
        <time>2019-01-13T11:10:58Z</time>
      </trkpt>
      <trkpt lat="43.39407" lon="6.52117">
        <ele>297.3</ele>
        <time>2019-01-13T11:11:06Z</time>
      </trkpt>
      <trkpt lat="43.39411" lon="6.52105">
        <ele>298.6</ele>
        <time>2019-01-13T11:11:14Z</time>
      </trkpt>
      <trkpt lat="43.39416" lon="6.52094">
        <ele>299.3</ele>
        <time>2019-01-13T11:11:22Z</time>
      </trkpt>
      <trkpt lat="43.39421" lon="6.52083">
        <ele>299.7</ele>
        <time>2019-01-13T11:11:31Z</time>
      </trkpt>
      <trkpt lat="43.39428" lon="6.52074">
        <ele>300.2</ele>
        <time>2019-01-13T11:11:40Z</time>
      </trkpt>
      <trkpt lat="43.39436" lon="6.52068">
        <ele>301.4</ele>
        <time>2019-01-13T11:11:50Z</time>
      </trkpt>
      <trkpt lat="43.39446" lon="6.52066">
        <ele>302.2</ele>
        <time>2019-01-13T11:11:58Z</time>
      </trkpt>
      <trkpt lat="43.39457" lon="6.52065">
        <ele>303.1</ele>
        <time>2019-01-13T11:12:06Z</time>
      </trkpt>
      <trkpt lat="43.39466" lon="6.52061">
        <ele>303.7</ele>
        <time>2019-01-13T11:12:16Z</time>
      </trkpt>
      <trkpt lat="43.39475" lon="6.52055">
        <ele>303.8</ele>
        <time>2019-01-13T11:12:24Z</time>
      </trkpt>
      <trkpt lat="43.39485" lon="6.52052">
        <ele>304.7</ele>
        <time>2019-01-13T11:12:33Z</time>
      </trkpt>
      <trkpt lat="43.39493" lon="6.52048">
        <ele>305.1</ele>
        <time>2019-01-13T11:12:41Z</time>
      </trkpt>
      <trkpt lat="43.39502" lon="6.52042">
        <ele>305.7</ele>
        <time>2019-01-13T11:12:49Z</time>
      </trkpt>
      <trkpt lat="43.3951" lon="6.52036">
        <ele>306</ele>
        <time>2019-01-13T11:12:57Z</time>
      </trkpt>
      <trkpt lat="43.39519" lon="6.52032">
        <ele>306.9</ele>
        <time>2019-01-13T11:13:06Z</time>
      </trkpt>
      <trkpt lat="43.39529" lon="6.52029">
        <ele>307.5</ele>
        <time>2019-01-13T11:13:16Z</time>
      </trkpt>
      <trkpt lat="43.39538" lon="6.52026">
        <ele>307.8</ele>
        <time>2019-01-13T11:13:24Z</time>
      </trkpt>
      <trkpt lat="43.39547" lon="6.52026">
        <ele>308.2</ele>
        <time>2019-01-13T11:13:32Z</time>
      </trkpt>
      <trkpt lat="43.39557" lon="6.52024">
        <ele>308.7</ele>
        <time>2019-01-13T11:13:40Z</time>
      </trkpt>
      <trkpt lat="43.39566" lon="6.52025">
        <ele>309.4</ele>
        <time>2019-01-13T11:13:49Z</time>
      </trkpt>
      <trkpt lat="43.39576" lon="6.52025">
        <ele>309.7</ele>
        <time>2019-01-13T11:13:58Z</time>
      </trkpt>
      <trkpt lat="43.39585" lon="6.52028">
        <ele>310.4</ele>
        <time>2019-01-13T11:14:07Z</time>
      </trkpt>
      <trkpt lat="43.39596" lon="6.52029">
        <ele>311.1</ele>
        <time>2019-01-13T11:14:16Z</time>
      </trkpt>
      <trkpt lat="43.39605" lon="6.52031">
        <ele>311.4</ele>
        <time>2019-01-13T11:14:24Z</time>
      </trkpt>
      <trkpt lat="43.39615" lon="6.52032">
        <ele>312.4</ele>
        <time>2019-01-13T11:14:32Z</time>
      </trkpt>
      <trkpt lat="43.39625" lon="6.52032">
        <ele>313</ele>
        <time>2019-01-13T11:14:40Z</time>
      </trkpt>
      <trkpt lat="43.39635" lon="6.52033">
        <ele>313.2</ele>
        <time>2019-01-13T11:14:48Z</time>
      </trkpt>
      <trkpt lat="43.39644" lon="6.52036">
        <ele>313.6</ele>
        <time>2019-01-13T11:14:56Z</time>
      </trkpt>
      <trkpt lat="43.39654" lon="6.52037">
        <ele>314.2</ele>
        <time>2019-01-13T11:15:03Z</time>
      </trkpt>
      <trkpt lat="43.39663" lon="6.5204">
        <ele>315</ele>
        <time>2019-01-13T11:15:12Z</time>
      </trkpt>
      <trkpt lat="43.39672" lon="6.52043">
        <ele>315.4</ele>
        <time>2019-01-13T11:15:20Z</time>
      </trkpt>
      <trkpt lat="43.39681" lon="6.52047">
        <ele>315.5</ele>
        <time>2019-01-13T11:15:28Z</time>
      </trkpt>
      <trkpt lat="43.3969" lon="6.5205">
        <ele>315.9</ele>
        <time>2019-01-13T11:15:36Z</time>
      </trkpt>
      <trkpt lat="43.39699" lon="6.52054">
        <ele>316.1</ele>
        <time>2019-01-13T11:15:44Z</time>
      </trkpt>
      <trkpt lat="43.39707" lon="6.5206">
        <ele>316.6</ele>
        <time>2019-01-13T11:15:53Z</time>
      </trkpt>
      <trkpt lat="43.39716" lon="6.52064">
        <ele>316.8</ele>
        <time>2019-01-13T11:16:01Z</time>
      </trkpt>
      <trkpt lat="43.39725" lon="6.52065">
        <ele>317</ele>
        <time>2019-01-13T11:16:08Z</time>
      </trkpt>
      <trkpt lat="43.39735" lon="6.52068">
        <ele>317.2</ele>
        <time>2019-01-13T11:16:16Z</time>
      </trkpt>
      <trkpt lat="43.39745" lon="6.52068">
        <ele>317.5</ele>
        <time>2019-01-13T11:16:24Z</time>
      </trkpt>
      <trkpt lat="43.39755" lon="6.52064">
        <ele>317.2</ele>
        <time>2019-01-13T11:16:31Z</time>
      </trkpt>
      <trkpt lat="43.39765" lon="6.52056">
        <ele>317.4</ele>
        <time>2019-01-13T11:16:39Z</time>
      </trkpt>
      <trkpt lat="43.39772" lon="6.52049">
        <ele>317.7</ele>
        <time>2019-01-13T11:16:46Z</time>
      </trkpt>
      <trkpt lat="43.39781" lon="6.52044">
        <ele>317.9</ele>
        <time>2019-01-13T11:16:53Z</time>
      </trkpt>
      <trkpt lat="43.39791" lon="6.5204">
        <ele>318.2</ele>
        <time>2019-01-13T11:17:01Z</time>
      </trkpt>
      <trkpt lat="43.39801" lon="6.52039">
        <ele>317.9</ele>
        <time>2019-01-13T11:17:09Z</time>
      </trkpt>
      <trkpt lat="43.3981" lon="6.52038">
        <ele>317.1</ele>
        <time>2019-01-13T11:17:17Z</time>
      </trkpt>
      <trkpt lat="43.39819" lon="6.52036">
        <ele>316.3</ele>
        <time>2019-01-13T11:17:26Z</time>
      </trkpt>
      <trkpt lat="43.39829" lon="6.52032">
        <ele>315.7</ele>
        <time>2019-01-13T11:17:34Z</time>
      </trkpt>
      <trkpt lat="43.39838" lon="6.5203">
        <ele>315.2</ele>
        <time>2019-01-13T11:17:42Z</time>
      </trkpt>
      <trkpt lat="43.39848" lon="6.52027">
        <ele>314.4</ele>
        <time>2019-01-13T11:17:50Z</time>
      </trkpt>
      <trkpt lat="43.39858" lon="6.52023">
        <ele>313.8</ele>
        <time>2019-01-13T11:17:59Z</time>
      </trkpt>
      <trkpt lat="43.39868" lon="6.5202">
        <ele>313.1</ele>
        <time>2019-01-13T11:18:08Z</time>
      </trkpt>
      <trkpt lat="43.39877" lon="6.52021">
        <ele>312.3</ele>
        <time>2019-01-13T11:24:22Z</time>
      </trkpt>
      <trkpt lat="43.39886" lon="6.52026">
        <ele>311.2</ele>
        <time>2019-01-13T11:25:33Z</time>
      </trkpt>
      <trkpt lat="43.39894" lon="6.52032">
        <ele>310.7</ele>
        <time>2019-01-13T11:25:48Z</time>
      </trkpt>
      <trkpt lat="43.39902" lon="6.52039">
        <ele>310.7</ele>
        <time>2019-01-13T11:25:55Z</time>
      </trkpt>
      <trkpt lat="43.39912" lon="6.52044">
        <ele>309.8</ele>
        <time>2019-01-13T11:26:03Z</time>
      </trkpt>
      <trkpt lat="43.39921" lon="6.52045">
        <ele>309</ele>
        <time>2019-01-13T11:26:10Z</time>
      </trkpt>
      <trkpt lat="43.39931" lon="6.52046">
        <ele>308.2</ele>
        <time>2019-01-13T11:26:17Z</time>
      </trkpt>
      <trkpt lat="43.3994" lon="6.52046">
        <ele>308</ele>
        <time>2019-01-13T11:26:23Z</time>
      </trkpt>
      <trkpt lat="43.3995" lon="6.52044">
        <ele>306.9</ele>
        <time>2019-01-13T11:26:29Z</time>
      </trkpt>
      <trkpt lat="43.39959" lon="6.52043">
        <ele>306</ele>
        <time>2019-01-13T11:26:35Z</time>
      </trkpt>
      <trkpt lat="43.39968" lon="6.52043">
        <ele>305.4</ele>
        <time>2019-01-13T11:26:41Z</time>
      </trkpt>
      <trkpt lat="43.39978" lon="6.52043">
        <ele>304.6</ele>
        <time>2019-01-13T11:26:48Z</time>
      </trkpt>
      <trkpt lat="43.39988" lon="6.52045">
        <ele>304.3</ele>
        <time>2019-01-13T11:26:55Z</time>
      </trkpt>
      <trkpt lat="43.39998" lon="6.52046">
        <ele>303.7</ele>
        <time>2019-01-13T11:27:01Z</time>
      </trkpt>
      <trkpt lat="43.40008" lon="6.52046">
        <ele>303.1</ele>
        <time>2019-01-13T11:27:07Z</time>
      </trkpt>
      <trkpt lat="43.40017" lon="6.52048">
        <ele>302.1</ele>
        <time>2019-01-13T11:27:15Z</time>
      </trkpt>
      <trkpt lat="43.40027" lon="6.52049">
        <ele>301.6</ele>
        <time>2019-01-13T11:27:22Z</time>
      </trkpt>
      <trkpt lat="43.40036" lon="6.52048">
        <ele>301</ele>
        <time>2019-01-13T11:27:29Z</time>
      </trkpt>
      <trkpt lat="43.40044" lon="6.52039">
        <ele>300.3</ele>
        <time>2019-01-13T11:27:35Z</time>
      </trkpt>
      <trkpt lat="43.40049" lon="6.52027">
        <ele>299.5</ele>
        <time>2019-01-13T11:27:40Z</time>
      </trkpt>
      <trkpt lat="43.40055" lon="6.52017">
        <ele>298.5</ele>
        <time>2019-01-13T11:27:46Z</time>
      </trkpt>
      <trkpt lat="43.4006" lon="6.52006">
        <ele>297.6</ele>
        <time>2019-01-13T11:27:53Z</time>
      </trkpt>
      <trkpt lat="43.40067" lon="6.51996">
        <ele>297.3</ele>
        <time>2019-01-13T11:27:59Z</time>
      </trkpt>
      <trkpt lat="43.40074" lon="6.51988">
        <ele>296</ele>
        <time>2019-01-13T11:28:06Z</time>
      </trkpt>
      <trkpt lat="43.40081" lon="6.51978">
        <ele>294.8</ele>
        <time>2019-01-13T11:28:13Z</time>
      </trkpt>
      <trkpt lat="43.40087" lon="6.51966">
        <ele>293.8</ele>
        <time>2019-01-13T11:28:20Z</time>
      </trkpt>
      <trkpt lat="43.40094" lon="6.51955">
        <ele>292.7</ele>
        <time>2019-01-13T11:28:27Z</time>
      </trkpt>
      <trkpt lat="43.40101" lon="6.51947">
        <ele>291.6</ele>
        <time>2019-01-13T11:28:34Z</time>
      </trkpt>
      <trkpt lat="43.4011" lon="6.51944">
        <ele>290.4</ele>
        <time>2019-01-13T11:28:41Z</time>
      </trkpt>
      <trkpt lat="43.40119" lon="6.51939">
        <ele>289.7</ele>
        <time>2019-01-13T11:28:48Z</time>
      </trkpt>
      <trkpt lat="43.40126" lon="6.51928">
        <ele>288.8</ele>
        <time>2019-01-13T11:28:55Z</time>
      </trkpt>
      <trkpt lat="43.4013" lon="6.51916">
        <ele>288.4</ele>
        <time>2019-01-13T11:29:00Z</time>
      </trkpt>
      <trkpt lat="43.40136" lon="6.51905">
        <ele>287.8</ele>
        <time>2019-01-13T11:29:07Z</time>
      </trkpt>
      <trkpt lat="43.40142" lon="6.51894">
        <ele>286.9</ele>
        <time>2019-01-13T11:29:13Z</time>
      </trkpt>
      <trkpt lat="43.40143" lon="6.5188">
        <ele>285.9</ele>
        <time>2019-01-13T11:29:21Z</time>
      </trkpt>
      <trkpt lat="43.40149" lon="6.51869">
        <ele>284.5</ele>
        <time>2019-01-13T11:29:28Z</time>
      </trkpt>
      <trkpt lat="43.40156" lon="6.5186">
        <ele>283.3</ele>
        <time>2019-01-13T11:29:36Z</time>
      </trkpt>
      <trkpt lat="43.40161" lon="6.51849">
        <ele>281.2</ele>
        <time>2019-01-13T11:29:47Z</time>
      </trkpt>
      <trkpt lat="43.40167" lon="6.51839">
        <ele>280.6</ele>
        <time>2019-01-13T11:29:54Z</time>
      </trkpt>
      <trkpt lat="43.4017" lon="6.51826">
        <ele>279.9</ele>
        <time>2019-01-13T11:30:02Z</time>
      </trkpt>
      <trkpt lat="43.40173" lon="6.51814">
        <ele>278.4</ele>
        <time>2019-01-13T11:30:10Z</time>
      </trkpt>
      <trkpt lat="43.40177" lon="6.51801">
        <ele>277.4</ele>
        <time>2019-01-13T11:30:18Z</time>
      </trkpt>
      <trkpt lat="43.40182" lon="6.51789">
        <ele>276.2</ele>
        <time>2019-01-13T11:30:26Z</time>
      </trkpt>
      <trkpt lat="43.40183" lon="6.51776">
        <ele>274.8</ele>
        <time>2019-01-13T11:30:35Z</time>
      </trkpt>
      <trkpt lat="43.40186" lon="6.51762">
        <ele>273.6</ele>
        <time>2019-01-13T11:30:44Z</time>
      </trkpt>
      <trkpt lat="43.40188" lon="6.51749">
        <ele>272.3</ele>
        <time>2019-01-13T11:30:52Z</time>
      </trkpt>
      <trkpt lat="43.40188" lon="6.51735">
        <ele>271.3</ele>
        <time>2019-01-13T11:31:01Z</time>
      </trkpt>
      <trkpt lat="43.40188" lon="6.51723">
        <ele>270.4</ele>
        <time>2019-01-13T11:31:09Z</time>
      </trkpt>
      <trkpt lat="43.4019" lon="6.51709">
        <ele>269.3</ele>
        <time>2019-01-13T11:31:19Z</time>
      </trkpt>
      <trkpt lat="43.40195" lon="6.51697">
        <ele>268.3</ele>
        <time>2019-01-13T11:31:25Z</time>
      </trkpt>
      <trkpt lat="43.40201" lon="6.51686">
        <ele>266.8</ele>
        <time>2019-01-13T11:31:32Z</time>
      </trkpt>
      <trkpt lat="43.40204" lon="6.51674">
        <ele>265.7</ele>
        <time>2019-01-13T11:31:39Z</time>
      </trkpt>
      <trkpt lat="43.40206" lon="6.51662">
        <ele>264.2</ele>
        <time>2019-01-13T11:31:48Z</time>
      </trkpt>
      <trkpt lat="43.4021" lon="6.5165">
        <ele>263.4</ele>
        <time>2019-01-13T11:31:55Z</time>
      </trkpt>
      <trkpt lat="43.40214" lon="6.51639">
        <ele>262.7</ele>
        <time>2019-01-13T11:32:03Z</time>
      </trkpt>
      <trkpt lat="43.40219" lon="6.51628">
        <ele>261.8</ele>
        <time>2019-01-13T11:32:10Z</time>
      </trkpt>
      <trkpt lat="43.40224" lon="6.51617">
        <ele>261.5</ele>
        <time>2019-01-13T11:32:17Z</time>
      </trkpt>
      <trkpt lat="43.40226" lon="6.51604">
        <ele>261.7</ele>
        <time>2019-01-13T11:32:25Z</time>
      </trkpt>
      <trkpt lat="43.40228" lon="6.51592">
        <ele>261.5</ele>
        <time>2019-01-13T11:32:32Z</time>
      </trkpt>
      <trkpt lat="43.40229" lon="6.5158">
        <ele>261.9</ele>
        <time>2019-01-13T11:32:40Z</time>
      </trkpt>
      <trkpt lat="43.40235" lon="6.5157">
        <ele>263.3</ele>
        <time>2019-01-13T11:32:51Z</time>
      </trkpt>
      <trkpt lat="43.40241" lon="6.51561">
        <ele>263.5</ele>
        <time>2019-01-13T11:32:59Z</time>
      </trkpt>
      <trkpt lat="43.40243" lon="6.51573">
        <ele>265.5</ele>
        <time>2019-01-13T11:53:41Z</time>
      </trkpt>
      <trkpt lat="43.4024" lon="6.51561">
        <ele>265.5</ele>
        <time>2019-01-13T11:59:04Z</time>
      </trkpt>
      <trkpt lat="43.40249" lon="6.51566">
        <ele>266.6</ele>
        <time>2019-01-13T12:05:30Z</time>
      </trkpt>
      <trkpt lat="43.40243" lon="6.51555">
        <ele>266.5</ele>
        <time>2019-01-13T12:14:56Z</time>
      </trkpt>
      <trkpt lat="43.40241" lon="6.51568">
        <ele>270</ele>
        <time>2019-01-13T12:19:23Z</time>
      </trkpt>
      <trkpt lat="43.4024" lon="6.51581">
        <ele>270</ele>
        <time>2019-01-13T12:19:34Z</time>
      </trkpt>
      <trkpt lat="43.40238" lon="6.51568">
        <ele>269.6</ele>
        <time>2019-01-13T12:20:07Z</time>
      </trkpt>
      <trkpt lat="43.40248" lon="6.51568">
        <ele>270.6</ele>
        <time>2019-01-13T12:22:13Z</time>
      </trkpt>
      <trkpt lat="43.4025" lon="6.51581">
        <ele>270.8</ele>
        <time>2019-01-13T12:22:26Z</time>
      </trkpt>
      <trkpt lat="43.40253" lon="6.51592">
        <ele>270.7</ele>
        <time>2019-01-13T12:22:34Z</time>
      </trkpt>
      <trkpt lat="43.40256" lon="6.51604">
        <ele>270.9</ele>
        <time>2019-01-13T12:22:42Z</time>
      </trkpt>
      <trkpt lat="43.4026" lon="6.51615">
        <ele>271.3</ele>
        <time>2019-01-13T12:22:50Z</time>
      </trkpt>
      <trkpt lat="43.40267" lon="6.51624">
        <ele>271</ele>
        <time>2019-01-13T12:22:58Z</time>
      </trkpt>
      <trkpt lat="43.40274" lon="6.51633">
        <ele>270.8</ele>
        <time>2019-01-13T12:23:06Z</time>
      </trkpt>
      <trkpt lat="43.40281" lon="6.51641">
        <ele>270.7</ele>
        <time>2019-01-13T12:23:14Z</time>
      </trkpt>
      <trkpt lat="43.40287" lon="6.51652">
        <ele>270.5</ele>
        <time>2019-01-13T12:23:23Z</time>
      </trkpt>
      <trkpt lat="43.40294" lon="6.51662">
        <ele>270.3</ele>
        <time>2019-01-13T12:23:33Z</time>
      </trkpt>
      <trkpt lat="43.40298" lon="6.51674">
        <ele>270.2</ele>
        <time>2019-01-13T12:23:43Z</time>
      </trkpt>
      <trkpt lat="43.403" lon="6.51687">
        <ele>270.3</ele>
        <time>2019-01-13T12:23:53Z</time>
      </trkpt>
      <trkpt lat="43.40304" lon="6.51699">
        <ele>269.6</ele>
        <time>2019-01-13T12:24:03Z</time>
      </trkpt>
      <trkpt lat="43.4031" lon="6.51711">
        <ele>269.2</ele>
        <time>2019-01-13T12:24:13Z</time>
      </trkpt>
      <trkpt lat="43.40318" lon="6.51718">
        <ele>269.1</ele>
        <time>2019-01-13T12:24:21Z</time>
      </trkpt>
      <trkpt lat="43.40328" lon="6.51716">
        <ele>269.1</ele>
        <time>2019-01-13T12:24:30Z</time>
      </trkpt>
      <trkpt lat="43.40337" lon="6.51717">
        <ele>268.9</ele>
        <time>2019-01-13T12:24:37Z</time>
      </trkpt>
      <trkpt lat="43.40347" lon="6.51721">
        <ele>269.2</ele>
        <time>2019-01-13T12:24:46Z</time>
      </trkpt>
      <trkpt lat="43.40355" lon="6.51727">
        <ele>269.3</ele>
        <time>2019-01-13T12:24:54Z</time>
      </trkpt>
      <trkpt lat="43.40363" lon="6.51734">
        <ele>269.2</ele>
        <time>2019-01-13T12:25:02Z</time>
      </trkpt>
      <trkpt lat="43.4037" lon="6.51741">
        <ele>269.2</ele>
        <time>2019-01-13T12:25:11Z</time>
      </trkpt>
      <trkpt lat="43.40379" lon="6.51745">
        <ele>268.6</ele>
        <time>2019-01-13T12:25:19Z</time>
      </trkpt>
      <trkpt lat="43.40389" lon="6.51742">
        <ele>268.8</ele>
        <time>2019-01-13T12:25:28Z</time>
      </trkpt>
      <trkpt lat="43.40397" lon="6.51734">
        <ele>268.7</ele>
        <time>2019-01-13T12:25:35Z</time>
      </trkpt>
      <trkpt lat="43.40402" lon="6.51723">
        <ele>268.5</ele>
        <time>2019-01-13T12:25:43Z</time>
      </trkpt>
      <trkpt lat="43.40406" lon="6.51711">
        <ele>268.3</ele>
        <time>2019-01-13T12:25:52Z</time>
      </trkpt>
      <trkpt lat="43.40406" lon="6.51698">
        <ele>267.5</ele>
        <time>2019-01-13T12:26:00Z</time>
      </trkpt>
      <trkpt lat="43.40409" lon="6.51686">
        <ele>267</ele>
        <time>2019-01-13T12:26:08Z</time>
      </trkpt>
      <trkpt lat="43.40415" lon="6.51676">
        <ele>266.7</ele>
        <time>2019-01-13T12:26:16Z</time>
      </trkpt>
      <trkpt lat="43.40424" lon="6.51675">
        <ele>265.8</ele>
        <time>2019-01-13T12:26:27Z</time>
      </trkpt>
      <trkpt lat="43.40433" lon="6.5168">
        <ele>265.4</ele>
        <time>2019-01-13T12:26:35Z</time>
      </trkpt>
      <trkpt lat="43.40439" lon="6.5169">
        <ele>265.1</ele>
        <time>2019-01-13T12:26:43Z</time>
      </trkpt>
      <trkpt lat="43.40446" lon="6.517">
        <ele>265.2</ele>
        <time>2019-01-13T12:26:51Z</time>
      </trkpt>
      <trkpt lat="43.40452" lon="6.51711">
        <ele>265</ele>
        <time>2019-01-13T12:27:00Z</time>
      </trkpt>
      <trkpt lat="43.40458" lon="6.51719">
        <ele>264.8</ele>
        <time>2019-01-13T12:27:07Z</time>
      </trkpt>
      <trkpt lat="43.40468" lon="6.51722">
        <ele>264.6</ele>
        <time>2019-01-13T12:27:14Z</time>
      </trkpt>
      <trkpt lat="43.40477" lon="6.51719">
        <ele>264.3</ele>
        <time>2019-01-13T12:27:21Z</time>
      </trkpt>
      <trkpt lat="43.40486" lon="6.51716">
        <ele>263.8</ele>
        <time>2019-01-13T12:27:27Z</time>
      </trkpt>
      <trkpt lat="43.40495" lon="6.51718">
        <ele>263.4</ele>
        <time>2019-01-13T12:27:36Z</time>
      </trkpt>
      <trkpt lat="43.40503" lon="6.51726">
        <ele>263.2</ele>
        <time>2019-01-13T12:27:45Z</time>
      </trkpt>
      <trkpt lat="43.40509" lon="6.51734">
        <ele>262.9</ele>
        <time>2019-01-13T12:27:53Z</time>
      </trkpt>
      <trkpt lat="43.40516" lon="6.51744">
        <ele>262.6</ele>
        <time>2019-01-13T12:28:02Z</time>
      </trkpt>
      <trkpt lat="43.40523" lon="6.51755">
        <ele>262.3</ele>
        <time>2019-01-13T12:28:11Z</time>
      </trkpt>
      <trkpt lat="43.40532" lon="6.5176">
        <ele>262.4</ele>
        <time>2019-01-13T12:28:19Z</time>
      </trkpt>
      <trkpt lat="43.40541" lon="6.51756">
        <ele>262.2</ele>
        <time>2019-01-13T12:28:25Z</time>
      </trkpt>
      <trkpt lat="43.40548" lon="6.51749">
        <ele>262.1</ele>
        <time>2019-01-13T12:28:31Z</time>
      </trkpt>
      <trkpt lat="43.40553" lon="6.51737">
        <ele>261.9</ele>
        <time>2019-01-13T12:28:39Z</time>
      </trkpt>
      <trkpt lat="43.40558" lon="6.51726">
        <ele>262.3</ele>
        <time>2019-01-13T12:28:47Z</time>
      </trkpt>
      <trkpt lat="43.40563" lon="6.51714">
        <ele>262.2</ele>
        <time>2019-01-13T12:28:55Z</time>
      </trkpt>
      <trkpt lat="43.40566" lon="6.51702">
        <ele>262.1</ele>
        <time>2019-01-13T12:29:04Z</time>
      </trkpt>
      <trkpt lat="43.40568" lon="6.5169">
        <ele>261.8</ele>
        <time>2019-01-13T12:29:13Z</time>
      </trkpt>
      <trkpt lat="43.4057" lon="6.51677">
        <ele>261.4</ele>
        <time>2019-01-13T12:29:23Z</time>
      </trkpt>
      <trkpt lat="43.40569" lon="6.51665">
        <ele>261</ele>
        <time>2019-01-13T12:29:30Z</time>
      </trkpt>
      <trkpt lat="43.40571" lon="6.51652">
        <ele>261.3</ele>
        <time>2019-01-13T12:29:38Z</time>
      </trkpt>
      <trkpt lat="43.4057" lon="6.51638">
        <ele>261.3</ele>
        <time>2019-01-13T12:29:45Z</time>
      </trkpt>
      <trkpt lat="43.40568" lon="6.51626">
        <ele>260.9</ele>
        <time>2019-01-13T12:29:53Z</time>
      </trkpt>
      <trkpt lat="43.40565" lon="6.51613">
        <ele>260.8</ele>
        <time>2019-01-13T12:30:01Z</time>
      </trkpt>
      <trkpt lat="43.40566" lon="6.516">
        <ele>260.5</ele>
        <time>2019-01-13T12:30:09Z</time>
      </trkpt>
      <trkpt lat="43.4057" lon="6.5159">
        <ele>260.2</ele>
        <time>2019-01-13T12:30:16Z</time>
      </trkpt>
      <trkpt lat="43.40571" lon="6.51576">
        <ele>259.7</ele>
        <time>2019-01-13T12:30:26Z</time>
      </trkpt>
      <trkpt lat="43.40574" lon="6.51564">
        <ele>259.5</ele>
        <time>2019-01-13T12:30:34Z</time>
      </trkpt>
      <trkpt lat="43.4058" lon="6.51554">
        <ele>259.4</ele>
        <time>2019-01-13T12:30:51Z</time>
      </trkpt>
      <trkpt lat="43.40586" lon="6.51543">
        <ele>259.4</ele>
        <time>2019-01-13T12:31:01Z</time>
      </trkpt>
      <trkpt lat="43.40593" lon="6.51534">
        <ele>259.4</ele>
        <time>2019-01-13T12:31:09Z</time>
      </trkpt>
      <trkpt lat="43.40597" lon="6.51523">
        <ele>260.6</ele>
        <time>2019-01-13T12:31:20Z</time>
      </trkpt>
      <trkpt lat="43.40603" lon="6.51514">
        <ele>261.9</ele>
        <time>2019-01-13T12:31:34Z</time>
      </trkpt>
      <trkpt lat="43.40612" lon="6.5151">
        <ele>262.9</ele>
        <time>2019-01-13T12:31:43Z</time>
      </trkpt>
      <trkpt lat="43.40621" lon="6.51504">
        <ele>262.9</ele>
        <time>2019-01-13T12:31:53Z</time>
      </trkpt>
      <trkpt lat="43.40629" lon="6.515">
        <ele>263.1</ele>
        <time>2019-01-13T12:32:05Z</time>
      </trkpt>
      <trkpt lat="43.40638" lon="6.51496">
        <ele>263.3</ele>
        <time>2019-01-13T12:32:11Z</time>
      </trkpt>
      <trkpt lat="43.40646" lon="6.51489">
        <ele>262.4</ele>
        <time>2019-01-13T12:32:21Z</time>
      </trkpt>
      <trkpt lat="43.40655" lon="6.51482">
        <ele>261.3</ele>
        <time>2019-01-13T12:32:31Z</time>
      </trkpt>
      <trkpt lat="43.40659" lon="6.5147">
        <ele>260.8</ele>
        <time>2019-01-13T12:32:40Z</time>
      </trkpt>
      <trkpt lat="43.40661" lon="6.51457">
        <ele>259.9</ele>
        <time>2019-01-13T12:32:50Z</time>
      </trkpt>
      <trkpt lat="43.40669" lon="6.5145">
        <ele>259.3</ele>
        <time>2019-01-13T12:32:57Z</time>
      </trkpt>
      <trkpt lat="43.40677" lon="6.51444">
        <ele>259.5</ele>
        <time>2019-01-13T12:33:05Z</time>
      </trkpt>
      <trkpt lat="43.40686" lon="6.51437">
        <ele>259.5</ele>
        <time>2019-01-13T12:33:15Z</time>
      </trkpt>
      <trkpt lat="43.40695" lon="6.51432">
        <ele>260.1</ele>
        <time>2019-01-13T12:33:25Z</time>
      </trkpt>
      <trkpt lat="43.40703" lon="6.51426">
        <ele>260.5</ele>
        <time>2019-01-13T12:33:34Z</time>
      </trkpt>
      <trkpt lat="43.4071" lon="6.51418">
        <ele>259.6</ele>
        <time>2019-01-13T12:33:43Z</time>
      </trkpt>
      <trkpt lat="43.40718" lon="6.5141">
        <ele>257.9</ele>
        <time>2019-01-13T12:33:52Z</time>
      </trkpt>
      <trkpt lat="43.40727" lon="6.51404">
        <ele>257.3</ele>
        <time>2019-01-13T12:34:01Z</time>
      </trkpt>
      <trkpt lat="43.40735" lon="6.51398">
        <ele>256.6</ele>
        <time>2019-01-13T12:34:09Z</time>
      </trkpt>
      <trkpt lat="43.40743" lon="6.51391">
        <ele>256</ele>
        <time>2019-01-13T12:34:18Z</time>
      </trkpt>
      <trkpt lat="43.40752" lon="6.51388">
        <ele>255.8</ele>
        <time>2019-01-13T12:34:27Z</time>
      </trkpt>
      <trkpt lat="43.40761" lon="6.51385">
        <ele>256.2</ele>
        <time>2019-01-13T12:34:37Z</time>
      </trkpt>
      <trkpt lat="43.40769" lon="6.51378">
        <ele>256</ele>
        <time>2019-01-13T12:34:49Z</time>
      </trkpt>
      <trkpt lat="43.40776" lon="6.51369">
        <ele>255.1</ele>
        <time>2019-01-13T12:34:59Z</time>
      </trkpt>
      <trkpt lat="43.40783" lon="6.51361">
        <ele>254.4</ele>
        <time>2019-01-13T12:35:10Z</time>
      </trkpt>
      <trkpt lat="43.40792" lon="6.51357">
        <ele>252.9</ele>
        <time>2019-01-13T12:35:22Z</time>
      </trkpt>
      <trkpt lat="43.408" lon="6.51351">
        <ele>252.1</ele>
        <time>2019-01-13T12:35:31Z</time>
      </trkpt>
      <trkpt lat="43.40808" lon="6.51343">
        <ele>252</ele>
        <time>2019-01-13T12:35:40Z</time>
      </trkpt>
      <trkpt lat="43.40815" lon="6.51336">
        <ele>252.1</ele>
        <time>2019-01-13T12:35:47Z</time>
      </trkpt>
      <trkpt lat="43.40824" lon="6.5133">
        <ele>252.2</ele>
        <time>2019-01-13T12:35:56Z</time>
      </trkpt>
      <trkpt lat="43.40834" lon="6.51329">
        <ele>251.4</ele>
        <time>2019-01-13T12:36:05Z</time>
      </trkpt>
      <trkpt lat="43.40844" lon="6.51333">
        <ele>251.4</ele>
        <time>2019-01-13T12:36:16Z</time>
      </trkpt>
      <trkpt lat="43.40853" lon="6.51336">
        <ele>251.3</ele>
        <time>2019-01-13T12:36:24Z</time>
      </trkpt>
      <trkpt lat="43.40856" lon="6.51323">
        <ele>252.5</ele>
        <time>2019-01-13T12:37:08Z</time>
      </trkpt>
      <trkpt lat="43.40858" lon="6.51311">
        <ele>254.1</ele>
        <time>2019-01-13T12:37:21Z</time>
      </trkpt>
      <trkpt lat="43.40855" lon="6.51298">
        <ele>256.8</ele>
        <time>2019-01-13T12:37:33Z</time>
      </trkpt>
      <trkpt lat="43.40849" lon="6.51287">
        <ele>258.3</ele>
        <time>2019-01-13T12:37:47Z</time>
      </trkpt>
      <trkpt lat="43.40847" lon="6.51275">
        <ele>260.4</ele>
        <time>2019-01-13T12:38:06Z</time>
      </trkpt>
      <trkpt lat="43.40841" lon="6.51265">
        <ele>261.9</ele>
        <time>2019-01-13T12:38:16Z</time>
      </trkpt>
      <trkpt lat="43.40834" lon="6.51257">
        <ele>263.7</ele>
        <time>2019-01-13T12:38:26Z</time>
      </trkpt>
      <trkpt lat="43.40826" lon="6.51249">
        <ele>265.4</ele>
        <time>2019-01-13T12:38:39Z</time>
      </trkpt>
      <trkpt lat="43.40821" lon="6.51238">
        <ele>266.4</ele>
        <time>2019-01-13T12:38:50Z</time>
      </trkpt>
      <trkpt lat="43.40828" lon="6.51229">
        <ele>267.5</ele>
        <time>2019-01-13T12:39:02Z</time>
      </trkpt>
      <trkpt lat="43.40836" lon="6.51222">
        <ele>268.9</ele>
        <time>2019-01-13T12:39:16Z</time>
      </trkpt>
      <trkpt lat="43.40836" lon="6.51209">
        <ele>270.3</ele>
        <time>2019-01-13T12:39:39Z</time>
      </trkpt>
      <trkpt lat="43.40831" lon="6.51219">
        <ele>269.6</ele>
        <time>2019-01-13T12:39:53Z</time>
      </trkpt>
      <trkpt lat="43.40823" lon="6.51226">
        <ele>268</ele>
        <time>2019-01-13T12:40:07Z</time>
      </trkpt>
      <trkpt lat="43.40814" lon="6.5122">
        <ele>267.3</ele>
        <time>2019-01-13T12:40:15Z</time>
      </trkpt>
      <trkpt lat="43.40808" lon="6.51209">
        <ele>267.4</ele>
        <time>2019-01-13T12:40:22Z</time>
      </trkpt>
      <trkpt lat="43.40805" lon="6.51196">
        <ele>267.2</ele>
        <time>2019-01-13T12:40:30Z</time>
      </trkpt>
      <trkpt lat="43.40806" lon="6.51182">
        <ele>266.7</ele>
        <time>2019-01-13T12:40:37Z</time>
      </trkpt>
      <trkpt lat="43.40804" lon="6.51169">
        <ele>265.4</ele>
        <time>2019-01-13T12:40:46Z</time>
      </trkpt>
      <trkpt lat="43.40806" lon="6.51157">
        <ele>264.6</ele>
        <time>2019-01-13T12:40:53Z</time>
      </trkpt>
      <trkpt lat="43.40805" lon="6.51144">
        <ele>264.1</ele>
        <time>2019-01-13T12:41:00Z</time>
      </trkpt>
      <trkpt lat="43.408" lon="6.51132">
        <ele>263.6</ele>
        <time>2019-01-13T12:41:06Z</time>
      </trkpt>
      <trkpt lat="43.40795" lon="6.51122">
        <ele>263</ele>
        <time>2019-01-13T12:41:12Z</time>
      </trkpt>
      <trkpt lat="43.40796" lon="6.51108">
        <ele>261.6</ele>
        <time>2019-01-13T12:41:19Z</time>
      </trkpt>
      <trkpt lat="43.408" lon="6.51097">
        <ele>260.2</ele>
        <time>2019-01-13T12:41:26Z</time>
      </trkpt>
      <trkpt lat="43.40803" lon="6.51085">
        <ele>259</ele>
        <time>2019-01-13T12:41:34Z</time>
      </trkpt>
      <trkpt lat="43.40796" lon="6.51076">
        <ele>258.6</ele>
        <time>2019-01-13T12:41:38Z</time>
      </trkpt>
      <trkpt lat="43.40791" lon="6.51066">
        <ele>257.9</ele>
        <time>2019-01-13T12:41:46Z</time>
      </trkpt>
      <trkpt lat="43.40784" lon="6.51057">
        <ele>257.7</ele>
        <time>2019-01-13T12:41:52Z</time>
      </trkpt>
      <trkpt lat="43.40776" lon="6.51048">
        <ele>257.2</ele>
        <time>2019-01-13T12:41:59Z</time>
      </trkpt>
      <trkpt lat="43.4077" lon="6.51038">
        <ele>258.5</ele>
        <time>2019-01-13T12:42:08Z</time>
      </trkpt>
      <trkpt lat="43.40765" lon="6.51027">
        <ele>259.2</ele>
        <time>2019-01-13T12:42:17Z</time>
      </trkpt>
      <trkpt lat="43.4077" lon="6.51017">
        <ele>258.7</ele>
        <time>2019-01-13T12:42:42Z</time>
      </trkpt>
      <trkpt lat="43.4078" lon="6.51019">
        <ele>259.8</ele>
        <time>2019-01-13T12:42:54Z</time>
      </trkpt>
      <trkpt lat="43.40789" lon="6.51023">
        <ele>261.6</ele>
        <time>2019-01-13T12:43:02Z</time>
      </trkpt>
      <trkpt lat="43.40797" lon="6.51019">
        <ele>263.2</ele>
        <time>2019-01-13T12:43:11Z</time>
      </trkpt>
      <trkpt lat="43.40803" lon="6.5101">
        <ele>264</ele>
        <time>2019-01-13T12:43:21Z</time>
      </trkpt>
      <trkpt lat="43.40812" lon="6.51002">
        <ele>266.2</ele>
        <time>2019-01-13T12:43:33Z</time>
      </trkpt>
      <trkpt lat="43.4082" lon="6.50996">
        <ele>268.3</ele>
        <time>2019-01-13T12:43:41Z</time>
      </trkpt>
      <trkpt lat="43.40827" lon="6.50988">
        <ele>271.1</ele>
        <time>2019-01-13T12:43:54Z</time>
      </trkpt>
      <trkpt lat="43.40834" lon="6.50979">
        <ele>273.4</ele>
        <time>2019-01-13T12:44:07Z</time>
      </trkpt>
      <trkpt lat="43.40842" lon="6.50973">
        <ele>275.1</ele>
        <time>2019-01-13T12:44:19Z</time>
      </trkpt>
      <trkpt lat="43.40851" lon="6.50968">
        <ele>275.9</ele>
        <time>2019-01-13T12:44:27Z</time>
      </trkpt>
      <trkpt lat="43.40859" lon="6.5096">
        <ele>277.7</ele>
        <time>2019-01-13T12:44:40Z</time>
      </trkpt>
      <trkpt lat="43.40865" lon="6.50952">
        <ele>279.5</ele>
        <time>2019-01-13T12:44:52Z</time>
      </trkpt>
      <trkpt lat="43.40871" lon="6.50942">
        <ele>280.2</ele>
        <time>2019-01-13T12:44:59Z</time>
      </trkpt>
      <trkpt lat="43.40877" lon="6.50932">
        <ele>280.5</ele>
        <time>2019-01-13T12:45:05Z</time>
      </trkpt>
      <trkpt lat="43.4088" lon="6.5092">
        <ele>282.1</ele>
        <time>2019-01-13T12:45:17Z</time>
      </trkpt>
      <trkpt lat="43.40885" lon="6.50909">
        <ele>282.3</ele>
        <time>2019-01-13T12:45:24Z</time>
      </trkpt>
      <trkpt lat="43.40889" lon="6.50897">
        <ele>282.3</ele>
        <time>2019-01-13T12:45:33Z</time>
      </trkpt>
      <trkpt lat="43.40888" lon="6.50884">
        <ele>282.2</ele>
        <time>2019-01-13T12:45:41Z</time>
      </trkpt>
      <trkpt lat="43.40886" lon="6.50871">
        <ele>283</ele>
        <time>2019-01-13T12:45:49Z</time>
      </trkpt>
      <trkpt lat="43.4088" lon="6.5086">
        <ele>283.7</ele>
        <time>2019-01-13T12:45:55Z</time>
      </trkpt>
      <trkpt lat="43.40878" lon="6.50847">
        <ele>283.9</ele>
        <time>2019-01-13T12:46:02Z</time>
      </trkpt>
      <trkpt lat="43.40876" lon="6.50835">
        <ele>284.4</ele>
        <time>2019-01-13T12:46:09Z</time>
      </trkpt>
      <trkpt lat="43.40872" lon="6.50823">
        <ele>284.8</ele>
        <time>2019-01-13T12:46:18Z</time>
      </trkpt>
      <trkpt lat="43.4087" lon="6.5081">
        <ele>285.7</ele>
        <time>2019-01-13T12:46:29Z</time>
      </trkpt>
      <trkpt lat="43.40867" lon="6.50797">
        <ele>288.1</ele>
        <time>2019-01-13T12:46:41Z</time>
      </trkpt>
      <trkpt lat="43.40864" lon="6.50784">
        <ele>289.7</ele>
        <time>2019-01-13T12:46:51Z</time>
      </trkpt>
      <trkpt lat="43.4087" lon="6.50773">
        <ele>291.4</ele>
        <time>2019-01-13T12:47:02Z</time>
      </trkpt>
      <trkpt lat="43.40878" lon="6.50781">
        <ele>292.9</ele>
        <time>2019-01-13T12:47:23Z</time>
      </trkpt>
      <trkpt lat="43.40884" lon="6.50791">
        <ele>293.9</ele>
        <time>2019-01-13T12:47:37Z</time>
      </trkpt>
      <trkpt lat="43.40891" lon="6.50799">
        <ele>295.3</ele>
        <time>2019-01-13T12:47:50Z</time>
      </trkpt>
      <trkpt lat="43.40898" lon="6.50807">
        <ele>295.9</ele>
        <time>2019-01-13T12:48:00Z</time>
      </trkpt>
      <trkpt lat="43.40906" lon="6.50815">
        <ele>297.1</ele>
        <time>2019-01-13T12:48:11Z</time>
      </trkpt>
      <trkpt lat="43.40914" lon="6.50821">
        <ele>298.9</ele>
        <time>2019-01-13T12:48:20Z</time>
      </trkpt>
      <trkpt lat="43.40921" lon="6.5083">
        <ele>300.9</ele>
        <time>2019-01-13T12:48:33Z</time>
      </trkpt>
      <trkpt lat="43.40927" lon="6.50839">
        <ele>302.8</ele>
        <time>2019-01-13T12:48:45Z</time>
      </trkpt>
      <trkpt lat="43.40934" lon="6.50847">
        <ele>304.6</ele>
        <time>2019-01-13T12:48:56Z</time>
      </trkpt>
      <trkpt lat="43.40941" lon="6.50857">
        <ele>308.4</ele>
        <time>2019-01-13T12:49:11Z</time>
      </trkpt>
      <trkpt lat="43.40947" lon="6.50867">
        <ele>310.4</ele>
        <time>2019-01-13T12:49:23Z</time>
      </trkpt>
      <trkpt lat="43.40954" lon="6.50876">
        <ele>313.8</ele>
        <time>2019-01-13T12:49:38Z</time>
      </trkpt>
      <trkpt lat="43.40962" lon="6.50883">
        <ele>316.1</ele>
        <time>2019-01-13T12:49:49Z</time>
      </trkpt>
      <trkpt lat="43.40967" lon="6.50894">
        <ele>320.5</ele>
        <time>2019-01-13T12:50:10Z</time>
      </trkpt>
      <trkpt lat="43.40972" lon="6.50904">
        <ele>322.5</ele>
        <time>2019-01-13T12:50:22Z</time>
      </trkpt>
      <trkpt lat="43.40977" lon="6.50915">
        <ele>324.5</ele>
        <time>2019-01-13T12:50:37Z</time>
      </trkpt>
      <trkpt lat="43.40981" lon="6.50927">
        <ele>326.7</ele>
        <time>2019-01-13T12:50:51Z</time>
      </trkpt>
      <trkpt lat="43.40985" lon="6.50939">
        <ele>329</ele>
        <time>2019-01-13T12:51:03Z</time>
      </trkpt>
      <trkpt lat="43.4099" lon="6.50949">
        <ele>331</ele>
        <time>2019-01-13T12:51:14Z</time>
      </trkpt>
      <trkpt lat="43.40996" lon="6.5096">
        <ele>332.8</ele>
        <time>2019-01-13T12:51:24Z</time>
      </trkpt>
      <trkpt lat="43.41002" lon="6.50971">
        <ele>334.5</ele>
        <time>2019-01-13T12:51:35Z</time>
      </trkpt>
      <trkpt lat="43.41006" lon="6.50982">
        <ele>336.6</ele>
        <time>2019-01-13T12:51:46Z</time>
      </trkpt>
      <trkpt lat="43.41014" lon="6.5099">
        <ele>338.3</ele>
        <time>2019-01-13T12:51:55Z</time>
      </trkpt>
      <trkpt lat="43.41023" lon="6.50993">
        <ele>339.3</ele>
        <time>2019-01-13T12:52:03Z</time>
      </trkpt>
      <trkpt lat="43.41032" lon="6.50994">
        <ele>340.1</ele>
        <time>2019-01-13T12:52:13Z</time>
      </trkpt>
      <trkpt lat="43.41042" lon="6.50995">
        <ele>340.7</ele>
        <time>2019-01-13T12:52:24Z</time>
      </trkpt>
      <trkpt lat="43.41052" lon="6.50997">
        <ele>341.6</ele>
        <time>2019-01-13T12:52:35Z</time>
      </trkpt>
      <trkpt lat="43.41062" lon="6.50996">
        <ele>342.7</ele>
        <time>2019-01-13T12:52:45Z</time>
      </trkpt>
      <trkpt lat="43.41071" lon="6.50998">
        <ele>343.5</ele>
        <time>2019-01-13T12:52:53Z</time>
      </trkpt>
      <trkpt lat="43.41081" lon="6.51">
        <ele>344.6</ele>
        <time>2019-01-13T12:53:04Z</time>
      </trkpt>
      <trkpt lat="43.4109" lon="6.51004">
        <ele>345.3</ele>
        <time>2019-01-13T12:53:14Z</time>
      </trkpt>
      <trkpt lat="43.411" lon="6.51003">
        <ele>346.4</ele>
        <time>2019-01-13T12:53:23Z</time>
      </trkpt>
      <trkpt lat="43.4111" lon="6.51004">
        <ele>347.5</ele>
        <time>2019-01-13T12:53:34Z</time>
      </trkpt>
      <trkpt lat="43.41119" lon="6.51009">
        <ele>349.7</ele>
        <time>2019-01-13T12:53:46Z</time>
      </trkpt>
      <trkpt lat="43.41128" lon="6.5101">
        <ele>351.5</ele>
        <time>2019-01-13T12:53:59Z</time>
      </trkpt>
      <trkpt lat="43.41136" lon="6.51004">
        <ele>353.2</ele>
        <time>2019-01-13T12:54:08Z</time>
      </trkpt>
      <trkpt lat="43.41145" lon="6.51002">
        <ele>354.1</ele>
        <time>2019-01-13T12:54:17Z</time>
      </trkpt>
      <trkpt lat="43.41152" lon="6.51011">
        <ele>354.8</ele>
        <time>2019-01-13T12:54:27Z</time>
      </trkpt>
      <trkpt lat="43.41161" lon="6.51016">
        <ele>354.9</ele>
        <time>2019-01-13T12:54:36Z</time>
      </trkpt>
      <trkpt lat="43.4117" lon="6.51015">
        <ele>355.6</ele>
        <time>2019-01-13T12:54:46Z</time>
      </trkpt>
      <trkpt lat="43.41179" lon="6.51019">
        <ele>356.7</ele>
        <time>2019-01-13T12:55:05Z</time>
      </trkpt>
      <trkpt lat="43.41189" lon="6.51018">
        <ele>357.9</ele>
        <time>2019-01-13T12:55:35Z</time>
      </trkpt>
      <trkpt lat="43.41193" lon="6.51007">
        <ele>359</ele>
        <time>2019-01-13T12:56:06Z</time>
      </trkpt>
      <trkpt lat="43.41186" lon="6.51015">
        <ele>359.5</ele>
        <time>2019-01-13T12:56:46Z</time>
      </trkpt>
      <trkpt lat="43.41195" lon="6.51016">
        <ele>359.2</ele>
        <time>2019-01-13T13:01:05Z</time>
      </trkpt>
      <trkpt lat="43.41204" lon="6.5102">
        <ele>358.6</ele>
        <time>2019-01-13T13:01:15Z</time>
      </trkpt>
      <trkpt lat="43.41213" lon="6.51026">
        <ele>359.1</ele>
        <time>2019-01-13T13:01:25Z</time>
      </trkpt>
      <trkpt lat="43.41224" lon="6.51029">
        <ele>359.4</ele>
        <time>2019-01-13T13:01:36Z</time>
      </trkpt>
      <trkpt lat="43.41233" lon="6.51031">
        <ele>359.4</ele>
        <time>2019-01-13T13:01:46Z</time>
      </trkpt>
      <trkpt lat="43.41242" lon="6.51031">
        <ele>359.7</ele>
        <time>2019-01-13T13:01:56Z</time>
      </trkpt>
      <trkpt lat="43.41252" lon="6.51028">
        <ele>359</ele>
        <time>2019-01-13T13:02:06Z</time>
      </trkpt>
      <trkpt lat="43.41262" lon="6.51025">
        <ele>357.8</ele>
        <time>2019-01-13T13:02:15Z</time>
      </trkpt>
      <trkpt lat="43.41271" lon="6.51023">
        <ele>357.1</ele>
        <time>2019-01-13T13:02:24Z</time>
      </trkpt>
      <trkpt lat="43.41281" lon="6.51019">
        <ele>356.4</ele>
        <time>2019-01-13T13:02:33Z</time>
      </trkpt>
      <trkpt lat="43.4129" lon="6.51016">
        <ele>356.3</ele>
        <time>2019-01-13T13:02:42Z</time>
      </trkpt>
      <trkpt lat="43.41299" lon="6.51011">
        <ele>356.1</ele>
        <time>2019-01-13T13:02:51Z</time>
      </trkpt>
      <trkpt lat="43.41308" lon="6.51007">
        <ele>355.5</ele>
        <time>2019-01-13T13:02:59Z</time>
      </trkpt>
      <trkpt lat="43.41317" lon="6.51001">
        <ele>355.4</ele>
        <time>2019-01-13T13:03:08Z</time>
      </trkpt>
      <trkpt lat="43.41324" lon="6.50994">
        <ele>355.2</ele>
        <time>2019-01-13T13:03:18Z</time>
      </trkpt>
      <trkpt lat="43.41332" lon="6.50988">
        <ele>354.9</ele>
        <time>2019-01-13T13:03:27Z</time>
      </trkpt>
      <trkpt lat="43.41341" lon="6.50982">
        <ele>354.3</ele>
        <time>2019-01-13T13:03:35Z</time>
      </trkpt>
      <trkpt lat="43.41348" lon="6.50973">
        <ele>353.2</ele>
        <time>2019-01-13T13:03:45Z</time>
      </trkpt>
      <trkpt lat="43.41355" lon="6.50965">
        <ele>352.1</ele>
        <time>2019-01-13T13:03:53Z</time>
      </trkpt>
      <trkpt lat="43.41361" lon="6.50955">
        <ele>351.7</ele>
        <time>2019-01-13T13:04:02Z</time>
      </trkpt>
      <trkpt lat="43.41363" lon="6.50942">
        <ele>351.4</ele>
        <time>2019-01-13T13:04:11Z</time>
      </trkpt>
      <trkpt lat="43.41365" lon="6.5093">
        <ele>350.4</ele>
        <time>2019-01-13T13:04:19Z</time>
      </trkpt>
      <trkpt lat="43.41369" lon="6.50918">
        <ele>349.1</ele>
        <time>2019-01-13T13:04:28Z</time>
      </trkpt>
      <trkpt lat="43.41376" lon="6.50908">
        <ele>348.3</ele>
        <time>2019-01-13T13:04:36Z</time>
      </trkpt>
      <trkpt lat="43.41382" lon="6.50898">
        <ele>347.6</ele>
        <time>2019-01-13T13:04:45Z</time>
      </trkpt>
      <trkpt lat="43.41387" lon="6.50887">
        <ele>345.6</ele>
        <time>2019-01-13T13:04:56Z</time>
      </trkpt>
      <trkpt lat="43.41393" lon="6.50876">
        <ele>344.4</ele>
        <time>2019-01-13T13:05:07Z</time>
      </trkpt>
      <trkpt lat="43.414" lon="6.50868">
        <ele>343.1</ele>
        <time>2019-01-13T13:05:16Z</time>
      </trkpt>
      <trkpt lat="43.41407" lon="6.5086">
        <ele>341.7</ele>
        <time>2019-01-13T13:05:26Z</time>
      </trkpt>
      <trkpt lat="43.41414" lon="6.5085">
        <ele>340.5</ele>
        <time>2019-01-13T13:05:37Z</time>
      </trkpt>
      <trkpt lat="43.41422" lon="6.50842">
        <ele>338.9</ele>
        <time>2019-01-13T13:05:47Z</time>
      </trkpt>
      <trkpt lat="43.4143" lon="6.50836">
        <ele>336.8</ele>
        <time>2019-01-13T13:05:59Z</time>
      </trkpt>
      <trkpt lat="43.41439" lon="6.5083">
        <ele>335.1</ele>
        <time>2019-01-13T13:06:10Z</time>
      </trkpt>
      <trkpt lat="43.41447" lon="6.50825">
        <ele>332.9</ele>
        <time>2019-01-13T13:06:21Z</time>
      </trkpt>
      <trkpt lat="43.41456" lon="6.5082">
        <ele>331.2</ele>
        <time>2019-01-13T13:06:30Z</time>
      </trkpt>
      <trkpt lat="43.41464" lon="6.50813">
        <ele>329.5</ele>
        <time>2019-01-13T13:06:41Z</time>
      </trkpt>
      <trkpt lat="43.41473" lon="6.50806">
        <ele>327.5</ele>
        <time>2019-01-13T13:06:52Z</time>
      </trkpt>
      <trkpt lat="43.41482" lon="6.50801">
        <ele>326.1</ele>
        <time>2019-01-13T13:07:04Z</time>
      </trkpt>
      <trkpt lat="43.4149" lon="6.50794">
        <ele>325.9</ele>
        <time>2019-01-13T13:07:14Z</time>
      </trkpt>
      <trkpt lat="43.41499" lon="6.50788">
        <ele>325</ele>
        <time>2019-01-13T13:07:24Z</time>
      </trkpt>
      <trkpt lat="43.41508" lon="6.50784">
        <ele>324.4</ele>
        <time>2019-01-13T13:07:32Z</time>
      </trkpt>
      <trkpt lat="43.41516" lon="6.50777">
        <ele>324.2</ele>
        <time>2019-01-13T13:07:43Z</time>
      </trkpt>
      <trkpt lat="43.41525" lon="6.50772">
        <ele>323.6</ele>
        <time>2019-01-13T13:07:52Z</time>
      </trkpt>
      <trkpt lat="43.41534" lon="6.50769">
        <ele>322.4</ele>
        <time>2019-01-13T13:08:01Z</time>
      </trkpt>
      <trkpt lat="43.41544" lon="6.50768">
        <ele>321.7</ele>
        <time>2019-01-13T13:09:53Z</time>
      </trkpt>
      <trkpt lat="43.4155" lon="6.50758">
        <ele>321.7</ele>
        <time>2019-01-13T13:12:51Z</time>
      </trkpt>
      <trkpt lat="43.41558" lon="6.50751">
        <ele>320.6</ele>
        <time>2019-01-13T13:13:00Z</time>
      </trkpt>
      <trkpt lat="43.41566" lon="6.50744">
        <ele>320</ele>
        <time>2019-01-13T13:13:07Z</time>
      </trkpt>
      <trkpt lat="43.41573" lon="6.50735">
        <ele>318.8</ele>
        <time>2019-01-13T13:13:16Z</time>
      </trkpt>
      <trkpt lat="43.41579" lon="6.50726">
        <ele>317.9</ele>
        <time>2019-01-13T13:13:23Z</time>
      </trkpt>
      <trkpt lat="43.41587" lon="6.50717">
        <ele>316.4</ele>
        <time>2019-01-13T13:13:31Z</time>
      </trkpt>
      <trkpt lat="43.41595" lon="6.50711">
        <ele>314.6</ele>
        <time>2019-01-13T13:13:38Z</time>
      </trkpt>
      <trkpt lat="43.41603" lon="6.50704">
        <ele>312.6</ele>
        <time>2019-01-13T13:13:45Z</time>
      </trkpt>
      <trkpt lat="43.41611" lon="6.50698">
        <ele>311</ele>
        <time>2019-01-13T13:13:52Z</time>
      </trkpt>
      <trkpt lat="43.4162" lon="6.50692">
        <ele>308.9</ele>
        <time>2019-01-13T13:14:00Z</time>
      </trkpt>
      <trkpt lat="43.41628" lon="6.50686">
        <ele>307.6</ele>
        <time>2019-01-13T13:14:08Z</time>
      </trkpt>
      <trkpt lat="43.41636" lon="6.5068">
        <ele>305.1</ele>
        <time>2019-01-13T13:14:15Z</time>
      </trkpt>
      <trkpt lat="43.41644" lon="6.50674">
        <ele>302.6</ele>
        <time>2019-01-13T13:14:24Z</time>
      </trkpt>
      <trkpt lat="43.41652" lon="6.50667">
        <ele>299.9</ele>
        <time>2019-01-13T13:14:35Z</time>
      </trkpt>
      <trkpt lat="43.4166" lon="6.50661">
        <ele>297.4</ele>
        <time>2019-01-13T13:14:44Z</time>
      </trkpt>
      <trkpt lat="43.41668" lon="6.50653">
        <ele>296.4</ele>
        <time>2019-01-13T13:14:53Z</time>
      </trkpt>
      <trkpt lat="43.41676" lon="6.50647">
        <ele>294.9</ele>
        <time>2019-01-13T13:15:01Z</time>
      </trkpt>
      <trkpt lat="43.41685" lon="6.50642">
        <ele>293.6</ele>
        <time>2019-01-13T13:15:09Z</time>
      </trkpt>
      <trkpt lat="43.41692" lon="6.50634">
        <ele>291.8</ele>
        <time>2019-01-13T13:15:19Z</time>
      </trkpt>
      <trkpt lat="43.417" lon="6.50625">
        <ele>290.7</ele>
        <time>2019-01-13T13:15:28Z</time>
      </trkpt>
      <trkpt lat="43.41708" lon="6.50617">
        <ele>290.8</ele>
        <time>2019-01-13T13:15:36Z</time>
      </trkpt>
      <trkpt lat="43.41716" lon="6.50611">
        <ele>289.4</ele>
        <time>2019-01-13T13:15:44Z</time>
      </trkpt>
      <trkpt lat="43.41724" lon="6.50604">
        <ele>287.9</ele>
        <time>2019-01-13T13:15:53Z</time>
      </trkpt>
      <trkpt lat="43.41733" lon="6.50598">
        <ele>287.2</ele>
        <time>2019-01-13T13:16:00Z</time>
      </trkpt>
      <trkpt lat="43.41742" lon="6.50592">
        <ele>287</ele>
        <time>2019-01-13T13:16:08Z</time>
      </trkpt>
      <trkpt lat="43.41749" lon="6.50583">
        <ele>286.3</ele>
        <time>2019-01-13T13:16:17Z</time>
      </trkpt>
      <trkpt lat="43.41758" lon="6.50578">
        <ele>286</ele>
        <time>2019-01-13T13:16:24Z</time>
      </trkpt>
      <trkpt lat="43.41766" lon="6.50571">
        <ele>286.5</ele>
        <time>2019-01-13T13:16:32Z</time>
      </trkpt>
      <trkpt lat="43.41774" lon="6.50566">
        <ele>286.4</ele>
        <time>2019-01-13T13:16:40Z</time>
      </trkpt>
      <trkpt lat="43.41783" lon="6.50561">
        <ele>285.8</ele>
        <time>2019-01-13T13:16:52Z</time>
      </trkpt>
      <trkpt lat="43.41793" lon="6.50558">
        <ele>285.3</ele>
        <time>2019-01-13T13:17:01Z</time>
      </trkpt>
      <trkpt lat="43.41803" lon="6.50557">
        <ele>285.1</ele>
        <time>2019-01-13T13:17:11Z</time>
      </trkpt>
      <trkpt lat="43.41813" lon="6.50558">
        <ele>284.7</ele>
        <time>2019-01-13T13:17:19Z</time>
      </trkpt>
      <trkpt lat="43.41822" lon="6.50561">
        <ele>283.4</ele>
        <time>2019-01-13T13:17:27Z</time>
      </trkpt>
      <trkpt lat="43.41832" lon="6.50564">
        <ele>282.4</ele>
        <time>2019-01-13T13:17:36Z</time>
      </trkpt>
      <trkpt lat="43.41841" lon="6.50568">
        <ele>282.1</ele>
        <time>2019-01-13T13:17:44Z</time>
      </trkpt>
      <trkpt lat="43.4185" lon="6.50573">
        <ele>281.4</ele>
        <time>2019-01-13T13:17:52Z</time>
      </trkpt>
      <trkpt lat="43.41858" lon="6.50577">
        <ele>280.4</ele>
        <time>2019-01-13T13:18:01Z</time>
      </trkpt>
      <trkpt lat="43.41867" lon="6.50581">
        <ele>279.8</ele>
        <time>2019-01-13T13:18:09Z</time>
      </trkpt>
      <trkpt lat="43.41876" lon="6.50584">
        <ele>278.9</ele>
        <time>2019-01-13T13:18:17Z</time>
      </trkpt>
      <trkpt lat="43.41884" lon="6.50589">
        <ele>278.1</ele>
        <time>2019-01-13T13:18:25Z</time>
      </trkpt>
      <trkpt lat="43.41893" lon="6.50596">
        <ele>276.9</ele>
        <time>2019-01-13T13:19:51Z</time>
      </trkpt>
      <trkpt lat="43.41903" lon="6.506">
        <ele>276.6</ele>
        <time>2019-01-13T13:19:58Z</time>
      </trkpt>
      <trkpt lat="43.41912" lon="6.50604">
        <ele>276.1</ele>
        <time>2019-01-13T13:20:06Z</time>
      </trkpt>
      <trkpt lat="43.41922" lon="6.50606">
        <ele>275.9</ele>
        <time>2019-01-13T13:20:13Z</time>
      </trkpt>
      <trkpt lat="43.4193" lon="6.50607">
        <ele>275.7</ele>
        <time>2019-01-13T13:20:21Z</time>
      </trkpt>
      <trkpt lat="43.4194" lon="6.50609">
        <ele>275.4</ele>
        <time>2019-01-13T13:20:29Z</time>
      </trkpt>
      <trkpt lat="43.41949" lon="6.50612">
        <ele>275</ele>
        <time>2019-01-13T13:20:38Z</time>
      </trkpt>
      <trkpt lat="43.41959" lon="6.50614">
        <ele>274.8</ele>
        <time>2019-01-13T13:20:46Z</time>
      </trkpt>
      <trkpt lat="43.41968" lon="6.50615">
        <ele>275</ele>
        <time>2019-01-13T13:20:55Z</time>
      </trkpt>
      <trkpt lat="43.41978" lon="6.50614">
        <ele>275</ele>
        <time>2019-01-13T13:21:05Z</time>
      </trkpt>
      <trkpt lat="43.41987" lon="6.50609">
        <ele>275.4</ele>
        <time>2019-01-13T13:21:15Z</time>
      </trkpt>
      <trkpt lat="43.41996" lon="6.50605">
        <ele>275.1</ele>
        <time>2019-01-13T13:21:53Z</time>
      </trkpt>
      <trkpt lat="43.42006" lon="6.50602">
        <ele>275.8</ele>
        <time>2019-01-13T13:22:03Z</time>
      </trkpt>
      <trkpt lat="43.42014" lon="6.50598">
        <ele>276</ele>
        <time>2019-01-13T13:22:10Z</time>
      </trkpt>
      <trkpt lat="43.42023" lon="6.50593">
        <ele>275.9</ele>
        <time>2019-01-13T13:22:19Z</time>
      </trkpt>
      <trkpt lat="43.42032" lon="6.50587">
        <ele>275.1</ele>
        <time>2019-01-13T13:22:28Z</time>
      </trkpt>
      <trkpt lat="43.4204" lon="6.50584">
        <ele>274.6</ele>
        <time>2019-01-13T13:22:40Z</time>
      </trkpt>
      <trkpt lat="43.4205" lon="6.50582">
        <ele>273.2</ele>
        <time>2019-01-13T13:22:53Z</time>
      </trkpt>
      <trkpt lat="43.42059" lon="6.50582">
        <ele>271.9</ele>
        <time>2019-01-13T13:23:01Z</time>
      </trkpt>
      <trkpt lat="43.42069" lon="6.50581">
        <ele>271.3</ele>
        <time>2019-01-13T13:23:11Z</time>
      </trkpt>
      <trkpt lat="43.42078" lon="6.50574">
        <ele>270.6</ele>
        <time>2019-01-13T13:23:22Z</time>
      </trkpt>
      <trkpt lat="43.42085" lon="6.50564">
        <ele>270.2</ele>
        <time>2019-01-13T13:23:31Z</time>
      </trkpt>
      <trkpt lat="43.4209" lon="6.50552">
        <ele>270.6</ele>
        <time>2019-01-13T13:23:41Z</time>
      </trkpt>
      <trkpt lat="43.42098" lon="6.50545">
        <ele>270.4</ele>
        <time>2019-01-13T13:23:50Z</time>
      </trkpt>
      <trkpt lat="43.42107" lon="6.50537">
        <ele>270.3</ele>
        <time>2019-01-13T13:23:59Z</time>
      </trkpt>
      <trkpt lat="43.42113" lon="6.50528">
        <ele>269.2</ele>
        <time>2019-01-13T13:24:09Z</time>
      </trkpt>
      <trkpt lat="43.42115" lon="6.50514">
        <ele>268.5</ele>
        <time>2019-01-13T13:24:19Z</time>
      </trkpt>
      <trkpt lat="43.42116" lon="6.505">
        <ele>267.5</ele>
        <time>2019-01-13T13:24:27Z</time>
      </trkpt>
      <trkpt lat="43.42115" lon="6.50488">
        <ele>267</ele>
        <time>2019-01-13T13:24:34Z</time>
      </trkpt>
      <trkpt lat="43.42114" lon="6.50474">
        <ele>266.8</ele>
        <time>2019-01-13T13:24:42Z</time>
      </trkpt>
      <trkpt lat="43.42115" lon="6.50461">
        <ele>266.4</ele>
        <time>2019-01-13T13:24:50Z</time>
      </trkpt>
      <trkpt lat="43.42115" lon="6.50447">
        <ele>266.1</ele>
        <time>2019-01-13T13:24:59Z</time>
      </trkpt>
      <trkpt lat="43.42115" lon="6.50434">
        <ele>265.3</ele>
        <time>2019-01-13T13:25:07Z</time>
      </trkpt>
      <trkpt lat="43.42114" lon="6.50422">
        <ele>264.2</ele>
        <time>2019-01-13T13:25:16Z</time>
      </trkpt>
      <trkpt lat="43.42111" lon="6.5041">
        <ele>263.2</ele>
        <time>2019-01-13T13:25:23Z</time>
      </trkpt>
      <trkpt lat="43.42107" lon="6.50398">
        <ele>261.7</ele>
        <time>2019-01-13T13:25:32Z</time>
      </trkpt>
      <trkpt lat="43.42102" lon="6.50387">
        <ele>259.9</ele>
        <time>2019-01-13T13:25:41Z</time>
      </trkpt>
      <trkpt lat="43.42095" lon="6.50378">
        <ele>258.4</ele>
        <time>2019-01-13T13:25:49Z</time>
      </trkpt>
      <trkpt lat="43.4209" lon="6.50368">
        <ele>255.9</ele>
        <time>2019-01-13T13:26:04Z</time>
      </trkpt>
      <trkpt lat="43.42085" lon="6.50357">
        <ele>254.4</ele>
        <time>2019-01-13T13:26:12Z</time>
      </trkpt>
      <trkpt lat="43.42078" lon="6.50348">
        <ele>253</ele>
        <time>2019-01-13T13:26:21Z</time>
      </trkpt>
      <trkpt lat="43.42072" lon="6.50338">
        <ele>251.5</ele>
        <time>2019-01-13T13:26:29Z</time>
      </trkpt>
      <trkpt lat="43.42063" lon="6.50333">
        <ele>251.2</ele>
        <time>2019-01-13T13:26:37Z</time>
      </trkpt>
      <trkpt lat="43.42057" lon="6.50324">
        <ele>250</ele>
        <time>2019-01-13T13:26:46Z</time>
      </trkpt>
      <trkpt lat="43.4206" lon="6.50311">
        <ele>247</ele>
        <time>2019-01-13T13:30:04Z</time>
      </trkpt>
      <trkpt lat="43.42051" lon="6.50309">
        <ele>247.3</ele>
        <time>2019-01-13T13:30:22Z</time>
      </trkpt>
      <trkpt lat="43.42047" lon="6.50297">
        <ele>246.7</ele>
        <time>2019-01-13T13:30:30Z</time>
      </trkpt>
      <trkpt lat="43.42041" lon="6.50287">
        <ele>245.6</ele>
        <time>2019-01-13T13:30:38Z</time>
      </trkpt>
      <trkpt lat="43.42036" lon="6.50277">
        <ele>243.7</ele>
        <time>2019-01-13T13:30:47Z</time>
      </trkpt>
      <trkpt lat="43.42029" lon="6.50268">
        <ele>242.4</ele>
        <time>2019-01-13T13:30:53Z</time>
      </trkpt>
      <trkpt lat="43.42022" lon="6.50257">
        <ele>240.3</ele>
        <time>2019-01-13T13:31:01Z</time>
      </trkpt>
      <trkpt lat="43.42015" lon="6.50248">
        <ele>238.7</ele>
        <time>2019-01-13T13:31:08Z</time>
      </trkpt>
      <trkpt lat="43.42012" lon="6.50236">
        <ele>238.3</ele>
        <time>2019-01-13T13:31:15Z</time>
      </trkpt>
      <trkpt lat="43.42006" lon="6.50224">
        <ele>238.1</ele>
        <time>2019-01-13T13:31:21Z</time>
      </trkpt>
      <trkpt lat="43.42" lon="6.50213">
        <ele>237.5</ele>
        <time>2019-01-13T13:31:25Z</time>
      </trkpt>
      <trkpt lat="43.41994" lon="6.50202">
        <ele>235.8</ele>
        <time>2019-01-13T13:31:29Z</time>
      </trkpt>
      <trkpt lat="43.4199" lon="6.50191">
        <ele>233.7</ele>
        <time>2019-01-13T13:31:33Z</time>
      </trkpt>
      <trkpt lat="43.41984" lon="6.50179">
        <ele>232</ele>
        <time>2019-01-13T13:31:38Z</time>
      </trkpt>
      <trkpt lat="43.4198" lon="6.50166">
        <ele>228.9</ele>
        <time>2019-01-13T13:31:44Z</time>
      </trkpt>
      <trkpt lat="43.41974" lon="6.50154">
        <ele>226.3</ele>
        <time>2019-01-13T13:31:49Z</time>
      </trkpt>
      <trkpt lat="43.41972" lon="6.50141">
        <ele>222.1</ele>
        <time>2019-01-13T13:31:55Z</time>
      </trkpt>
      <trkpt lat="43.41971" lon="6.50128">
        <ele>220.1</ele>
        <time>2019-01-13T13:32:00Z</time>
      </trkpt>
      <trkpt lat="43.41965" lon="6.50119">
        <ele>218.9</ele>
        <time>2019-01-13T13:32:05Z</time>
      </trkpt>
      <trkpt lat="43.4196" lon="6.50106">
        <ele>218.1</ele>
        <time>2019-01-13T13:32:13Z</time>
      </trkpt>
      <trkpt lat="43.41953" lon="6.50097">
        <ele>217.7</ele>
        <time>2019-01-13T13:32:20Z</time>
      </trkpt>
      <trkpt lat="43.41944" lon="6.50092">
        <ele>217.2</ele>
        <time>2019-01-13T13:32:30Z</time>
      </trkpt>
      <trkpt lat="43.41935" lon="6.50088">
        <ele>216.9</ele>
        <time>2019-01-13T13:32:38Z</time>
      </trkpt>
      <trkpt lat="43.41926" lon="6.50084">
        <ele>217.2</ele>
        <time>2019-01-13T13:32:46Z</time>
      </trkpt>
      <trkpt lat="43.41916" lon="6.50081">
        <ele>216.9</ele>
        <time>2019-01-13T13:32:53Z</time>
      </trkpt>
      <trkpt lat="43.41907" lon="6.50075">
        <ele>217</ele>
        <time>2019-01-13T13:33:00Z</time>
      </trkpt>
      <trkpt lat="43.41899" lon="6.50068">
        <ele>216.8</ele>
        <time>2019-01-13T13:33:08Z</time>
      </trkpt>
      <trkpt lat="43.41891" lon="6.50061">
        <ele>216.4</ele>
        <time>2019-01-13T13:33:16Z</time>
      </trkpt>
      <trkpt lat="43.41882" lon="6.50057">
        <ele>216.3</ele>
        <time>2019-01-13T13:33:23Z</time>
      </trkpt>
      <trkpt lat="43.41873" lon="6.50052">
        <ele>216.1</ele>
        <time>2019-01-13T13:33:33Z</time>
      </trkpt>
      <trkpt lat="43.41867" lon="6.50042">
        <ele>216.1</ele>
        <time>2019-01-13T13:33:40Z</time>
      </trkpt>
      <trkpt lat="43.41859" lon="6.50034">
        <ele>215.8</ele>
        <time>2019-01-13T13:33:48Z</time>
      </trkpt>
      <trkpt lat="43.41852" lon="6.50026">
        <ele>215.7</ele>
        <time>2019-01-13T13:33:55Z</time>
      </trkpt>
      <trkpt lat="43.41847" lon="6.50015">
        <ele>215.4</ele>
        <time>2019-01-13T13:34:03Z</time>
      </trkpt>
      <trkpt lat="43.41841" lon="6.50005">
        <ele>215.3</ele>
        <time>2019-01-13T13:34:12Z</time>
      </trkpt>
      <trkpt lat="43.41835" lon="6.49995">
        <ele>215.2</ele>
        <time>2019-01-13T13:34:19Z</time>
      </trkpt>
      <trkpt lat="43.4183" lon="6.49985">
        <ele>215</ele>
        <time>2019-01-13T13:34:27Z</time>
      </trkpt>
      <trkpt lat="43.41825" lon="6.49974">
        <ele>214.8</ele>
        <time>2019-01-13T13:34:33Z</time>
      </trkpt>
      <trkpt lat="43.41822" lon="6.49962">
        <ele>214.3</ele>
        <time>2019-01-13T13:34:41Z</time>
      </trkpt>
      <trkpt lat="43.41817" lon="6.4995">
        <ele>214</ele>
        <time>2019-01-13T13:34:50Z</time>
      </trkpt>
      <trkpt lat="43.41816" lon="6.49938">
        <ele>214.1</ele>
        <time>2019-01-13T13:34:58Z</time>
      </trkpt>
      <trkpt lat="43.41818" lon="6.49925">
        <ele>214</ele>
        <time>2019-01-13T13:35:07Z</time>
      </trkpt>
      <trkpt lat="43.41821" lon="6.49913">
        <ele>213.4</ele>
        <time>2019-01-13T13:35:14Z</time>
      </trkpt>
      <trkpt lat="43.41819" lon="6.49899">
        <ele>212.6</ele>
        <time>2019-01-13T13:35:22Z</time>
      </trkpt>
      <trkpt lat="43.41815" lon="6.49887">
        <ele>212.1</ele>
        <time>2019-01-13T13:35:27Z</time>
      </trkpt>
      <trkpt lat="43.41808" lon="6.49876">
        <ele>210.9</ele>
        <time>2019-01-13T13:35:34Z</time>
      </trkpt>
      <trkpt lat="43.41801" lon="6.49865">
        <ele>210.4</ele>
        <time>2019-01-13T13:35:42Z</time>
      </trkpt>
      <trkpt lat="43.41795" lon="6.49856">
        <ele>210.2</ele>
        <time>2019-01-13T13:35:48Z</time>
      </trkpt>
      <trkpt lat="43.41789" lon="6.49846">
        <ele>209.5</ele>
        <time>2019-01-13T13:35:55Z</time>
      </trkpt>
      <trkpt lat="43.41782" lon="6.49836">
        <ele>209</ele>
        <time>2019-01-13T13:36:03Z</time>
      </trkpt>
      <trkpt lat="43.41776" lon="6.49827">
        <ele>208.4</ele>
        <time>2019-01-13T13:36:11Z</time>
      </trkpt>
      <trkpt lat="43.41769" lon="6.49815">
        <ele>207.5</ele>
        <time>2019-01-13T13:36:20Z</time>
      </trkpt>
      <trkpt lat="43.41763" lon="6.49806">
        <ele>207</ele>
        <time>2019-01-13T13:36:27Z</time>
      </trkpt>
      <trkpt lat="43.41757" lon="6.49796">
        <ele>206.2</ele>
        <time>2019-01-13T13:36:35Z</time>
      </trkpt>
      <trkpt lat="43.4175" lon="6.49787">
        <ele>205.5</ele>
        <time>2019-01-13T13:36:44Z</time>
      </trkpt>
      <trkpt lat="43.41744" lon="6.49777">
        <ele>204.7</ele>
        <time>2019-01-13T13:36:53Z</time>
      </trkpt>
      <trkpt lat="43.41737" lon="6.49767">
        <ele>204</ele>
        <time>2019-01-13T13:37:01Z</time>
      </trkpt>
      <trkpt lat="43.41731" lon="6.49757">
        <ele>203.4</ele>
        <time>2019-01-13T13:37:08Z</time>
      </trkpt>
      <trkpt lat="43.41724" lon="6.49749">
        <ele>202.6</ele>
        <time>2019-01-13T13:37:16Z</time>
      </trkpt>
      <trkpt lat="43.4172" lon="6.49736">
        <ele>201.5</ele>
        <time>2019-01-13T13:37:25Z</time>
      </trkpt>
      <trkpt lat="43.4172" lon="6.49723">
        <ele>200.4</ele>
        <time>2019-01-13T13:37:35Z</time>
      </trkpt>
      <trkpt lat="43.41722" lon="6.49711">
        <ele>199.7</ele>
        <time>2019-01-13T13:37:44Z</time>
      </trkpt>
      <trkpt lat="43.41725" lon="6.49699">
        <ele>199.5</ele>
        <time>2019-01-13T13:37:51Z</time>
      </trkpt>
      <trkpt lat="43.41725" lon="6.49686">
        <ele>199.2</ele>
        <time>2019-01-13T13:38:00Z</time>
      </trkpt>
      <trkpt lat="43.41731" lon="6.49674">
        <ele>198.6</ele>
        <time>2019-01-13T13:38:07Z</time>
      </trkpt>
      <trkpt lat="43.4174" lon="6.49671">
        <ele>197.7</ele>
        <time>2019-01-13T13:38:15Z</time>
      </trkpt>
      <trkpt lat="43.41749" lon="6.49674">
        <ele>197.4</ele>
        <time>2019-01-13T13:38:22Z</time>
      </trkpt>
      <trkpt lat="43.41757" lon="6.49681">
        <ele>196.5</ele>
        <time>2019-01-13T13:38:33Z</time>
      </trkpt>
      <trkpt lat="43.41765" lon="6.49689">
        <ele>196</ele>
        <time>2019-01-13T13:38:42Z</time>
      </trkpt>
      <trkpt lat="43.4177" lon="6.497">
        <ele>195.5</ele>
        <time>2019-01-13T13:38:51Z</time>
      </trkpt>
      <trkpt lat="43.41776" lon="6.4971">
        <ele>195.1</ele>
        <time>2019-01-13T13:39:00Z</time>
      </trkpt>
      <trkpt lat="43.41784" lon="6.49716">
        <ele>195.2</ele>
        <time>2019-01-13T13:39:07Z</time>
      </trkpt>
      <trkpt lat="43.41793" lon="6.49723">
        <ele>195.2</ele>
        <time>2019-01-13T13:39:13Z</time>
      </trkpt>
      <trkpt lat="43.41799" lon="6.49734">
        <ele>194.9</ele>
        <time>2019-01-13T13:39:22Z</time>
      </trkpt>
      <trkpt lat="43.41806" lon="6.49741">
        <ele>194.3</ele>
        <time>2019-01-13T13:39:29Z</time>
      </trkpt>
      <trkpt lat="43.41813" lon="6.49751">
        <ele>194.2</ele>
        <time>2019-01-13T13:39:39Z</time>
      </trkpt>
      <trkpt lat="43.41819" lon="6.49762">
        <ele>194.2</ele>
        <time>2019-01-13T13:39:45Z</time>
      </trkpt>
      <trkpt lat="43.41826" lon="6.49771">
        <ele>194.4</ele>
        <time>2019-01-13T13:39:54Z</time>
      </trkpt>
      <trkpt lat="43.41834" lon="6.49777">
        <ele>193.9</ele>
        <time>2019-01-13T13:40:02Z</time>
      </trkpt>
      <trkpt lat="43.41842" lon="6.49785">
        <ele>193.9</ele>
        <time>2019-01-13T13:40:10Z</time>
      </trkpt>
      <trkpt lat="43.41849" lon="6.49793">
        <ele>193.9</ele>
        <time>2019-01-13T13:40:19Z</time>
      </trkpt>
      <trkpt lat="43.41853" lon="6.49805">
        <ele>193.8</ele>
        <time>2019-01-13T13:40:27Z</time>
      </trkpt>
      <trkpt lat="43.41855" lon="6.49818">
        <ele>193.5</ele>
        <time>2019-01-13T13:40:34Z</time>
      </trkpt>
      <trkpt lat="43.41853" lon="6.49831">
        <ele>192.8</ele>
        <time>2019-01-13T13:40:44Z</time>
      </trkpt>
      <trkpt lat="43.41852" lon="6.49844">
        <ele>192.4</ele>
        <time>2019-01-13T13:40:51Z</time>
      </trkpt>
      <trkpt lat="43.41853" lon="6.49857">
        <ele>192.1</ele>
        <time>2019-01-13T13:40:59Z</time>
      </trkpt>
      <trkpt lat="43.41853" lon="6.4987">
        <ele>192.1</ele>
        <time>2019-01-13T13:41:06Z</time>
      </trkpt>
      <trkpt lat="43.41859" lon="6.49879">
        <ele>192.4</ele>
        <time>2019-01-13T13:41:15Z</time>
      </trkpt>
      <trkpt lat="43.4187" lon="6.49882">
        <ele>192.3</ele>
        <time>2019-01-13T13:41:22Z</time>
      </trkpt>
      <trkpt lat="43.4188" lon="6.49884">
        <ele>191.8</ele>
        <time>2019-01-13T13:41:29Z</time>
      </trkpt>
      <trkpt lat="43.41888" lon="6.49891">
        <ele>190.8</ele>
        <time>2019-01-13T13:41:37Z</time>
      </trkpt>
      <trkpt lat="43.41898" lon="6.49895">
        <ele>190.3</ele>
        <time>2019-01-13T13:41:45Z</time>
      </trkpt>
      <trkpt lat="43.41906" lon="6.49902">
        <ele>189.9</ele>
        <time>2019-01-13T13:41:53Z</time>
      </trkpt>
      <trkpt lat="43.41914" lon="6.4991">
        <ele>189.8</ele>
        <time>2019-01-13T13:42:02Z</time>
      </trkpt>
      <trkpt lat="43.41918" lon="6.49923">
        <ele>189.3</ele>
        <time>2019-01-13T13:42:12Z</time>
      </trkpt>
      <trkpt lat="43.41923" lon="6.49933">
        <ele>189.2</ele>
        <time>2019-01-13T13:42:20Z</time>
      </trkpt>
      <trkpt lat="43.4193" lon="6.49944">
        <ele>189.5</ele>
        <time>2019-01-13T13:42:27Z</time>
      </trkpt>
      <trkpt lat="43.41938" lon="6.4995">
        <ele>189.3</ele>
        <time>2019-01-13T13:42:34Z</time>
      </trkpt>
      <trkpt lat="43.41947" lon="6.49954">
        <ele>189.1</ele>
        <time>2019-01-13T13:42:43Z</time>
      </trkpt>
      <trkpt lat="43.41954" lon="6.49962">
        <ele>188.8</ele>
        <time>2019-01-13T13:42:51Z</time>
      </trkpt>
      <trkpt lat="43.41963" lon="6.49967">
        <ele>188.8</ele>
        <time>2019-01-13T13:42:57Z</time>
      </trkpt>
      <trkpt lat="43.41972" lon="6.49972">
        <ele>188.7</ele>
        <time>2019-01-13T13:43:05Z</time>
      </trkpt>
      <trkpt lat="43.4198" lon="6.49979">
        <ele>188.6</ele>
        <time>2019-01-13T13:43:14Z</time>
      </trkpt>
      <trkpt lat="43.41989" lon="6.49986">
        <ele>188.6</ele>
        <time>2019-01-13T13:43:22Z</time>
      </trkpt>
      <trkpt lat="43.41994" lon="6.49997">
        <ele>188</ele>
        <time>2019-01-13T13:43:30Z</time>
      </trkpt>
      <trkpt lat="43.41999" lon="6.50008">
        <ele>188</ele>
        <time>2019-01-13T13:43:40Z</time>
      </trkpt>
      <trkpt lat="43.42003" lon="6.5002">
        <ele>187.8</ele>
        <time>2019-01-13T13:43:49Z</time>
      </trkpt>
      <trkpt lat="43.42007" lon="6.50034">
        <ele>187.6</ele>
        <time>2019-01-13T13:43:57Z</time>
      </trkpt>
      <trkpt lat="43.42011" lon="6.50046">
        <ele>187.3</ele>
        <time>2019-01-13T13:44:05Z</time>
      </trkpt>
      <trkpt lat="43.42016" lon="6.50057">
        <ele>187.3</ele>
        <time>2019-01-13T13:44:16Z</time>
      </trkpt>
      <trkpt lat="43.42018" lon="6.5007">
        <ele>187.2</ele>
        <time>2019-01-13T13:44:21Z</time>
      </trkpt>
      <trkpt lat="43.42023" lon="6.5008">
        <ele>186.8</ele>
        <time>2019-01-13T13:44:31Z</time>
      </trkpt>
      <trkpt lat="43.42032" lon="6.50085">
        <ele>186.5</ele>
        <time>2019-01-13T13:44:39Z</time>
      </trkpt>
      <trkpt lat="43.4204" lon="6.50092">
        <ele>186</ele>
        <time>2019-01-13T13:44:48Z</time>
      </trkpt>
      <trkpt lat="43.4205" lon="6.50098">
        <ele>185.4</ele>
        <time>2019-01-13T13:44:57Z</time>
      </trkpt>
      <trkpt lat="43.42058" lon="6.50104">
        <ele>185.3</ele>
        <time>2019-01-13T13:45:04Z</time>
      </trkpt>
      <trkpt lat="43.42066" lon="6.5011">
        <ele>184.7</ele>
        <time>2019-01-13T13:45:14Z</time>
      </trkpt>
      <trkpt lat="43.42075" lon="6.50111">
        <ele>184.6</ele>
        <time>2019-01-13T13:45:22Z</time>
      </trkpt>
      <trkpt lat="43.42081" lon="6.50098">
        <ele>184.2</ele>
        <time>2019-01-13T13:45:31Z</time>
      </trkpt>
      <trkpt lat="43.42084" lon="6.50086">
        <ele>183.8</ele>
        <time>2019-01-13T13:45:41Z</time>
      </trkpt>
      <trkpt lat="43.4209" lon="6.50076">
        <ele>182.7</ele>
        <time>2019-01-13T13:45:49Z</time>
      </trkpt>
      <trkpt lat="43.42097" lon="6.50068">
        <ele>181.4</ele>
        <time>2019-01-13T13:46:00Z</time>
      </trkpt>
      <trkpt lat="43.42105" lon="6.50061">
        <ele>181</ele>
        <time>2019-01-13T13:46:08Z</time>
      </trkpt>
      <trkpt lat="43.42114" lon="6.50051">
        <ele>180.5</ele>
        <time>2019-01-13T13:46:14Z</time>
      </trkpt>
      <trkpt lat="43.42121" lon="6.5004">
        <ele>179.5</ele>
        <time>2019-01-13T13:46:23Z</time>
      </trkpt>
      <trkpt lat="43.42129" lon="6.50032">
        <ele>178.4</ele>
        <time>2019-01-13T13:46:30Z</time>
      </trkpt>
      <trkpt lat="43.42138" lon="6.50031">
        <ele>177.7</ele>
        <time>2019-01-13T13:46:43Z</time>
      </trkpt>
      <trkpt lat="43.42146" lon="6.50039">
        <ele>177.6</ele>
        <time>2019-01-13T13:46:54Z</time>
      </trkpt>
      <trkpt lat="43.42151" lon="6.50051">
        <ele>177.4</ele>
        <time>2019-01-13T13:47:07Z</time>
      </trkpt>
      <trkpt lat="43.42155" lon="6.50062">
        <ele>176.8</ele>
        <time>2019-01-13T13:47:15Z</time>
      </trkpt>
      <trkpt lat="43.4216" lon="6.50074">
        <ele>176.5</ele>
        <time>2019-01-13T13:47:26Z</time>
      </trkpt>
      <trkpt lat="43.42166" lon="6.50084">
        <ele>176.2</ele>
        <time>2019-01-13T13:47:34Z</time>
      </trkpt>
      <trkpt lat="43.42172" lon="6.50093">
        <ele>176.2</ele>
        <time>2019-01-13T13:47:41Z</time>
      </trkpt>
      <trkpt lat="43.4218" lon="6.50101">
        <ele>175.6</ele>
        <time>2019-01-13T13:47:51Z</time>
      </trkpt>
      <trkpt lat="43.42188" lon="6.50109">
        <ele>175.4</ele>
        <time>2019-01-13T13:47:57Z</time>
      </trkpt>
      <trkpt lat="43.42196" lon="6.50116">
        <ele>174.6</ele>
        <time>2019-01-13T13:48:09Z</time>
      </trkpt>
      <trkpt lat="43.42204" lon="6.50121">
        <ele>174.5</ele>
        <time>2019-01-13T13:48:17Z</time>
      </trkpt>
      <trkpt lat="43.42211" lon="6.5013">
        <ele>174.1</ele>
        <time>2019-01-13T13:48:23Z</time>
      </trkpt>
      <trkpt lat="43.4222" lon="6.50134">
        <ele>173.8</ele>
        <time>2019-01-13T13:48:30Z</time>
      </trkpt>
      <trkpt lat="43.4223" lon="6.50137">
        <ele>173.7</ele>
        <time>2019-01-13T13:48:38Z</time>
      </trkpt>
      <trkpt lat="43.42236" lon="6.50147">
        <ele>173.6</ele>
        <time>2019-01-13T13:48:47Z</time>
      </trkpt>
      <trkpt lat="43.42242" lon="6.50158">
        <ele>173.7</ele>
        <time>2019-01-13T13:48:58Z</time>
      </trkpt>
      <trkpt lat="43.42248" lon="6.50168">
        <ele>173.2</ele>
        <time>2019-01-13T13:49:06Z</time>
      </trkpt>
      <trkpt lat="43.42251" lon="6.5018">
        <ele>173</ele>
        <time>2019-01-13T13:49:15Z</time>
      </trkpt>
      <trkpt lat="43.42255" lon="6.50193">
        <ele>173</ele>
        <time>2019-01-13T13:49:25Z</time>
      </trkpt>
      <trkpt lat="43.42258" lon="6.50206">
        <ele>172.4</ele>
        <time>2019-01-13T13:49:31Z</time>
      </trkpt>
      <trkpt lat="43.42256" lon="6.50218">
        <ele>172.4</ele>
        <time>2019-01-13T13:49:41Z</time>
      </trkpt>
      <trkpt lat="43.42261" lon="6.5023">
        <ele>172.5</ele>
        <time>2019-01-13T13:49:51Z</time>
      </trkpt>
      <trkpt lat="43.42267" lon="6.50243">
        <ele>172.6</ele>
        <time>2019-01-13T13:49:58Z</time>
      </trkpt>
      <trkpt lat="43.4227" lon="6.50255">
        <ele>172.2</ele>
        <time>2019-01-13T13:50:10Z</time>
      </trkpt>
      <trkpt lat="43.42272" lon="6.50267">
        <ele>171.8</ele>
        <time>2019-01-13T13:50:17Z</time>
      </trkpt>
      <trkpt lat="43.42277" lon="6.50278">
        <ele>171</ele>
        <time>2019-01-13T13:50:26Z</time>
      </trkpt>
      <trkpt lat="43.42273" lon="6.5029">
        <ele>170.9</ele>
        <time>2019-01-13T13:50:34Z</time>
      </trkpt>
      <trkpt lat="43.42278" lon="6.50302">
        <ele>171.7</ele>
        <time>2019-01-13T13:50:43Z</time>
      </trkpt>
      <trkpt lat="43.42284" lon="6.50312">
        <ele>171.7</ele>
        <time>2019-01-13T13:50:49Z</time>
      </trkpt>
      <trkpt lat="43.42285" lon="6.50324">
        <ele>171.3</ele>
        <time>2019-01-13T13:50:57Z</time>
      </trkpt>
      <trkpt lat="43.42284" lon="6.50337">
        <ele>170.5</ele>
        <time>2019-01-13T13:51:07Z</time>
      </trkpt>
      <trkpt lat="43.42283" lon="6.50351">
        <ele>170</ele>
        <time>2019-01-13T13:51:16Z</time>
      </trkpt>
      <trkpt lat="43.42286" lon="6.50363">
        <ele>170.1</ele>
        <time>2019-01-13T13:51:24Z</time>
      </trkpt>
      <trkpt lat="43.42295" lon="6.50366">
        <ele>169.9</ele>
        <time>2019-01-13T13:51:36Z</time>
      </trkpt>
      <trkpt lat="43.42305" lon="6.5036">
        <ele>170.2</ele>
        <time>2019-01-13T13:51:42Z</time>
      </trkpt>
      <trkpt lat="43.42312" lon="6.50351">
        <ele>169.8</ele>
        <time>2019-01-13T13:51:51Z</time>
      </trkpt>
      <trkpt lat="43.42319" lon="6.5034">
        <ele>168.7</ele>
        <time>2019-01-13T13:52:05Z</time>
      </trkpt>
      <trkpt lat="43.42326" lon="6.50332">
        <ele>169</ele>
        <time>2019-01-13T13:52:12Z</time>
      </trkpt>
      <trkpt lat="43.42334" lon="6.50326">
        <ele>169.1</ele>
        <time>2019-01-13T13:52:23Z</time>
      </trkpt>
      <trkpt lat="43.42332" lon="6.50313">
        <ele>168.7</ele>
        <time>2019-01-13T13:52:32Z</time>
      </trkpt>
      <trkpt lat="43.42334" lon="6.503">
        <ele>167.7</ele>
        <time>2019-01-13T13:52:45Z</time>
      </trkpt>
      <trkpt lat="43.42339" lon="6.50289">
        <ele>167.6</ele>
        <time>2019-01-13T13:52:52Z</time>
      </trkpt>
      <trkpt lat="43.42349" lon="6.5028">
        <ele>167.4</ele>
        <time>2019-01-13T13:53:03Z</time>
      </trkpt>
      <trkpt lat="43.42355" lon="6.50268">
        <ele>167.8</ele>
        <time>2019-01-13T13:57:43Z</time>
      </trkpt>
      <trkpt lat="43.42346" lon="6.50274">
        <ele>169</ele>
        <time>2019-01-13T13:59:36Z</time>
      </trkpt>
      <trkpt lat="43.42353" lon="6.50266">
        <ele>169.3</ele>
        <time>2019-01-13T14:00:01Z</time>
      </trkpt>
      <trkpt lat="43.42361" lon="6.50259">
        <ele>169</ele>
        <time>2019-01-13T14:00:06Z</time>
      </trkpt>
      <trkpt lat="43.42368" lon="6.50249">
        <ele>168.6</ele>
        <time>2019-01-13T14:00:12Z</time>
      </trkpt>
      <trkpt lat="43.42372" lon="6.50235">
        <ele>168.7</ele>
        <time>2019-01-13T14:00:19Z</time>
      </trkpt>
      <trkpt lat="43.42376" lon="6.50224">
        <ele>168.7</ele>
        <time>2019-01-13T14:00:24Z</time>
      </trkpt>
      <trkpt lat="43.42378" lon="6.50211">
        <ele>168.7</ele>
        <time>2019-01-13T14:00:32Z</time>
      </trkpt>
      <trkpt lat="43.42382" lon="6.50198">
        <ele>168.2</ele>
        <time>2019-01-13T14:00:39Z</time>
      </trkpt>
      <trkpt lat="43.42387" lon="6.50186">
        <ele>167.9</ele>
        <time>2019-01-13T14:00:45Z</time>
      </trkpt>
      <trkpt lat="43.42391" lon="6.50174">
        <ele>167.3</ele>
        <time>2019-01-13T14:00:53Z</time>
      </trkpt>
      <trkpt lat="43.42392" lon="6.5016">
        <ele>167.2</ele>
        <time>2019-01-13T14:01:03Z</time>
      </trkpt>
      <trkpt lat="43.42393" lon="6.50147">
        <ele>167.4</ele>
        <time>2019-01-13T14:01:12Z</time>
      </trkpt>
      <trkpt lat="43.42393" lon="6.50135">
        <ele>167.9</ele>
        <time>2019-01-13T14:01:19Z</time>
      </trkpt>
      <trkpt lat="43.42397" lon="6.50123">
        <ele>167.9</ele>
        <time>2019-01-13T14:01:25Z</time>
      </trkpt>
      <trkpt lat="43.42404" lon="6.50114">
        <ele>167.8</ele>
        <time>2019-01-13T14:01:32Z</time>
      </trkpt>
      <trkpt lat="43.42413" lon="6.50114">
        <ele>167.6</ele>
        <time>2019-01-13T14:01:40Z</time>
      </trkpt>
      <trkpt lat="43.42423" lon="6.50112">
        <ele>167.2</ele>
        <time>2019-01-13T14:01:49Z</time>
      </trkpt>
      <trkpt lat="43.42433" lon="6.50113">
        <ele>165.7</ele>
        <time>2019-01-13T14:02:00Z</time>
      </trkpt>
      <trkpt lat="43.4244" lon="6.50123">
        <ele>165</ele>
        <time>2019-01-13T14:02:10Z</time>
      </trkpt>
      <trkpt lat="43.42447" lon="6.50131">
        <ele>164.6</ele>
        <time>2019-01-13T14:02:20Z</time>
      </trkpt>
      <trkpt lat="43.42455" lon="6.50138">
        <ele>163.6</ele>
        <time>2019-01-13T14:02:31Z</time>
      </trkpt>
      <trkpt lat="43.42463" lon="6.50144">
        <ele>162.6</ele>
        <time>2019-01-13T14:02:39Z</time>
      </trkpt>
      <trkpt lat="43.42472" lon="6.50149">
        <ele>162.2</ele>
        <time>2019-01-13T14:02:45Z</time>
      </trkpt>
      <trkpt lat="43.42481" lon="6.5015">
        <ele>161.7</ele>
        <time>2019-01-13T14:02:55Z</time>
      </trkpt>
      <trkpt lat="43.4249" lon="6.50156">
        <ele>161.6</ele>
        <time>2019-01-13T14:03:02Z</time>
      </trkpt>
      <trkpt lat="43.42496" lon="6.50166">
        <ele>161.8</ele>
        <time>2019-01-13T14:03:10Z</time>
      </trkpt>
      <trkpt lat="43.425" lon="6.50178">
        <ele>161.9</ele>
        <time>2019-01-13T14:03:20Z</time>
      </trkpt>
      <trkpt lat="43.42502" lon="6.50191">
        <ele>161.2</ele>
        <time>2019-01-13T14:03:31Z</time>
      </trkpt>
      <trkpt lat="43.4251" lon="6.50199">
        <ele>160.8</ele>
        <time>2019-01-13T14:03:42Z</time>
      </trkpt>
      <trkpt lat="43.42519" lon="6.50209">
        <ele>161.3</ele>
        <time>2019-01-13T14:03:51Z</time>
      </trkpt>
      <trkpt lat="43.42523" lon="6.50221">
        <ele>160.8</ele>
        <time>2019-01-13T14:03:57Z</time>
      </trkpt>
      <trkpt lat="43.42527" lon="6.50233">
        <ele>159.4</ele>
        <time>2019-01-13T14:04:09Z</time>
      </trkpt>
      <trkpt lat="43.42537" lon="6.50232">
        <ele>159</ele>
        <time>2019-01-13T14:04:15Z</time>
      </trkpt>
      <trkpt lat="43.42546" lon="6.50234">
        <ele>158.5</ele>
        <time>2019-01-13T14:04:23Z</time>
      </trkpt>
      <trkpt lat="43.42556" lon="6.50235">
        <ele>158.2</ele>
        <time>2019-01-13T14:04:32Z</time>
      </trkpt>
      <trkpt lat="43.42565" lon="6.50237">
        <ele>157.9</ele>
        <time>2019-01-13T14:04:40Z</time>
      </trkpt>
      <trkpt lat="43.42575" lon="6.50238">
        <ele>157.7</ele>
        <time>2019-01-13T14:04:48Z</time>
      </trkpt>
      <trkpt lat="43.42584" lon="6.50237">
        <ele>157.4</ele>
        <time>2019-01-13T14:04:55Z</time>
      </trkpt>
      <trkpt lat="43.42592" lon="6.50245">
        <ele>156.7</ele>
        <time>2019-01-13T14:05:03Z</time>
      </trkpt>
      <trkpt lat="43.42597" lon="6.50256">
        <ele>156.4</ele>
        <time>2019-01-13T14:05:12Z</time>
      </trkpt>
      <trkpt lat="43.42596" lon="6.50269">
        <ele>155.1</ele>
        <time>2019-01-13T14:05:25Z</time>
      </trkpt>
      <trkpt lat="43.42591" lon="6.5028">
        <ele>154.5</ele>
        <time>2019-01-13T14:05:33Z</time>
      </trkpt>
      <trkpt lat="43.4259" lon="6.50293">
        <ele>154</ele>
        <time>2019-01-13T14:05:44Z</time>
      </trkpt>
      <trkpt lat="43.42589" lon="6.50306">
        <ele>153.8</ele>
        <time>2019-01-13T14:05:51Z</time>
      </trkpt>
      <trkpt lat="43.42589" lon="6.5032">
        <ele>153.2</ele>
        <time>2019-01-13T14:05:59Z</time>
      </trkpt>
      <trkpt lat="43.42593" lon="6.50331">
        <ele>152.4</ele>
        <time>2019-01-13T14:06:09Z</time>
      </trkpt>
      <trkpt lat="43.42602" lon="6.50334">
        <ele>151.8</ele>
        <time>2019-01-13T14:06:18Z</time>
      </trkpt>
      <trkpt lat="43.4261" lon="6.50342">
        <ele>151.9</ele>
        <time>2019-01-13T14:06:27Z</time>
      </trkpt>
      <trkpt lat="43.42617" lon="6.5035">
        <ele>151.2</ele>
        <time>2019-01-13T14:06:33Z</time>
      </trkpt>
      <trkpt lat="43.42624" lon="6.50358">
        <ele>150.8</ele>
        <time>2019-01-13T14:06:40Z</time>
      </trkpt>
      <trkpt lat="43.42633" lon="6.50366">
        <ele>150.9</ele>
        <time>2019-01-13T14:06:49Z</time>
      </trkpt>
      <trkpt lat="43.42639" lon="6.50375">
        <ele>150.3</ele>
        <time>2019-01-13T14:06:56Z</time>
      </trkpt>
      <trkpt lat="43.42647" lon="6.50384">
        <ele>149.5</ele>
        <time>2019-01-13T14:07:07Z</time>
      </trkpt>
      <trkpt lat="43.42652" lon="6.50394">
        <ele>149.1</ele>
        <time>2019-01-13T14:07:17Z</time>
      </trkpt>
      <trkpt lat="43.42659" lon="6.50407">
        <ele>148.6</ele>
        <time>2019-01-13T14:07:26Z</time>
      </trkpt>
      <trkpt lat="43.42662" lon="6.50419">
        <ele>147.8</ele>
        <time>2019-01-13T14:07:34Z</time>
      </trkpt>
      <trkpt lat="43.42664" lon="6.50432">
        <ele>147</ele>
        <time>2019-01-13T14:07:45Z</time>
      </trkpt>
      <trkpt lat="43.4267" lon="6.50443">
        <ele>146.3</ele>
        <time>2019-01-13T14:07:52Z</time>
      </trkpt>
      <trkpt lat="43.42671" lon="6.50456">
        <ele>145.9</ele>
        <time>2019-01-13T14:08:02Z</time>
      </trkpt>
      <trkpt lat="43.42673" lon="6.50469">
        <ele>144.7</ele>
        <time>2019-01-13T14:08:12Z</time>
      </trkpt>
      <trkpt lat="43.42672" lon="6.50482">
        <ele>144.1</ele>
        <time>2019-01-13T14:08:22Z</time>
      </trkpt>
      <trkpt lat="43.42679" lon="6.5049">
        <ele>143.9</ele>
        <time>2019-01-13T14:08:32Z</time>
      </trkpt>
      <trkpt lat="43.42687" lon="6.50495">
        <ele>143.3</ele>
        <time>2019-01-13T14:08:41Z</time>
      </trkpt>
      <trkpt lat="43.42694" lon="6.50505">
        <ele>142.7</ele>
        <time>2019-01-13T14:08:51Z</time>
      </trkpt>
      <trkpt lat="43.42699" lon="6.50516">
        <ele>141.8</ele>
        <time>2019-01-13T14:08:59Z</time>
      </trkpt>
      <trkpt lat="43.42707" lon="6.50524">
        <ele>141.5</ele>
        <time>2019-01-13T14:09:09Z</time>
      </trkpt>
      <trkpt lat="43.42716" lon="6.50532">
        <ele>140.9</ele>
        <time>2019-01-13T14:09:16Z</time>
      </trkpt>
      <trkpt lat="43.42724" lon="6.50538">
        <ele>140.6</ele>
        <time>2019-01-13T14:09:21Z</time>
      </trkpt>
      <trkpt lat="43.42734" lon="6.50541">
        <ele>140.3</ele>
        <time>2019-01-13T14:09:27Z</time>
      </trkpt>
      <trkpt lat="43.42744" lon="6.50542">
        <ele>139.9</ele>
        <time>2019-01-13T14:09:35Z</time>
      </trkpt>
      <trkpt lat="43.42753" lon="6.5054">
        <ele>139.6</ele>
        <time>2019-01-13T14:09:44Z</time>
      </trkpt>
      <trkpt lat="43.42762" lon="6.50534">
        <ele>138.4</ele>
        <time>2019-01-13T14:09:55Z</time>
      </trkpt>
      <trkpt lat="43.42772" lon="6.50532">
        <ele>137.5</ele>
        <time>2019-01-13T14:10:06Z</time>
      </trkpt>
      <trkpt lat="43.42781" lon="6.50533">
        <ele>137.2</ele>
        <time>2019-01-13T14:10:13Z</time>
      </trkpt>
      <trkpt lat="43.4279" lon="6.50537">
        <ele>136.7</ele>
        <time>2019-01-13T14:10:22Z</time>
      </trkpt>
      <trkpt lat="43.42799" lon="6.50545">
        <ele>135.7</ele>
        <time>2019-01-13T14:10:31Z</time>
      </trkpt>
      <trkpt lat="43.42807" lon="6.5055">
        <ele>134.6</ele>
        <time>2019-01-13T14:10:40Z</time>
      </trkpt>
      <trkpt lat="43.42816" lon="6.50553">
        <ele>133.8</ele>
        <time>2019-01-13T14:10:48Z</time>
      </trkpt>
      <trkpt lat="43.42826" lon="6.50556">
        <ele>132.9</ele>
        <time>2019-01-13T14:10:57Z</time>
      </trkpt>
      <trkpt lat="43.42836" lon="6.50555">
        <ele>131.9</ele>
        <time>2019-01-13T14:11:06Z</time>
      </trkpt>
      <trkpt lat="43.42845" lon="6.5056">
        <ele>131.3</ele>
        <time>2019-01-13T14:11:15Z</time>
      </trkpt>
      <trkpt lat="43.42854" lon="6.50562">
        <ele>130.4</ele>
        <time>2019-01-13T14:11:24Z</time>
      </trkpt>
      <trkpt lat="43.42863" lon="6.50567">
        <ele>129.5</ele>
        <time>2019-01-13T14:11:32Z</time>
      </trkpt>
      <trkpt lat="43.42873" lon="6.50571">
        <ele>128.5</ele>
        <time>2019-01-13T14:11:41Z</time>
      </trkpt>
      <trkpt lat="43.42882" lon="6.50574">
        <ele>127.4</ele>
        <time>2019-01-13T14:11:49Z</time>
      </trkpt>
      <trkpt lat="43.42891" lon="6.50575">
        <ele>126.6</ele>
        <time>2019-01-13T14:11:57Z</time>
      </trkpt>
      <trkpt lat="43.42901" lon="6.50576">
        <ele>125.4</ele>
        <time>2019-01-13T14:12:08Z</time>
      </trkpt>
      <trkpt lat="43.4291" lon="6.50572">
        <ele>125.1</ele>
        <time>2019-01-13T14:12:17Z</time>
      </trkpt>
      <trkpt lat="43.42921" lon="6.50571">
        <ele>124.2</ele>
        <time>2019-01-13T14:12:25Z</time>
      </trkpt>
      <trkpt lat="43.4293" lon="6.50574">
        <ele>123</ele>
        <time>2019-01-13T14:12:36Z</time>
      </trkpt>
      <trkpt lat="43.42939" lon="6.50579">
        <ele>122.5</ele>
        <time>2019-01-13T14:12:46Z</time>
      </trkpt>
      <trkpt lat="43.42948" lon="6.50586">
        <ele>121</ele>
        <time>2019-01-13T14:12:56Z</time>
      </trkpt>
      <trkpt lat="43.42957" lon="6.50591">
        <ele>120.1</ele>
        <time>2019-01-13T14:13:02Z</time>
      </trkpt>
      <trkpt lat="43.42965" lon="6.50595">
        <ele>119.8</ele>
        <time>2019-01-13T14:13:08Z</time>
      </trkpt>
      <trkpt lat="43.42974" lon="6.50599">
        <ele>119.5</ele>
        <time>2019-01-13T14:13:14Z</time>
      </trkpt>
      <trkpt lat="43.42981" lon="6.50609">
        <ele>118.6</ele>
        <time>2019-01-13T14:13:22Z</time>
      </trkpt>
      <trkpt lat="43.42987" lon="6.50619">
        <ele>118.1</ele>
        <time>2019-01-13T14:13:30Z</time>
      </trkpt>
      <trkpt lat="43.42989" lon="6.50632">
        <ele>117.2</ele>
        <time>2019-01-13T14:13:38Z</time>
      </trkpt>
      <trkpt lat="43.42994" lon="6.50643">
        <ele>116.3</ele>
        <time>2019-01-13T14:13:46Z</time>
      </trkpt>
      <trkpt lat="43.42998" lon="6.50655">
        <ele>115.3</ele>
        <time>2019-01-13T14:13:55Z</time>
      </trkpt>
      <trkpt lat="43.43" lon="6.50667">
        <ele>114.4</ele>
        <time>2019-01-13T14:14:04Z</time>
      </trkpt>
      <trkpt lat="43.43006" lon="6.50678">
        <ele>114.3</ele>
        <time>2019-01-13T14:14:13Z</time>
      </trkpt>
      <trkpt lat="43.43011" lon="6.50689">
        <ele>114</ele>
        <time>2019-01-13T14:14:19Z</time>
      </trkpt>
      <trkpt lat="43.43013" lon="6.50702">
        <ele>113.8</ele>
        <time>2019-01-13T14:14:24Z</time>
      </trkpt>
      <trkpt lat="43.43013" lon="6.50715">
        <ele>112</ele>
        <time>2019-01-13T14:14:34Z</time>
      </trkpt>
      <trkpt lat="43.43019" lon="6.50725">
        <ele>111.4</ele>
        <time>2019-01-13T14:14:43Z</time>
      </trkpt>
      <trkpt lat="43.43025" lon="6.50736">
        <ele>110.1</ele>
        <time>2019-01-13T14:14:52Z</time>
      </trkpt>
      <trkpt lat="43.4303" lon="6.50746">
        <ele>108.7</ele>
        <time>2019-01-13T14:15:00Z</time>
      </trkpt>
      <trkpt lat="43.43037" lon="6.50756">
        <ele>107.6</ele>
        <time>2019-01-13T14:15:09Z</time>
      </trkpt>
      <trkpt lat="43.43044" lon="6.50766">
        <ele>106</ele>
        <time>2019-01-13T14:15:18Z</time>
      </trkpt>
      <trkpt lat="43.4305" lon="6.50776">
        <ele>105</ele>
        <time>2019-01-13T14:15:26Z</time>
      </trkpt>
      <trkpt lat="43.43054" lon="6.50787">
        <ele>103.8</ele>
        <time>2019-01-13T14:15:32Z</time>
      </trkpt>
      <trkpt lat="43.43056" lon="6.50799">
        <ele>102.2</ele>
        <time>2019-01-13T14:15:40Z</time>
      </trkpt>
      <trkpt lat="43.4306" lon="6.50812">
        <ele>101.5</ele>
        <time>2019-01-13T14:15:49Z</time>
      </trkpt>
      <trkpt lat="43.43062" lon="6.50825">
        <ele>100.4</ele>
        <time>2019-01-13T14:15:59Z</time>
      </trkpt>
      <trkpt lat="43.43061" lon="6.50838">
        <ele>99.3</ele>
        <time>2019-01-13T14:16:06Z</time>
      </trkpt>
      <trkpt lat="43.43059" lon="6.50851">
        <ele>98</ele>
        <time>2019-01-13T14:16:17Z</time>
      </trkpt>
      <trkpt lat="43.43048" lon="6.50853">
        <ele>97.2</ele>
        <time>2019-01-13T14:16:25Z</time>
      </trkpt>
      <trkpt lat="43.4304" lon="6.50846">
        <ele>96.8</ele>
        <time>2019-01-13T14:16:33Z</time>
      </trkpt>
      <trkpt lat="43.43032" lon="6.50835">
        <ele>95.8</ele>
        <time>2019-01-13T14:16:42Z</time>
      </trkpt>
      <trkpt lat="43.43024" lon="6.50828">
        <ele>95.5</ele>
        <time>2019-01-13T14:16:49Z</time>
      </trkpt>
      <trkpt lat="43.43017" lon="6.50819">
        <ele>95.1</ele>
        <time>2019-01-13T14:16:57Z</time>
      </trkpt>
      <trkpt lat="43.43011" lon="6.5081">
        <ele>94.5</ele>
        <time>2019-01-13T14:17:05Z</time>
      </trkpt>
      <trkpt lat="43.43003" lon="6.50803">
        <ele>94</ele>
        <time>2019-01-13T14:17:14Z</time>
      </trkpt>
      <trkpt lat="43.42995" lon="6.50796">
        <ele>93.8</ele>
        <time>2019-01-13T14:17:26Z</time>
      </trkpt>
      <trkpt lat="43.42985" lon="6.50793">
        <ele>92.9</ele>
        <time>2019-01-13T14:17:36Z</time>
      </trkpt>
      <trkpt lat="43.42975" lon="6.50787">
        <ele>92.8</ele>
        <time>2019-01-13T14:17:45Z</time>
      </trkpt>
      <trkpt lat="43.42965" lon="6.50785">
        <ele>92.8</ele>
        <time>2019-01-13T14:17:52Z</time>
      </trkpt>
      <trkpt lat="43.42955" lon="6.50782">
        <ele>92.6</ele>
        <time>2019-01-13T14:18:01Z</time>
      </trkpt>
      <trkpt lat="43.42947" lon="6.50776">
        <ele>91.8</ele>
        <time>2019-01-13T14:18:10Z</time>
      </trkpt>
      <trkpt lat="43.42937" lon="6.50772">
        <ele>91.1</ele>
        <time>2019-01-13T14:18:19Z</time>
      </trkpt>
      <trkpt lat="43.42927" lon="6.50768">
        <ele>91</ele>
        <time>2019-01-13T14:18:26Z</time>
      </trkpt>
      <trkpt lat="43.42918" lon="6.50769">
        <ele>90.6</ele>
        <time>2019-01-13T14:18:32Z</time>
      </trkpt>
      <trkpt lat="43.42908" lon="6.50767">
        <ele>90.4</ele>
        <time>2019-01-13T14:18:40Z</time>
      </trkpt>
      <trkpt lat="43.42898" lon="6.50766">
        <ele>89.8</ele>
        <time>2019-01-13T14:18:48Z</time>
      </trkpt>
      <trkpt lat="43.42889" lon="6.50765">
        <ele>89.2</ele>
        <time>2019-01-13T14:18:57Z</time>
      </trkpt>
      <trkpt lat="43.4288" lon="6.50765">
        <ele>88.8</ele>
        <time>2019-01-13T14:19:02Z</time>
      </trkpt>
      <trkpt lat="43.42871" lon="6.50768">
        <ele>88.5</ele>
        <time>2019-01-13T14:19:11Z</time>
      </trkpt>
      <trkpt lat="43.42862" lon="6.5077">
        <ele>88.5</ele>
        <time>2019-01-13T14:19:18Z</time>
      </trkpt>
      <trkpt lat="43.42852" lon="6.50766">
        <ele>87.8</ele>
        <time>2019-01-13T14:19:30Z</time>
      </trkpt>
      <trkpt lat="43.42843" lon="6.50763">
        <ele>87.6</ele>
        <time>2019-01-13T14:19:39Z</time>
      </trkpt>
      <trkpt lat="43.42834" lon="6.50757">
        <ele>86.8</ele>
        <time>2019-01-13T14:19:47Z</time>
      </trkpt>
      <trkpt lat="43.42826" lon="6.50752">
        <ele>86.6</ele>
        <time>2019-01-13T14:19:55Z</time>
      </trkpt>
      <trkpt lat="43.42816" lon="6.50748">
        <ele>86.7</ele>
        <time>2019-01-13T14:20:03Z</time>
      </trkpt>
      <trkpt lat="43.42805" lon="6.50747">
        <ele>86.9</ele>
        <time>2019-01-13T14:20:10Z</time>
      </trkpt>
      <trkpt lat="43.42794" lon="6.50748">
        <ele>86.9</ele>
        <time>2019-01-13T14:20:15Z</time>
      </trkpt>
      <trkpt lat="43.42785" lon="6.50745">
        <ele>86.7</ele>
        <time>2019-01-13T14:20:22Z</time>
      </trkpt>
      <trkpt lat="43.42775" lon="6.50744">
        <ele>86</ele>
        <time>2019-01-13T14:20:31Z</time>
      </trkpt>
      <trkpt lat="43.42765" lon="6.50744">
        <ele>84.3</ele>
        <time>2019-01-13T14:20:46Z</time>
      </trkpt>
      <trkpt lat="43.42755" lon="6.50751">
        <ele>83.1</ele>
        <time>2019-01-13T14:20:57Z</time>
      </trkpt>
      <trkpt lat="43.42751" lon="6.50762">
        <ele>82.7</ele>
        <time>2019-01-13T14:21:08Z</time>
      </trkpt>
      <trkpt lat="43.4276" lon="6.50766">
        <ele>82.7</ele>
        <time>2019-01-13T14:21:18Z</time>
      </trkpt>
      <trkpt lat="43.42768" lon="6.50771">
        <ele>82.6</ele>
        <time>2019-01-13T14:21:24Z</time>
      </trkpt>
      <trkpt lat="43.42774" lon="6.50781">
        <ele>82.2</ele>
        <time>2019-01-13T14:21:32Z</time>
      </trkpt>
      <trkpt lat="43.42784" lon="6.50786">
        <ele>82.1</ele>
        <time>2019-01-13T14:21:40Z</time>
      </trkpt>
      <trkpt lat="43.42792" lon="6.50793">
        <ele>82.1</ele>
        <time>2019-01-13T14:21:44Z</time>
      </trkpt>
      <trkpt lat="43.42801" lon="6.50799">
        <ele>82.3</ele>
        <time>2019-01-13T14:21:50Z</time>
      </trkpt>
      <trkpt lat="43.42808" lon="6.50808">
        <ele>81.9</ele>
        <time>2019-01-13T14:21:58Z</time>
      </trkpt>
      <trkpt lat="43.42814" lon="6.50818">
        <ele>81.7</ele>
        <time>2019-01-13T14:22:06Z</time>
      </trkpt>
      <trkpt lat="43.42821" lon="6.50826">
        <ele>81.5</ele>
        <time>2019-01-13T14:22:14Z</time>
      </trkpt>
      <trkpt lat="43.42828" lon="6.50836">
        <ele>81.6</ele>
        <time>2019-01-13T14:22:21Z</time>
      </trkpt>
      <trkpt lat="43.42834" lon="6.50846">
        <ele>81.1</ele>
        <time>2019-01-13T14:22:31Z</time>
      </trkpt>
      <trkpt lat="43.42839" lon="6.50857">
        <ele>79.5</ele>
        <time>2019-01-13T14:22:48Z</time>
      </trkpt>
      <trkpt lat="43.42848" lon="6.50861">
        <ele>79.8</ele>
        <time>2019-01-13T14:22:57Z</time>
      </trkpt>
      <trkpt lat="43.42858" lon="6.5086">
        <ele>79</ele>
        <time>2019-01-13T14:23:03Z</time>
      </trkpt>
      <trkpt lat="43.42867" lon="6.50862">
        <ele>77.8</ele>
        <time>2019-01-13T14:23:14Z</time>
      </trkpt>
      <trkpt lat="43.42876" lon="6.50859">
        <ele>77.1</ele>
        <time>2019-01-13T14:23:19Z</time>
      </trkpt>
      <trkpt lat="43.42886" lon="6.5086">
        <ele>76</ele>
        <time>2019-01-13T14:23:32Z</time>
      </trkpt>
      <trkpt lat="43.42895" lon="6.50864">
        <ele>75</ele>
        <time>2019-01-13T14:23:42Z</time>
      </trkpt>
      <trkpt lat="43.42904" lon="6.50868">
        <ele>73.6</ele>
        <time>2019-01-13T14:23:55Z</time>
      </trkpt>
      <trkpt lat="43.42912" lon="6.50875">
        <ele>72.1</ele>
        <time>2019-01-13T14:24:10Z</time>
      </trkpt>
      <trkpt lat="43.42923" lon="6.50886">
        <ele>70.9</ele>
        <time>2019-01-13T14:24:24Z</time>
      </trkpt>
      <trkpt lat="43.42932" lon="6.50893">
        <ele>70.5</ele>
        <time>2019-01-13T14:24:32Z</time>
      </trkpt>
      <trkpt lat="43.4294" lon="6.50901">
        <ele>69.4</ele>
        <time>2019-01-13T14:24:40Z</time>
      </trkpt>
      <trkpt lat="43.42947" lon="6.50909">
        <ele>68.6</ele>
        <time>2019-01-13T14:24:46Z</time>
      </trkpt>
      <trkpt lat="43.42955" lon="6.50917">
        <ele>68.1</ele>
        <time>2019-01-13T14:24:53Z</time>
      </trkpt>
      <trkpt lat="43.4296" lon="6.50927">
        <ele>67.7</ele>
        <time>2019-01-13T14:25:00Z</time>
      </trkpt>
      <trkpt lat="43.42969" lon="6.50935">
        <ele>66.8</ele>
        <time>2019-01-13T14:25:06Z</time>
      </trkpt>
      <trkpt lat="43.42977" lon="6.50945">
        <ele>65.9</ele>
        <time>2019-01-13T14:25:15Z</time>
      </trkpt>
      <trkpt lat="43.42978" lon="6.50958">
        <ele>65.2</ele>
        <time>2019-01-13T14:25:24Z</time>
      </trkpt>
      <trkpt lat="43.42982" lon="6.50972">
        <ele>64.5</ele>
        <time>2019-01-13T14:25:34Z</time>
      </trkpt>
      <trkpt lat="43.42987" lon="6.50982">
        <ele>63.9</ele>
        <time>2019-01-13T14:25:42Z</time>
      </trkpt>
      <trkpt lat="43.42993" lon="6.50992">
        <ele>63.2</ele>
        <time>2019-01-13T14:25:47Z</time>
      </trkpt>
      <trkpt lat="43.43" lon="6.51002">
        <ele>62.1</ele>
        <time>2019-01-13T14:25:57Z</time>
      </trkpt>
      <trkpt lat="43.43009" lon="6.50999">
        <ele>59.1</ele>
        <time>2019-01-13T14:26:30Z</time>
      </trkpt>
      <trkpt lat="43.43016" lon="6.51008">
        <ele>58.5</ele>
        <time>2019-01-13T14:26:35Z</time>
      </trkpt>
      <trkpt lat="43.43019" lon="6.5102">
        <ele>57</ele>
        <time>2019-01-13T14:26:44Z</time>
      </trkpt>
      <trkpt lat="43.43024" lon="6.51032">
        <ele>55.9</ele>
        <time>2019-01-13T14:26:52Z</time>
      </trkpt>
      <trkpt lat="43.43023" lon="6.51045">
        <ele>54.4</ele>
        <time>2019-01-13T14:27:01Z</time>
      </trkpt>
      <trkpt lat="43.43023" lon="6.51058">
        <ele>53.4</ele>
        <time>2019-01-13T14:27:08Z</time>
      </trkpt>
      <trkpt lat="43.43016" lon="6.51067">
        <ele>52.8</ele>
        <time>2019-01-13T14:27:13Z</time>
      </trkpt>
      <trkpt lat="43.43017" lon="6.5108">
        <ele>52.2</ele>
        <time>2019-01-13T14:27:20Z</time>
      </trkpt>
      <trkpt lat="43.4301" lon="6.51091">
        <ele>51.3</ele>
        <time>2019-01-13T14:27:28Z</time>
      </trkpt>
      <trkpt lat="43.43014" lon="6.51102">
        <ele>50.8</ele>
        <time>2019-01-13T14:27:42Z</time>
      </trkpt>
      <trkpt lat="43.43022" lon="6.5111">
        <ele>51</ele>
        <time>2019-01-13T14:27:49Z</time>
      </trkpt>
      <trkpt lat="43.43031" lon="6.51117">
        <ele>51.7</ele>
        <time>2019-01-13T14:27:55Z</time>
      </trkpt>
      <trkpt lat="43.43037" lon="6.51129">
        <ele>51.9</ele>
        <time>2019-01-13T14:28:03Z</time>
      </trkpt>
      <trkpt lat="43.43046" lon="6.51135">
        <ele>51.8</ele>
        <time>2019-01-13T14:28:09Z</time>
      </trkpt>
      <trkpt lat="43.43054" lon="6.51144">
        <ele>52.1</ele>
        <time>2019-01-13T14:28:20Z</time>
      </trkpt>
      <trkpt lat="43.43063" lon="6.51147">
        <ele>52.4</ele>
        <time>2019-01-13T14:28:30Z</time>
      </trkpt>
      <trkpt lat="43.43072" lon="6.51149">
        <ele>52.4</ele>
        <time>2019-01-13T14:28:37Z</time>
      </trkpt>
      <trkpt lat="43.43083" lon="6.51146">
        <ele>52.3</ele>
        <time>2019-01-13T14:28:45Z</time>
      </trkpt>
      <trkpt lat="43.43093" lon="6.51142">
        <ele>52.4</ele>
        <time>2019-01-13T14:28:50Z</time>
      </trkpt>
      <trkpt lat="43.43102" lon="6.51138">
        <ele>52.4</ele>
        <time>2019-01-13T14:28:57Z</time>
      </trkpt>
      <trkpt lat="43.43111" lon="6.51132">
        <ele>52</ele>
        <time>2019-01-13T14:29:04Z</time>
      </trkpt>
      <trkpt lat="43.4312" lon="6.51127">
        <ele>51.5</ele>
        <time>2019-01-13T14:29:12Z</time>
      </trkpt>
      <trkpt lat="43.43128" lon="6.51125">
        <ele>51</ele>
        <time>2019-01-13T14:29:18Z</time>
      </trkpt>
      <trkpt lat="43.43138" lon="6.51121">
        <ele>49.7</ele>
        <time>2019-01-13T14:29:27Z</time>
      </trkpt>
      <trkpt lat="43.43147" lon="6.51116">
        <ele>48.3</ele>
        <time>2019-01-13T14:29:36Z</time>
      </trkpt>
      <trkpt lat="43.43155" lon="6.51108">
        <ele>47.4</ele>
        <time>2019-01-13T14:29:45Z</time>
      </trkpt>
      <trkpt lat="43.43161" lon="6.51096">
        <ele>46.9</ele>
        <time>2019-01-13T14:29:51Z</time>
      </trkpt>
      <trkpt lat="43.43164" lon="6.51084">
        <ele>46.4</ele>
        <time>2019-01-13T14:29:56Z</time>
      </trkpt>
      <trkpt lat="43.43167" lon="6.51072">
        <ele>45.6</ele>
        <time>2019-01-13T14:30:04Z</time>
      </trkpt>
      <trkpt lat="43.4317" lon="6.5106">
        <ele>44.9</ele>
        <time>2019-01-13T14:30:11Z</time>
      </trkpt>
      <trkpt lat="43.43174" lon="6.51048">
        <ele>44.1</ele>
        <time>2019-01-13T14:30:20Z</time>
      </trkpt>
      <trkpt lat="43.43184" lon="6.51044">
        <ele>43.6</ele>
        <time>2019-01-13T14:30:29Z</time>
      </trkpt>
      <trkpt lat="43.43192" lon="6.5105">
        <ele>42.9</ele>
        <time>2019-01-13T14:30:42Z</time>
      </trkpt>
      <trkpt lat="43.43203" lon="6.51051">
        <ele>43.1</ele>
        <time>2019-01-13T14:31:01Z</time>
      </trkpt>
      <trkpt lat="43.43212" lon="6.5105">
        <ele>43.4</ele>
        <time>2019-01-13T14:31:17Z</time>
      </trkpt>
      <trkpt lat="43.43221" lon="6.51054">
        <ele>43.7</ele>
        <time>2019-01-13T14:31:25Z</time>
      </trkpt>
      <trkpt lat="43.4323" lon="6.51053">
        <ele>42.8</ele>
        <time>2019-01-13T14:31:36Z</time>
      </trkpt>
      <trkpt lat="43.43239" lon="6.51051">
        <ele>42.5</ele>
        <time>2019-01-13T14:31:50Z</time>
      </trkpt>
      <trkpt lat="43.43249" lon="6.51054">
        <ele>42.4</ele>
        <time>2019-01-13T14:32:11Z</time>
      </trkpt>
      <trkpt lat="43.43258" lon="6.51055">
        <ele>43</ele>
        <time>2019-01-13T14:32:32Z</time>
      </trkpt>
      <trkpt lat="43.43267" lon="6.51053">
        <ele>42.8</ele>
        <time>2019-01-13T14:32:39Z</time>
      </trkpt>
      <trkpt lat="43.43276" lon="6.5105">
        <ele>42.9</ele>
        <time>2019-01-13T14:32:46Z</time>
      </trkpt>
      <trkpt lat="43.43285" lon="6.51046">
        <ele>43.4</ele>
        <time>2019-01-13T14:32:54Z</time>
      </trkpt>
      <trkpt lat="43.43294" lon="6.51042">
        <ele>43.5</ele>
        <time>2019-01-13T14:33:04Z</time>
      </trkpt>
      <trkpt lat="43.43304" lon="6.51039">
        <ele>43.4</ele>
        <time>2019-01-13T14:33:11Z</time>
      </trkpt>
      <trkpt lat="43.43313" lon="6.51035">
        <ele>43.6</ele>
        <time>2019-01-13T14:33:19Z</time>
      </trkpt>
      <trkpt lat="43.43323" lon="6.51033">
        <ele>43.8</ele>
        <time>2019-01-13T14:33:28Z</time>
      </trkpt>
      <trkpt lat="43.43332" lon="6.51031">
        <ele>44</ele>
        <time>2019-01-13T14:33:37Z</time>
      </trkpt>
      <trkpt lat="43.43342" lon="6.51032">
        <ele>44.2</ele>
        <time>2019-01-13T14:33:46Z</time>
      </trkpt>
      <trkpt lat="43.43349" lon="6.51025">
        <ele>44.3</ele>
        <time>2019-01-13T14:33:55Z</time>
      </trkpt>
      <trkpt lat="43.43358" lon="6.5103">
        <ele>44.4</ele>
        <time>2019-01-13T14:34:04Z</time>
      </trkpt>
      <trkpt lat="43.43366" lon="6.51036">
        <ele>45.1</ele>
        <time>2019-01-13T14:34:14Z</time>
      </trkpt>
      <trkpt lat="43.43376" lon="6.51037">
        <ele>45.4</ele>
        <time>2019-01-13T14:34:22Z</time>
      </trkpt>
      <trkpt lat="43.43385" lon="6.51036">
        <ele>45.9</ele>
        <time>2019-01-13T14:34:33Z</time>
      </trkpt>
      <trkpt lat="43.43394" lon="6.5104">
        <ele>46.3</ele>
        <time>2019-01-13T14:34:40Z</time>
      </trkpt>
      <trkpt lat="43.43402" lon="6.51045">
        <ele>46.6</ele>
        <time>2019-01-13T14:34:47Z</time>
      </trkpt>
      <trkpt lat="43.43411" lon="6.51048">
        <ele>46.7</ele>
        <time>2019-01-13T14:34:53Z</time>
      </trkpt>
      <trkpt lat="43.4342" lon="6.51053">
        <ele>46.5</ele>
        <time>2019-01-13T14:35:02Z</time>
      </trkpt>
      <trkpt lat="43.43429" lon="6.51051">
        <ele>46.6</ele>
        <time>2019-01-13T14:35:09Z</time>
      </trkpt>
      <trkpt lat="43.43435" lon="6.51053">
        <ele>46.6</ele>
        <time>2019-01-13T14:35:16Z</time>
      </trkpt>
    </trkseg>
  </trk>
</gpx>